[[{"header":{"parameterUnit":"m.s-1","parameterCategory":1,"la1":31.0,"la2":29.5877,"lo1":-88.7671,"lo2":-86.6584,"dy":0.0162,"dx":0.0185,"nx":115,"ny":88,"refTime":"2023-08-19T12:00:00:Z","depth":0,"parameterNumber":2,"parameterNumberName":"U-component_of_WINDS"},"data":[0.0,0.0,0.0,0.0,0.0,0.0,0.0,0.0,0.0,0.0,0.0,0.0,0.0,0.0,0.0,0.0,0.0,0.0,0.0,0.0,0.0,0.0,0.0,0.0,0.0,0.0,0.0,0.0,0.0,0.0,0.0,0.0,0.0,0.0,0.0,0.0,0.0,0.0,0.0,0.0,0.0,0.0,0.0,0.0,0.0,0.0,0.0,0.0,0.0,0.0,0.0,0.0,0.0,0.0,0.0,0.0,0.0,0.0,0.0,0.0,0.0,0.0,0.0,0.0,0.0,0.0,0.0,0.0,0.0,0.0,0.0,0.0,0.0,0.0,0.0,0.0,0.0,0.0,0.0,0.0,0.0,0.0,0.0,0.0,0.0,0.0,0.0,0.0,0.0,0.0,0.0,0.0,0.0,0.0,0.0,0.0,0.0,0.0,0.0,0.0,0.0,0.0,0.0,0.0,0.0,0.0,0.0,0.0,0.0,0.0,0.0,0.0,0.0,0.0,0.0,0.0,0.0,0.0,0.0,0.0,0.0,0.0,0.0,0.0,0.0,0.0,0.0,0.0,0.0,0.0,0.0,0.0,0.0,0.0,0.0,0.0,0.0,0.0,0.0,0.0,0.0,0.0,0.0,0.0,0.0,0.0,0.0,0.0,0.0,0.0,0.0,0.0,0.0,0.0,0.0,0.0,0.0,0.0,0.0,0.0,0.0,0.0,0.0,0.0,0.0,0.0,0.0,0.0,0.0,0.0,0.0,0.0,0.0,0.0,0.0,0.0,0.0,0.0,0.0,0.0,0.0,0.0,0.0,0.0,0.0,0.0,0.0,0.0,0.0,0.0,0.0,0.0,0.0,0.0,0.0,0.0,0.0,0.0,0.0,0.0,0.0,0.0,0.0,0.0,0.0,0.0,0.0,0.0,0.0,0.0,0.0,0.0,0.0,0.0,0.0,0.0,0.0,0.0,0.0,0.0,0.0,0.0,0.0,0.0,0.0,0.0,0.0,0.0,0.0,0.0,0.0,0.0,0.0,0.0,0.0,0.0,0.0,0.0,0.0,0.0,0.0,0.0,0.0,0.0,0.0,0.0,0.0,0.0,0.0,0.0,0.0,0.0,0.0,0.0,0.0,0.0,0.0,0.0,0.0,0.0,0.0,0.0,0.0,0.0,0.0,0.0,0.0,0.0,0.0,0.0,0.0,0.0,0.0,0.0,0.0,0.0,0.0,0.0,0.0,0.0,0.0,0.0,0.0,0.0,0.0,0.0,0.0,0.0,0.0,0.0,0.0,0.0,0.0,0.0,0.0,0.0,0.0,0.0,0.0,0.0,0.0,0.0,0.0,0.0,0.0,0.0,0.0,0.0,0.0,0.0,0.0,0.0,0.0,0.0,0.0,0.0,0.0,0.0,0.0,0.0,0.0,0.0,0.0,0.0,0.0,0.0,0.0,0.0,0.0,0.0,0.0,0.0,0.0,0.0,0.0,0.0,0.0,0.0,0.0,0.0,0.0,0.0,0.0,0.0,0.0,0.0,0.0,0.0,0.0,0.0,0.0,0.0,0.0,0.0,0.0,0.0,0.0,0.0,0.0,0.0,0.0,0.0,0.0,0.0,0.0,0.0,0.0,0.0,0.0,0.0,0.0,0.0,0.0,0.0,0.0,0.0,0.0,0.0,0.0,0.0,0.0,0.0,0.0,0.0,0.0,0.0,0.0,0.0,0.0,0.0,0.0,0.0,0.0,0.0,0.0,0.0,0.0,0.0,0.0,0.0,0.0,0.0,0.0,0.0,0.0,0.0,0.0,0.0,0.0,0.0,0.0,0.0,0.0,0.0,0.0,0.0,0.0,0.0,0.0,0.0,0.0,0.0,0.0,0.0,0.0,0.0,0.0,0.0,0.0,0.0,0.0,0.0,0.0,0.0,0.0,0.0,0.0,0.0,0.0,0.0,0.0,0.0,0.0,0.0,0.0,0.0,0.0,0.0,0.0,0.0,0.0,0.0,0.0,0.0,0.0,0.0,0.0,0.0,0.0,0.0,0.0,0.0,0.0,0.0,0.0,0.0,0.0,0.0,0.0,0.0,0.0,0.0,0.0,0.0,0.0,0.0,0.0,0.0,0.0,0.0,0.0,0.0,0.0,0.0,0.0,0.0,0.0,0.0,0.0,0.0,0.0,0.0,0.0,0.0,0.0,0.0,0.0,0.0,0.0,0.0,0.0,0.0,0.0,0.0,0.0,0.0,0.0,0.0,0.0,0.0,0.0,0.0,0.0,0.0,0.0,0.0,0.0,0.0,0.0,0.0,0.0,0.0,0.0,0.0,0.0,0.0,0.0,0.0,0.0,0.0,0.0,0.0,0.0,0.0,0.0,0.0,0.0,0.0,0.0,0.0,0.0,0.0,0.0,0.0,0.0,0.0,0.0,0.0,0.0,0.0,0.0,0.0,0.0,0.0,0.0,0.0,0.0,0.0,0.0,0.0,0.0,0.0,0.0,0.0,0.0,0.0,0.0,0.0,0.0,0.0,0.0,0.0,0.0,0.0,0.0,0.0,0.0,0.0,0.0,0.0,0.0,0.0,0.0,0.0,0.0,0.0,0.0,0.0,0.0,0.0,0.0,0.0,0.0,0.0,0.0,0.0,0.0,0.0,0.0,0.0,0.0,0.0,0.0,0.0,0.0,0.0,0.0,0.0,0.0,0.0,0.0,0.0,0.0,0.0,0.0,0.0,0.0,0.0,0.0,0.0,0.0,0.0,0.0,0.0,0.0,0.0,0.0,0.0,0.0,0.0,0.0,0.0,0.0,0.0,0.0,0.0,0.0,0.0,0.0,0.0,0.0,0.0,0.0,0.0,0.0,0.0,0.0,0.0,0.0,0.0,0.0,0.0,0.0,0.0,0.0,0.0,0.0,0.0,0.0,0.0,0.0,0.0,0.0,0.0,0.0,0.0,0.0,0.0,0.0,0.0,0.0,0.0,0.0,0.0,0.0,0.0,0.0,0.0,0.0,0.0,0.0,0.0,0.0,0.0,0.0,0.0,0.0,0.0,0.0,0.0,0.0,0.0,0.0,0.0,0.0,0.0,0.0,0.0,0.0,0.0,0.0,0.0,0.0,0.0,0.0,0.0,0.0,0.0,0.0,0.0,0.0,0.0,0.0,0.0,0.0,0.0,0.0,0.0,0.0,0.0,0.0,0.0,0.0,0.0,0.0,0.0,0.0,0.0,0.0,0.0,0.0,0.0,0.0,0.0,0.0,0.0,0.0,0.0,0.0,0.0,0.0,0.0,0.0,0.0,0.0,0.0,0.0,0.0,0.0,0.0,0.0,0.0,0.0,0.0,0.0,0.0,0.0,0.0,0.0,0.0,0.0,0.0,0.0,0.0,0.0,0.0,0.0,0.0,0.0,0.0,0.0,0.0,0.0,0.0,0.0,0.0,0.0,0.0,0.0,0.0,0.0,0.0,0.0,0.0,0.0,0.0,0.0,0.0,0.0,0.0,0.0,0.0,0.0,0.0,0.0,0.0,0.0,0.0,0.0,0.0,0.0,0.0,0.0,0.0,0.0,0.0,0.0,0.0,0.0,0.0,0.0,0.0,0.0,0.0,0.0,0.0,0.0,0.0,0.0,0.0,0.0,0.0,0.0,0.0,0.0,0.0,0.0,0.0,0.0,0.0,0.0,0.0,0.0,0.0,0.0,0.0,0.0,0.0,0.0,0.0,0.0,0.0,0.0,0.0,0.0,0.0,0.0,0.0,0.0,0.0,0.0,0.0,0.0,0.0,0.0,0.0,0.0,0.0,0.0,0.0,0.0,0.0,0.0,0.0,0.0,0.0,0.0,0.0,0.0,0.0,0.0,0.0,0.0,0.0,0.0,0.0,0.0,0.0,0.0,0.0,0.0,0.0,0.0,0.0,0.0,0.0,0.0,0.0,0.0,0.0,0.0,0.0,0.0,0.0,0.0,0.0,0.0,0.0,0.0,0.0,0.0,0.0,0.0,0.0,0.0,0.0,0.0,0.0,0.0,0.0,0.0,0.0,0.0,0.0,0.0,0.0,0.0,0.0,0.0,0.0,0.0,0.0,0.0,0.0,0.0,0.0,0.0,0.0,0.0,0.0,0.0,0.0,0.0,0.0,0.0,0.0,0.0,0.0,0.0,0.0,0.0,0.0,0.0,0.0,0.0,0.0,0.0,0.0,0.0,0.0,0.0,0.0,0.0,0.0,0.0,0.0,0.0,0.0,0.0,0.0,0.0,0.0,0.0,0.0,0.0,0.0,1.9061,0.0,0.0,0.0,0.0,0.0,0.0,0.0,0.0,0.0,0.0,0.0,0.0,0.0,0.0,0.0,0.0,0.0,0.0,0.0,0.0,0.0,0.0,0.0,0.0,0.0,0.0,0.0,0.0,0.0,0.0,0.0,0.0,0.0,0.0,0.0,0.0,0.0,0.0,0.0,0.0,0.0,0.0,0.0,0.0,0.0,0.0,0.0,0.0,0.0,0.0,0.0,0.0,0.0,0.0,0.0,0.0,0.0,0.0,0.0,0.0,0.0,0.0,0.0,0.0,0.0,0.0,0.0,0.0,0.0,0.0,0.0,0.0,0.0,0.0,0.0,0.0,0.0,0.0,0.0,0.0,0.0,0.0,0.0,0.0,0.0,0.0,0.0,0.0,0.0,0.0,0.0,0.0,0.0,0.0,0.0,0.0,0.0,0.0,0.0,0.0,0.0,0.0,0.0,0.0,0.0,0.0,0.0,0.0,0.0,0.0,1.6546,1.712,1.7113,1.6973,1.6739,0.0,0.0,0.0,0.0,0.0,0.0,0.0,0.0,0.0,0.0,0.0,0.0,0.0,0.0,0.0,0.0,0.0,0.0,0.0,0.0,0.0,0.0,0.0,0.0,0.0,0.0,0.0,0.0,0.0,0.0,0.0,0.0,0.0,0.0,0.0,0.0,0.0,0.0,0.0,0.0,0.0,0.0,0.0,0.0,0.0,0.0,0.0,0.0,0.0,0.0,0.0,0.0,0.0,0.0,0.0,0.0,0.0,0.0,0.0,0.0,0.0,0.0,0.0,0.0,0.0,0.0,0.0,0.0,0.0,0.0,0.0,0.0,0.0,0.0,0.0,0.0,0.0,0.0,0.0,0.0,0.0,0.0,0.0,0.0,0.0,0.0,0.0,0.0,0.0,0.0,0.0,0.0,0.0,0.0,0.0,0.0,0.0,0.0,0.0,0.0,0.0,0.0,0.0,0.0,0.0,0.0,0.0,0.0,0.0,0.0,0.0,0.0,1.5061,1.4965,1.4864,0.0,0.0,0.0,0.0,0.0,0.0,0.0,0.0,0.0,0.0,0.0,0.0,0.0,0.0,0.0,0.0,0.0,0.0,0.0,0.0,0.0,0.0,0.0,0.0,0.0,0.0,0.0,0.0,0.0,0.0,0.0,0.0,0.0,0.0,0.0,0.0,0.0,0.0,0.0,0.0,0.0,0.0,0.0,0.0,0.0,0.0,0.0,0.0,0.0,0.0,0.0,0.0,0.0,0.0,0.0,0.0,0.0,0.0,0.0,0.0,0.0,0.0,0.0,0.0,0.0,0.0,0.0,0.0,0.0,0.0,0.0,0.0,0.0,0.0,0.0,0.0,0.0,0.0,0.0,0.0,0.0,0.0,0.0,0.0,0.0,0.0,0.0,0.0,0.0,0.0,0.0,0.0,0.0,0.0,0.0,0.0,0.0,0.0,0.0,0.0,0.0,0.0,0.0,0.0,0.0,0.0,0.0,0.0,0.0,0.0,1.3227,1.3044,1.2851,0.0,1.4184,0.0,0.0,0.0,0.0,0.0,0.0,0.0,0.0,0.0,0.0,0.0,0.0,0.0,0.0,0.0,0.0,0.0,0.0,0.0,0.0,0.0,0.0,0.0,0.0,0.0,0.0,0.0,0.0,0.0,0.0,0.0,0.0,0.0,0.0,0.0,0.0,0.0,0.0,0.0,0.0,0.0,0.0,0.0,0.0,0.0,0.0,0.0,0.0,0.0,0.0,0.0,0.0,0.0,0.0,0.0,0.0,0.0,0.0,0.0,0.0,0.0,0.0,0.0,0.0,0.0,0.0,0.0,0.0,0.0,0.0,0.0,0.0,0.0,0.0,0.0,0.0,0.0,0.0,0.0,0.0,0.0,0.0,0.0,0.0,0.0,0.0,0.0,0.0,0.0,0.0,0.0,0.0,0.0,0.0,0.0,0.0,0.0,0.0,0.0,0.0,0.0,0.0,0.0,0.0,0.0,0.0,0.0,0.0,0.0,0.0,1.1912,1.1834,1.1313,1.1316,0.0,0.0,0.0,0.0,0.0,0.0,0.0,0.0,0.0,0.0,0.0,0.0,0.0,0.0,0.0,0.0,0.0,0.0,0.0,0.0,0.0,0.0,0.0,0.0,0.0,0.0,0.0,0.0,0.0,0.0,0.0,0.0,0.0,0.0,0.0,0.0,0.0,0.0,0.0,0.0,0.0,0.0,0.0,0.0,0.0,0.0,0.0,0.0,0.0,0.0,0.0,0.0,0.0,0.0,0.0,0.0,0.0,0.0,0.0,0.0,0.0,0.0,0.0,0.0,0.0,0.0,0.0,0.0,0.0,0.0,0.0,0.0,0.0,0.0,0.0,0.0,0.0,0.0,0.0,0.0,0.0,0.0,0.0,0.0,0.0,0.0,0.0,0.0,0.0,0.0,0.0,0.0,0.0,0.0,0.0,0.0,0.0,0.0,0.0,0.0,0.0,0.0,0.0,0.0,0.0,0.0,0.0,0.0,0.0,0.0,1.0118,1.0031,1.0136,0.9962,0.987,0.987,0.0,0.0,0.0,0.0,0.0,0.0,0.0,0.0,0.0,0.0,0.0,0.0,0.0,0.0,0.0,0.0,0.0,0.0,0.0,0.0,0.0,0.0,0.0,0.0,0.0,0.0,0.0,0.0,0.0,0.0,0.0,0.0,0.0,0.0,0.0,0.0,0.0,0.0,0.0,0.0,0.0,0.0,0.0,0.0,0.0,0.0,0.0,0.0,0.0,0.0,0.0,0.0,0.0,0.0,0.0,0.0,0.0,0.0,0.0,0.0,0.0,0.0,0.0,0.0,0.0,0.0,0.0,0.0,0.0,0.0,0.0,0.0,0.0,0.0,0.0,0.0,0.0,0.0,0.0,0.0,0.0,0.0,0.0,0.0,0.0,0.0,0.0,0.0,0.0,0.0,0.0,0.0,0.0,0.0,0.0,0.0,0.0,0.0,0.0,0.0,0.0,0.0,0.0,0.0,0.0,0.0,0.0,0.0,0.8567,0.7537,0.7114,0.76,0.8672,0.9088,0.0,0.0,0.0,0.0,0.0,0.0,0.0,0.0,0.0,0.0,0.0,0.0,0.0,0.0,0.0,0.0,0.0,0.0,0.0,0.0,0.0,0.0,0.0,0.0,0.0,0.0,0.0,0.0,0.0,0.0,0.0,0.0,0.0,0.0,0.0,0.0,0.0,0.0,0.0,0.0,0.0,0.0,0.0,0.0,0.0,0.0,0.0,0.0,0.0,0.0,0.0,0.0,0.0,0.0,0.0,0.0,0.0,0.0,0.0,0.0,0.0,0.0,0.0,0.0,0.0,0.0,0.0,0.0,0.0,0.0,0.0,0.0,0.0,0.0,0.0,0.0,0.0,0.0,0.0,0.0,0.0,0.0,0.0,0.0,0.0,0.0,0.0,0.0,0.0,0.0,0.0,0.0,0.0,0.0,0.0,0.0,0.0,0.0,0.0,0.0,0.0,0.0,0.0,0.0,0.0,0.0,0.0,0.0,0.0,0.6297,0.5962,0.5694,0.5627,0.6599,0.6975,0.0,0.0,0.0,0.0,0.0,0.0,0.0,0.0,0.0,0.0,0.0,0.0,0.0,0.0,0.0,0.0,0.0,0.0,0.0,0.0,0.0,0.0,0.0,0.0,0.0,0.0,0.0,0.0,0.0,0.0,0.0,0.0,0.0,0.0,0.0,0.0,0.0,0.0,0.0,0.0,0.0,0.0,0.0,0.0,0.0,0.0,0.0,0.0,0.0,0.0,0.0,0.0,0.0,0.0,0.0,0.0,0.0,0.0,0.0,0.0,0.0,0.0,0.0,0.0,0.0,0.0,0.0,0.0,0.0,0.0,0.0,0.0,0.0,0.0,0.0,0.0,0.0,0.0,0.0,0.0,0.0,0.0,0.0,0.0,0.0,0.0,0.0,0.0,0.0,0.0,0.0,0.0,0.0,0.0,0.0,0.0,0.0,0.0,0.0,0.0,0.0,0.0,0.0,0.0,0.0,0.0,0.0,0.0,0.0,0.3022,0.0,0.3318,0.337,0.4184,0.4703,0.0,0.0,0.0,0.0,0.0,0.0,0.0,0.0,0.0,0.0,0.0,0.0,0.0,0.0,0.0,0.0,0.0,0.0,0.0,0.0,0.0,0.0,0.0,0.0,0.0,0.0,0.0,0.0,0.0,0.0,0.0,0.0,0.0,0.0,0.0,0.0,0.0,0.0,0.0,0.0,0.0,0.0,0.0,0.0,0.0,0.0,0.0,0.0,0.0,0.0,0.0,0.0,0.0,0.0,0.0,0.0,0.0,0.0,0.0,0.0,0.0,0.0,0.0,0.0,0.0,0.0,0.0,0.0,0.0,0.0,0.0,0.0,0.0,0.0,0.0,0.0,0.0,0.0,0.0,0.0,0.0,0.0,0.0,0.0,0.0,0.0,0.0,0.0,0.0,0.0,0.0,0.0,0.0,0.0,0.0,0.0,0.0,0.0,0.0,0.0,0.0,0.0,0.0,0.0,0.0,0.0,0.0,0.0,0.0,-0.1253,-0.0892,-0.0134,0.0669,0.147,0.2359,0.0,0.0,0.0,0.0,0.0,0.0,0.0,0.0,0.0,0.0,0.0,0.0,0.0,0.0,0.0,0.0,0.0,0.0,0.0,0.0,0.0,0.0,0.0,0.0,0.0,0.0,0.0,0.0,0.0,0.0,0.0,0.0,0.0,0.0,0.0,0.0,0.0,0.0,0.0,0.0,0.0,0.0,0.0,0.0,0.0,0.0,0.0,0.0,0.0,0.0,0.0,0.0,0.0,0.0,0.0,0.0,0.0,0.0,0.0,0.0,0.0,0.0,0.0,0.0,0.0,0.0,0.0,0.0,0.0,0.0,0.0,0.0,0.0,0.0,0.0,0.0,0.0,0.0,0.0,0.0,0.0,0.0,0.0,0.0,0.0,0.0,0.0,0.0,0.0,0.0,0.0,0.0,0.0,0.0,0.0,0.0,0.0,0.0,0.0,0.0,0.0,0.0,0.0,0.0,0.0,0.0,0.0,0.0,0.0,-0.2189,-0.2186,-0.1829,-0.1028,-0.0312,0.058,0.0,0.0,0.0,0.0,0.0,0.0,0.0,0.0,0.0,0.0,0.0,0.0,0.0,0.0,0.0,0.0,0.0,0.0,0.0,0.0,0.0,0.0,0.0,0.0,0.0,0.0,0.0,0.0,0.0,0.0,0.0,0.0,0.0,0.0,0.0,0.0,0.0,0.0,0.0,0.0,0.0,0.0,0.0,0.0,0.0,0.0,0.0,0.0,0.0,0.0,0.0,0.0,0.0,0.0,0.0,0.0,0.0,0.0,0.0,0.0,0.0,0.0,0.0,0.0,0.0,0.0,0.0,0.0,0.0,0.0,0.0,0.0,0.0,0.0,0.0,0.0,0.0,0.0,0.0,0.0,0.0,0.0,0.0,0.0,0.0,0.0,0.0,0.0,0.0,0.0,0.0,0.0,0.0,0.0,0.0,0.0,0.0,0.0,0.0,0.0,0.0,0.0,0.0,0.0,0.0,0.0,0.0,0.0,0.0,-0.5286,-0.4723,-0.4063,-0.3173,-0.2587,-0.1829,-0.0759,0.0,0.0,0.0,0.0,0.0,0.0,0.0,0.0,0.0,0.0,0.0,0.0,0.0,0.0,0.0,0.0,0.0,0.0,0.0,0.0,0.0,0.0,0.0,0.0,0.0,0.0,0.0,0.0,0.0,0.0,0.0,0.0,0.0,0.0,0.0,0.0,0.0,0.0,0.0,0.0,0.0,0.0,0.0,0.0,0.0,0.0,0.0,0.0,0.0,0.0,0.0,0.0,0.0,0.0,0.0,0.0,0.0,0.0,0.0,0.0,0.0,0.0,0.0,0.0,0.0,0.0,0.0,0.0,0.0,0.0,0.0,0.0,0.0,0.0,0.0,0.0,0.0,0.0,0.0,0.0,0.0,0.0,0.0,0.0,0.0,0.0,0.0,0.0,0.0,0.0,0.0,0.0,0.0,0.0,0.0,0.0,0.0,0.0,0.0,0.0,0.0,0.0,0.0,0.0,0.0,0.0,0.0,0.0,-0.9874,-0.8185,-0.6735,-0.5534,-0.5176,-0.4465,0.0,0.0,0.0,0.0,0.0,0.0,0.0,0.0,0.0,0.0,0.0,0.0,0.0,0.0,0.0,0.0,0.0,0.0,0.0,0.0,0.0,0.0,0.0,0.0,0.0,0.0,0.0,0.0,0.0,0.0,0.0,0.0,0.0,0.0,0.0,0.0,0.0,0.0,0.0,0.0,0.0,0.0,0.0,0.0,0.0,0.0,0.0,0.0,0.0,0.0,0.0,0.0,0.0,0.0,0.0,0.0,0.0,0.0,0.0,0.0,0.0,0.0,0.0,0.0,0.0,0.0,0.0,0.0,0.0,0.0,0.0,0.0,0.0,0.0,0.0,0.0,0.0,0.0,0.0,0.0,0.0,0.0,0.0,0.0,0.0,0.0,0.0,0.0,0.0,0.0,0.0,0.0,0.0,0.0,0.0,0.0,0.0,0.0,0.0,0.0,0.0,0.0,0.0,0.0,0.0,0.0,0.0,0.0,0.0,-0.9879,-0.9966,-0.9078,-0.723,-0.5968,-0.4825,0.0,0.0,0.0,0.0,0.0,0.0,0.0,0.0,0.0,0.0,0.0,0.0,0.0,0.0,0.0,0.0,0.0,0.0,0.0,0.0,0.0,0.0,0.0,0.0,0.0,0.0,0.0,0.0,0.0,0.0,0.0,0.0,0.0,0.0,0.0,0.0,0.0,0.0,0.0,0.0,0.0,0.0,0.0,0.0,0.0,0.0,0.0,0.0,0.0,0.0,0.0,0.0,0.0,0.0,0.0,0.0,0.0,0.0,0.0,0.0,0.0,0.0,0.0,0.0,0.0,0.0,0.0,0.0,0.0,0.0,0.0,0.0,0.0,0.0,0.0,0.0,0.0,0.0,0.0,0.0,0.0,0.0,0.0,0.0,0.0,0.0,0.0,0.0,0.0,0.0,0.0,0.0,0.0,0.0,0.0,0.0,0.0,0.0,0.0,0.0,0.0,0.0,0.0,0.0,0.0,0.0,0.0,0.0,-1.0923,-1.1483,-1.1569,-1.108,-1.001,-0.8154,-0.6722,0.0,0.0,0.0,0.0,0.0,0.0,0.0,0.0,0.0,0.0,0.0,0.0,0.0,0.0,0.0,0.0,0.0,0.0,0.0,0.0,0.0,0.0,0.0,0.0,0.0,0.0,0.0,0.0,0.0,0.0,0.0,0.0,0.0,0.0,0.0,0.0,0.0,0.0,0.0,0.0,0.0,0.0,0.0,0.0,0.0,0.0,0.0,0.0,0.0,0.0,0.0,0.0,0.0,0.0,0.0,0.0,0.0,0.0,0.0,0.0,0.0,0.0,0.0,0.0,0.0,0.0,0.0,0.0,0.0,0.0,0.0,0.0,0.0,0.0,0.0,0.0,0.0,0.0,0.0,0.0,0.0,0.0,0.0,0.0,0.0,0.0,0.0,0.0,0.0,0.0,0.0,0.0,0.0,0.0,0.0,0.0,0.0,0.0,0.0,0.0,0.0,0.0,0.0,0.0,0.0,0.0,0.0,0.0,-1.2619,-1.3773,-1.3209,-1.2942,-1.3057,-1.0826,-0.9231,0.0,0.0,0.0,0.0,0.0,0.0,0.0,0.0,0.0,0.0,0.0,0.0,0.0,0.0,0.0,0.0,0.0,0.0,0.0,0.0,0.0,0.0,0.0,0.0,0.0,0.0,0.0,0.0,0.0,0.0,0.0,0.0,0.0,0.0,0.0,0.0,0.0,0.0,0.0,0.0,0.0,0.0,0.0,0.0,0.0,0.0,0.0,0.0,0.0,0.0,0.0,0.0,0.0,0.0,0.0,0.0,0.0,0.0,0.0,0.0,0.0,0.0,0.0,0.0,0.0,0.0,0.0,0.0,0.0,0.0,0.0,0.0,0.0,0.0,0.0,0.0,0.0,0.0,0.0,0.0,0.0,0.0,0.0,0.0,0.0,0.0,0.0,0.0,0.0,0.0,0.0,0.0,0.0,0.0,0.0,0.0,0.0,0.0,0.0,0.0,0.0,0.0,0.0,0.0,0.0,0.0,0.0,0.0,-1.4455,-1.4713,-1.5564,-1.5399,-1.4132,-1.1171,-0.9575,0.0,0.0,0.0,0.0,0.0,0.0,0.0,0.0,0.0,0.0,0.0,0.0,0.0,0.0,0.0,0.0,0.0,0.0,0.0,0.0,0.0,0.0,0.0,0.0,0.0,0.0,0.0,0.0,0.0,0.0,0.0,0.0,0.0,0.0,0.0,0.0,0.0,0.0,0.0,0.0,0.0,0.0,0.0,0.0,0.0,0.0,0.0,0.0,0.684,0.0,0.0,0.0,0.0,0.0,0.0,0.0,0.0,0.0,0.0,0.0,0.0,0.0,0.0,0.0,0.0,0.0,0.0,0.0,0.0,0.0,0.0,0.0,0.0,0.0,0.0,0.0,0.0,0.0,0.0,0.0,0.0,0.0,0.0,0.0,0.0,0.0,0.0,0.0,0.0,0.0,0.0,0.0,0.0,0.0,0.0,0.0,0.0,0.0,0.0,0.0,0.0,0.0,0.0,0.0,0.0,0.0,0.0,0.0,-1.5957,-1.5977,-1.6976,-1.7066,-1.5944,-1.3568,-1.1829,0.0,0.0,0.0,0.0,0.0,0.0,0.0,0.0,0.0,0.0,0.0,0.0,0.0,0.0,0.0,0.0,0.0,0.0,0.0,0.0,0.0,0.0,0.0,0.0,0.0,0.0,0.0,0.0,0.0,0.0,0.0,0.0,0.0,0.0,0.0,0.0,0.0,0.0,0.0,0.0,0.0,0.0,0.0,0.0,0.0,0.0,0.0,0.0,0.0,0.0,0.0,0.0,0.0,0.0,0.0,0.0,0.0,0.0,0.0,0.0,0.0,0.0,0.0,0.0,0.0,0.0,0.0,0.0,0.0,0.0,0.0,0.0,0.0,0.0,0.0,0.0,0.0,0.0,0.0,0.0,0.0,0.0,0.0,0.0,0.0,0.0,0.0,0.0,0.0,0.0,0.0,0.0,0.0,0.0,0.0,0.0,0.0,0.0,0.0,0.0,0.0,0.0,0.0,0.0,0.0,0.0,0.0,-1.6807,-1.7215,-1.7331,-1.807,-1.8202,-1.7632,-1.6467,-1.4613,-1.2072,0.0,0.0,0.0,0.0,0.0,0.0,0.0,0.0,0.0,0.0,0.0,0.0,0.0,0.0,0.0,0.0,0.0,0.0,0.0,0.0,0.0,0.0,0.0,0.0,0.0,0.0,0.0,0.0,0.0,0.0,0.0,0.0,0.0,0.0,0.0,0.0,0.0,0.0,0.4889,0.3148,0.0,0.0,0.0,0.0,0.0,0.0,0.0,0.0,-0.1807,0.0,0.0,0.0,0.0,0.0,0.0,0.0,0.0,0.0,0.0,0.0,0.0,0.0,0.0,0.0,0.0,0.0,0.0,0.0,0.0,0.0,0.0,0.0,0.0,0.0,0.0,0.0,0.0,0.0,0.0,0.0,0.0,0.0,0.0,0.0,0.0,0.0,0.0,0.0,0.0,0.0,0.0,0.0,0.0,0.0,0.0,0.0,0.0,0.0,0.0,0.0,0.0,0.0,0.0,0.0,0.0,-1.7385,-1.7756,-1.8171,-1.8658,-1.9349,-1.9,-1.7508,-1.7505,-1.6324,-1.3724,0.0,0.0,0.0,0.0,0.0,0.0,0.0,0.0,0.0,0.0,0.0,0.0,0.0,0.0,0.0,0.0,0.0,0.0,0.0,0.0,0.0,0.0,0.0,0.0,0.0,0.0,0.0,0.0,0.0,0.0,0.0,0.0,0.0,0.0,0.0,0.0,0.0,0.0,0.0,0.134,0.0349,0.0,0.0,0.0,0.0,0.0,0.0,0.0,0.0,-0.2708,0.0,0.0,0.0,0.0,0.0,0.0,0.0,0.0,0.0,0.0,0.0,0.0,0.0,0.0,0.0,0.0,0.0,0.0,0.0,0.0,0.0,0.0,0.0,0.0,0.0,0.0,0.0,0.0,0.0,0.0,0.0,0.0,0.0,0.0,0.0,0.0,0.0,0.0,0.0,0.0,0.0,0.0,0.0,0.0,0.0,0.0,0.0,0.0,0.0,0.0,0.0,0.0,0.0,0.0,0.0,-1.8267,-1.9189,-1.9788,-2.0105,-2.0803,-2.0465,-1.8962,-1.8643,-1.7428,0.0,0.0,0.0,0.0,0.0,0.0,0.0,0.0,0.0,0.0,0.0,0.0,0.0,0.0,0.0,0.0,0.0,0.0,0.0,0.0,0.0,0.0,0.0,0.0,0.0,0.0,0.0,0.0,0.0,0.0,0.0,0.0,0.0,0.0,0.0,0.0,0.0,0.0,0.0,0.0,-0.3039,-0.3927,-0.39,0.0,0.0,0.0,0.0,0.0,0.0,-0.6837,-0.6738,0.0,0.0,0.0,0.0,0.0,0.0,0.0,0.0,0.0,0.0,0.0,0.0,0.0,0.0,0.0,0.0,0.0,0.0,0.0,0.0,0.0,0.0,0.0,0.0,0.0,0.0,0.0,0.0,0.0,0.0,0.0,0.0,0.0,0.0,0.0,0.0,0.0,0.0,0.0,0.0,0.0,0.0,0.0,0.0,0.0,0.0,0.0,0.0,0.0,0.0,0.0,0.0,0.0,0.0,0.0,-1.8909,-2.0304,-2.1118,-2.1248,-2.1766,-2.1551,-2.0505,-1.955,-1.8226,0.0,0.0,0.0,0.0,0.0,0.0,0.0,0.0,0.0,0.0,0.0,0.0,0.0,0.0,0.0,0.0,0.0,0.0,0.0,0.0,0.0,0.0,0.0,0.0,0.0,0.0,0.0,0.0,0.0,0.0,0.0,0.0,0.0,0.0,0.0,0.0,0.0,0.0,0.0,0.0,0.0,-0.7904,-0.771,-0.8075,0.0,0.0,0.0,0.0,-1.06,-1.093,0.0,0.0,0.0,0.0,0.0,0.0,0.0,0.0,0.0,0.0,0.0,0.0,0.0,0.0,0.0,0.0,0.0,0.0,0.0,0.0,0.0,0.0,0.0,0.0,0.0,0.0,0.0,0.0,0.0,0.0,0.0,0.0,0.0,0.0,0.0,0.0,0.0,0.0,0.0,0.0,0.0,0.0,0.0,0.0,0.0,0.0,0.0,0.0,0.0,0.0,0.0,0.0,0.0,0.0,0.0,0.0,-1.9088,-2.0303,-2.1187,-2.1663,-2.1407,-2.1168,-2.1007,-1.9876,-1.8691,0.0,0.0,0.0,0.0,0.0,0.0,0.0,0.0,0.0,0.0,0.0,0.0,0.0,0.0,0.0,0.0,0.0,0.0,0.0,0.0,0.0,0.0,0.0,0.0,0.0,0.0,0.0,0.0,0.0,0.0,0.0,0.0,0.0,0.0,0.0,0.0,0.0,0.0,0.0,0.0,0.0,-0.9338,-0.9244,-1.0395,-1.1335,0.0,0.0,-1.3198,-1.2264,-1.2742,0.0,0.0,0.0,0.0,0.0,0.0,0.0,0.0,0.0,0.0,0.0,0.0,0.0,0.0,0.0,0.0,0.0,0.0,0.0,0.0,0.0,0.0,0.0,0.0,0.0,0.0,0.0,0.0,0.0,0.0,0.0,0.0,0.0,0.0,0.0,0.0,0.0,0.0,0.0,0.0,0.0,0.0,0.0,0.0,0.0,0.0,0.0,0.0,0.0,0.0,0.0,0.0,0.0,0.0,0.0,-1.9768,-2.0127,-2.1003,-2.1631,-2.198,-2.1843,-2.1526,-2.1123,-2.0355,-1.942,0.0,0.0,0.0,0.0,0.0,0.0,0.0,0.0,0.0,0.0,0.0,0.0,0.0,0.0,0.0,0.0,0.0,0.0,0.0,0.0,0.0,0.0,0.0,0.0,0.0,0.0,0.0,0.0,0.0,0.0,0.0,0.0,0.0,0.0,0.0,0.0,0.0,0.0,0.0,0.0,0.0,0.0,-1.3452,-1.4345,0.0,0.0,0.0,-1.6567,-1.7067,0.0,0.0,0.0,0.0,0.0,0.0,0.0,0.0,0.0,0.0,0.0,0.0,0.0,0.0,0.0,0.0,0.0,0.0,0.0,0.0,0.0,0.0,0.0,0.0,0.0,0.0,0.0,0.0,0.0,0.0,0.0,0.0,0.0,0.0,0.0,0.0,0.0,0.0,0.0,0.0,0.0,0.0,0.0,0.0,0.0,0.0,0.0,0.0,0.0,0.0,0.0,0.0,0.0,0.0,0.0,0.0,0.0,-2.0921,-2.162,-2.2061,-2.2197,-2.2197,-2.1956,-2.1451,-2.0965,0.0,0.0,0.0,0.0,0.0,0.0,0.0,0.0,0.0,0.0,0.0,0.0,0.0,0.0,0.0,0.0,0.0,0.0,0.0,0.0,0.0,0.0,0.0,0.0,0.0,0.0,0.0,-1.0746,0.0,0.0,0.0,0.0,0.0,0.0,0.0,0.0,0.0,0.0,0.0,0.0,0.0,0.0,-1.6168,-1.665,-1.7558,-1.8444,0.0,0.0,-2.0243,-2.1447,-2.0994,-2.05,0.0,0.0,0.0,0.0,0.0,0.0,0.0,0.0,0.0,0.0,0.0,0.0,0.0,0.0,0.0,0.0,0.0,0.0,0.0,0.0,0.0,0.0,0.0,0.0,0.0,0.0,0.0,0.0,0.0,0.0,0.0,0.0,0.0,0.0,0.0,0.0,0.0,0.0,0.0,0.0,0.0,0.0,0.0,0.0,0.0,0.0,0.0,0.0,0.0,0.0,0.0,0.0,0.0,0.0,0.0,-2.0921,-2.1757,-2.2185,-2.2197,-2.2197,-2.2247,-2.2316,-2.1796,-2.1282,0.0,0.0,0.0,0.0,0.0,0.0,0.0,0.0,0.0,0.0,0.0,0.0,0.0,0.0,0.0,0.0,0.0,0.0,0.0,0.0,0.0,0.0,0.0,0.0,0.0,0.0,0.0,0.0,0.0,0.0,0.0,0.0,0.0,0.0,0.0,0.0,0.0,0.0,0.0,0.0,0.0,-1.652,-1.7156,-1.8979,-2.0603,0.0,0.0,-2.4594,-2.3997,-2.382,-2.3369,-2.2148,0.0,0.0,0.0,0.0,0.0,0.0,0.0,0.0,0.0,0.0,0.0,0.0,0.0,0.0,0.0,0.0,0.0,0.0,0.0,0.0,0.0,0.0,0.0,0.0,0.0,0.0,0.0,0.0,0.0,0.0,0.0,0.0,0.0,0.0,0.0,0.0,0.0,0.0,0.0,0.0,0.0,0.0,0.0,0.0,0.0,0.0,0.0,0.0,0.0,0.0,0.0,0.0,0.0,-2.1889,-2.2255,-2.2586,-2.258,-2.2216,-2.2641,-2.272,-2.242,-2.1982,-2.1537,0.0,0.0,0.0,0.0,0.0,0.0,0.0,0.0,0.0,0.0,0.0,0.0,0.0,0.0,0.0,0.0,0.0,0.0,0.0,0.0,0.0,0.0,0.0,0.0,0.0,0.0,0.0,0.0,-1.4561,-1.4801,-1.5224,0.0,0.0,0.0,0.0,0.0,0.0,0.0,0.0,0.0,0.0,-2.0163,-2.0783,-2.2015,0.0,0.0,-2.5194,-2.5969,-2.7025,-2.6713,-2.6253,-2.5988,-2.5044,0.0,0.0,0.0,0.0,0.0,0.0,0.0,0.0,0.0,0.0,0.0,0.0,0.0,0.0,0.0,0.0,0.0,0.0,0.0,0.0,0.0,0.0,0.0,0.0,0.0,0.0,0.0,0.0,0.0,0.0,0.0,0.0,0.0,0.0,0.0,0.0,0.0,0.0,0.0,0.0,0.0,0.0,0.0,0.0,0.0,0.0,0.0,0.0,0.0,0.0,0.0,0.0,-2.2962,-2.3357,-2.3344,-2.3088,-2.2561,-2.3207,-2.328,-2.2592,-2.2494,-2.2116,0.0,0.0,0.0,0.0,0.0,0.0,0.0,0.0,0.0,0.0,0.0,0.0,0.0,0.0,0.0,0.0,0.0,0.0,0.0,0.0,0.0,0.0,0.0,0.0,0.0,0.0,0.0,0.0,-1.6778,-1.7,-1.7468,0.0,0.0,0.0,0.0,0.0,0.0,0.0,0.0,0.0,0.0,-2.2734,-2.3819,-2.4735,-2.582,-2.7221,-2.7593,-2.8352,-3.0062,-2.9606,-2.9126,-2.9222,0.0,0.0,0.0,0.0,0.0,0.0,0.0,0.0,0.0,0.0,0.0,0.0,0.0,0.0,0.0,0.0,0.0,0.0,0.0,0.0,0.0,0.0,0.0,0.0,0.0,0.0,0.0,0.0,0.0,0.0,-2.87,0.0,0.0,0.0,0.0,0.0,0.0,0.0,0.0,0.0,0.0,0.0,0.0,0.0,0.0,0.0,0.0,0.0,0.0,0.0,0.0,0.0,0.0,-2.3946,-2.4005,-2.3962,-2.3728,-2.3301,-2.3917,-2.3813,-2.2902,-2.3429,-2.3212,-2.2084,0.0,0.0,0.0,0.0,0.0,0.0,0.0,0.0,0.0,0.0,0.0,0.0,0.0,0.0,0.0,0.0,0.0,0.0,0.0,0.0,0.0,0.0,0.0,0.0,0.0,0.0,-1.8638,-1.7902,-1.7523,0.0,0.0,0.0,0.0,0.0,0.0,0.0,0.0,0.0,0.0,-2.2372,-2.3431,-2.5596,-2.6853,-2.8055,-2.9504,-3.1045,-3.2311,-3.2953,-3.2579,-3.2034,0.0,0.0,0.0,0.0,0.0,0.0,0.0,0.0,0.0,0.0,0.0,0.0,0.0,0.0,0.0,0.0,0.0,0.0,0.0,0.0,0.0,0.0,0.0,0.0,0.0,0.0,0.0,-3.0797,-3.093,0.0,0.0,0.0,0.0,0.0,0.0,0.0,0.0,0.0,0.0,0.0,-2.6654,-2.6124,0.0,0.0,0.0,0.0,0.0,0.0,0.0,0.0,0.0,0.0,0.0,0.0,-2.4208,-2.4595,-2.4237,-2.3606,-2.2807,-2.3402,-2.3276,-2.2346,-2.2977,-2.281,-2.1662,0.0,0.0,0.0,0.0,0.0,0.0,0.0,0.0,0.0,0.0,0.0,0.0,0.0,0.0,0.0,0.0,0.0,0.0,0.0,0.0,0.0,0.0,0.0,0.0,0.0,-2.2275,0.0,0.0,0.0,0.0,0.0,0.0,0.0,0.0,0.0,0.0,0.0,-2.2076,-2.3507,-2.4724,-2.5835,-2.6909,-2.841,-2.9696,0.0,0.0,0.0,0.0,0.0,0.0,0.0,0.0,0.0,0.0,0.0,0.0,0.0,0.0,-3.2159,-2.9113,-2.8437,-2.8437,-2.8756,0.0,0.0,0.0,0.0,0.0,0.0,0.0,0.0,0.0,0.0,0.0,0.0,0.0,0.0,-3.1438,0.0,-3.0421,0.0,0.0,0.0,0.0,0.0,0.0,0.0,0.0,-2.8106,-2.7429,-2.7108,-2.6499,-2.6028,0.0,-2.5332,-2.5218,0.0,0.0,0.0,0.0,0.0,0.0,0.0,0.0,-2.4175,-2.4329,-2.3834,-2.3221,-2.2631,-2.3091,-2.3043,-2.2389,-2.2646,-2.2478,-2.1741,-2.0858,-2.0499,0.0,0.0,0.0,0.0,0.0,0.0,0.0,0.0,0.0,0.0,0.0,0.0,0.0,0.0,0.0,0.0,0.0,0.0,0.0,0.0,0.0,0.0,0.0,-2.3751,0.0,0.0,0.0,0.0,0.0,0.0,0.0,0.0,0.0,-2.2611,-2.2982,-2.4011,-2.5733,-2.6881,-2.7841,-2.8712,0.0,0.0,0.0,0.0,0.0,0.0,0.0,-3.5594,-3.5875,-3.6383,-3.6831,-3.7041,-3.7207,-3.7243,-3.6975,0.0,0.0,-3.2442,-3.2048,-3.2317,-3.2317,-3.3202,-3.4068,-3.4375,-3.5186,-3.591,0.0,0.0,0.0,0.0,0.0,0.0,0.0,0.0,-3.1991,-3.1926,0.0,-3.0695,0.0,0.0,0.0,0.0,0.0,-2.9373,0.0,0.0,-2.8397,-2.767,-2.6543,-2.6487,-2.644,-2.6427,-2.6402,-2.6417,-2.6356,-2.4191,0.0,0.0,0.0,0.0,0.0,0.0,-2.3837,-2.3255,-2.288,-2.2671,-2.2658,-2.2923,-2.3015,-2.2948,-2.2498,-2.2295,-2.2346,-2.1867,-2.1505,-2.1456,-2.1997,0.0,0.0,0.0,0.0,0.0,0.0,0.0,0.0,0.0,0.0,0.0,0.0,0.0,0.0,0.0,0.0,0.0,0.0,0.0,0.0,-2.3421,0.0,0.0,0.0,0.0,0.0,0.0,0.0,0.0,0.0,0.0,-2.5622,-2.5548,-2.6222,-2.8313,0.0,0.0,0.0,0.0,-3.271,-3.3149,-3.4501,-3.5698,-3.6445,-3.7173,-3.7537,-3.7185,0.0,0.0,-3.988,-3.983,-3.9394,-3.8659,-3.8475,-3.8152,-3.6909,-3.6946,-3.7339,-3.7444,-3.772,-3.8285,-3.8389,-3.847,-3.8822,-4.0741,0.0,0.0,0.0,0.0,-3.5708,-3.5246,-3.5656,-3.4664,-3.3826,-3.309,-3.1905,0.0,0.0,0.0,0.0,0.0,0.0,-2.9442,-2.9289,-2.9091,-2.8625,-2.7901,-2.7821,-2.755,-2.7196,-2.6654,-2.6395,-2.6375,-2.4826,-2.4136,-2.4287,0.0,0.0,0.0,0.0,-2.3395,-2.316,-2.2417,-2.2032,-2.2112,-2.1865,-2.1969,-2.242,-2.194,-2.224,-2.3446,-2.3004,-2.3108,-2.3879,-2.4116,0.0,0.0,0.0,0.0,0.0,0.0,0.0,0.0,0.0,0.0,0.0,0.0,0.0,0.0,0.0,0.0,0.0,0.0,0.0,-2.6311,-2.5985,-2.5836,0.0,0.0,0.0,0.0,0.0,0.0,0.0,0.0,0.0,-2.9483,-2.7872,-2.6951,0.0,0.0,-3.0099,-3.0538,-3.241,-3.3819,-3.3961,-3.569,0.0,0.0,-3.8537,-3.9142,-3.9505,-4.0258,-4.07,-4.0284,-4.0147,-3.9862,-3.9076,-3.8915,-3.8834,-3.859,-3.7964,-3.7753,-3.8154,-3.8248,-3.8356,-3.8777,-3.9192,-3.9353,-4.1067,-3.9724,-3.8784,-3.834,-3.7999,-3.6295,-3.5688,-3.5886,-3.4685,-3.3741,-3.2918,-3.2114,-3.1365,-3.0684,-2.9964,0.0,0.0,0.0,-2.9602,-2.9599,-2.949,-2.9113,-2.8514,-2.8412,-2.8199,-2.7868,-2.717,-2.6731,-2.6467,-2.5033,-2.4325,-2.4423,0.0,0.0,-2.298,-2.2667,-2.2298,-2.1845,-2.1106,-2.0881,-2.1222,-2.1259,-2.1462,-2.1848,-2.157,-2.2215,-2.386,-2.3482,-2.377,-2.4953,-2.5398,-2.5315,0.0,0.0,0.0,0.0,0.0,0.0,0.0,0.0,0.0,0.0,0.0,-2.4854,-2.5452,0.0,0.0,0.0,-2.6005,-2.6752,-2.7267,-2.7189,0.0,0.0,0.0,0.0,0.0,0.0,0.0,-2.8807,-2.8789,-2.9228,-3.0465,-2.9385,-2.8796,-2.9754,-3.1152,-3.1922,-3.1579,0.0,-3.472,-3.4342,-3.5804,-3.723,-3.7866,-3.8745,-3.9487,-3.9945,-4.046,-4.0679,-4.0238,-4.0238,-4.0111,-3.9455,-3.9324,-3.944,-3.9514,-3.8804,-3.8435,-3.9093,-3.9362,-3.9578,-3.9987,-4.0288,-4.037,-4.0098,-3.8781,-3.8495,-3.7662,-3.6498,-3.6019,-3.5162,-3.4102,-3.3275,-3.2528,-3.1874,-3.1734,-3.1424,-3.1029,-3.0585,0.0,-3.0399,-2.9869,-2.9602,-2.9602,-2.9602,-2.9188,-2.852,-2.8456,-2.8442,-2.8407,-2.7657,-2.704,-2.6484,-2.4797,-2.3885,-2.3767,-2.3723,-2.2948,-2.1626,-2.1444,-2.0927,-1.9908,-1.9446,-1.9512,-2.0156,-2.0917,-2.1321,-2.1321,-2.1328,-2.2075,-2.3644,-2.3385,-2.37,-2.486,-2.5934,-2.5771,-2.4217,0.0,0.0,0.0,0.0,0.0,0.0,0.0,0.0,0.0,0.0,0.0,0.0,0.0,0.0,0.0,-2.6849,0.0,-2.7184,-2.7646,0.0,0.0,0.0,-2.9049,-2.9085,-2.9279,-2.9501,-2.9566,0.0,0.0,-2.973,-3.0219,-3.1219,-3.2984,-3.3927,-3.4136,-3.3335,-3.4587,-3.5363,-3.4534,-3.547,-3.6544,-3.7438,-3.8378,-3.914,-3.9364,-3.9569,-3.9896,-3.9828,-4.0112,-4.0093,-3.9423,-3.9591,-3.9804,-3.9838,-3.9458,-3.9477,-3.9962,-4.0691,-4.1245,-4.1177,-4.1344,-4.1342,-3.8906,-3.8152,-3.8069,-3.8108,-3.8093,-3.6151,-3.5653,-3.6154,-3.5085,-3.3916,-3.2758,-3.2285,-3.1224,-2.9821,-2.9573,-2.9561,-2.9813,-2.9641,-2.9602,-2.9602,-2.9602,-2.9243,-2.8641,-2.8122,-2.7906,-2.7839,-2.6246,-2.5409,-2.5328,-2.3941,-2.3004,-2.2615,-2.2214,-2.2206,-2.2623,-2.1452,-2.0669,-2.0418,-1.9628,-1.938,-1.9734,-2.0334,-2.0671,-2.0771,-2.0697,-2.127,-2.2554,-2.2857,-2.3331,-2.4151,-2.5199,-2.5399,-2.468,-2.5719,0.0,0.0,0.0,0.0,0.0,0.0,0.0,0.0,0.0,-2.7971,-2.897,0.0,-2.9545,0.0,-2.8426,-2.8539,-2.9532,-2.9798,0.0,0.0,-3.0589,-3.0737,-2.985,-3.0387,-3.0688,-3.0299,-3.0269,-3.0638,-3.1632,-3.1478,-3.1797,-3.3208,-3.3244,-3.3152,-3.3402,-3.4632,-3.5594,-3.5725,-3.6787,-3.7934,-3.8374,-3.9106,-3.9674,-4.0089,-4.0238,-4.0149,-3.959,-3.9777,-3.9717,-3.8983,-3.9065,-3.9291,-3.9412,-3.9373,-3.9369,-3.962,-3.984,-4.0046,-4.0243,-4.0344,-4.0419,-3.6877,-3.5993,-3.5979,-3.6047,-3.6046,-3.5303,-3.5069,-3.5149,-3.4135,-3.2972,-3.172,-3.1321,-3.0723,-3.0056,-2.9664,-2.9706,-2.9964,-2.9743,-2.9602,-2.9588,-2.9321,-2.9012,-2.8675,-2.7503,-2.6973,-2.6936,-2.5001,-2.3979,-2.3769,-2.2554,-2.1795,-2.1488,-2.0947,-2.1127,-2.1901,-2.0835,-2.0129,-1.9889,-1.9258,-1.8984,-1.9179,-1.9557,-2.0042,-2.0585,-2.0541,-2.1059,-2.2201,-2.272,-2.3293,-2.3966,-2.5182,-2.5397,-2.4476,-2.5432,-2.6169,0.0,0.0,0.0,0.0,0.0,0.0,0.0,0.0,0.0,0.0,0.0,-3.1058,-3.0962,-3.0573,-3.0744,-3.168,-3.1586,-3.141,-3.1409,-3.1433,-3.1227,-3.0537,-3.1026,-3.1278,-3.097,-3.0925,-3.122,-3.193,-3.1708,-3.1855,-3.2931,-3.2804,-3.2916,-3.3866,-3.5149,-3.609,-3.614,-3.7006,-3.7944,-3.8642,-3.9031,-3.9368,-3.9758,-3.9839,-3.9674,-3.9287,-3.9335,-3.9287,-3.8921,-3.8806,-3.8821,-3.8913,-3.8727,-3.8631,-3.8664,-3.8693,-3.9007,-3.9721,-3.9977,-4.0061,-3.4687,-3.3483,-3.3483,-3.313,-3.2686,-3.3857,-3.3736,-3.279,-3.1945,-3.0937,-2.9858,-2.9755,-3.0009,-3.0507,-2.9937,-2.9859,-3.0122,-2.9543,-2.9265,-2.9185,-2.8683,-2.8393,-2.8154,-2.6512,-2.5722,-2.5559,-2.3815,-2.2678,-2.2147,-2.1043,-2.0494,-2.0478,-1.9949,-1.9901,-2.0265,-1.9785,-1.9254,-1.8785,-1.8685,-1.863,-1.8583,-1.8905,-1.9526,-2.0434,-2.0481,-2.0939,-2.1918,-2.2554,-2.3122,-2.3727,-2.5156,-2.5296,-2.3897,-2.4677,-2.5527,0.0,-2.6586,0.0,0.0,0.0,0.0,0.0,0.0,0.0,0.0,-3.1488,-3.208,-3.273,-3.2749,-3.2846,-3.3239,-3.286,-3.257,-3.2378,-3.1694,-3.1205,-3.1235,-3.1396,-3.1467,-3.1496,-3.1496,-3.1496,-3.1525,-3.1496,-3.175,-3.2272,-3.2545,-3.2878,-3.3884,-3.5242,-3.6087,-3.5895,-3.6336,-3.6983,-3.7774,-3.8118,-3.8325,-3.8672,-3.866,-3.8693,-3.8804,-3.8762,-3.8742,-3.8742,-3.8488,-3.8331,-3.8369,-3.8023,-3.7733,-3.7781,-3.78,-3.8165,-3.9201,-3.9642,-3.9744,-3.3553,-3.2868,-3.2855,-3.2529,-3.198,-3.1805,-3.1604,-3.1367,-3.0697,-2.9766,-2.8769,-2.8952,-2.8929,-2.8589,-2.8272,-2.8271,-2.8441,-2.7908,-2.7505,-2.7229,-2.7123,-2.6578,-2.5674,-2.4806,-2.4149,-2.3666,-2.238,-2.1514,-2.101,-2.0294,-1.9965,-1.9925,-1.9408,-1.903,-1.8725,0.0,0.0,0.0,-1.8507,-1.8813,-1.8633,-1.9086,-1.9512,-1.994,-1.9895,0.0,-2.0219,-2.107,-2.1622,-2.1795,-2.326,0.0,0.0,0.0,0.0,0.0,0.0,0.0,0.0,0.0,0.0,0.0,-3.1885,-3.2203,-3.2135,-3.2572,-3.3134,-3.3764,-3.3806,-3.345,-3.2678,-3.2931,-3.2834,-3.2017,-3.1746,-3.1748,-3.1945,-3.1589,-3.138,-3.1467,-3.1496,-3.1496,-3.1436,-3.1496,-3.1511,-3.157,-3.2181,-3.2431,-3.21,-3.338,-3.4445,-3.4687,-3.5157,-3.5598,-3.5818,-3.6136,-3.6741,-3.7349,-3.711,-3.71,-3.7747,-3.7635,-3.741,-3.75,-3.7637,-3.7756,-3.7814,-3.7773,-3.7521,-3.7655,-3.7617,-3.778,-3.8069,-3.8144,-3.8169,-3.2524,0.0,-3.1822,-3.1163,0.0,-2.9541,-2.9134,-2.8917,-2.9136,-2.8598,-2.756,-2.744,-2.737,-2.7228,-2.6868,-2.683,-2.702,-2.6596,-2.6323,-2.6132,-2.5965,-2.5564,-2.4943,-2.3463,-2.2616,-2.2311,-2.0883,-2.0079,-1.9853,-1.9251,-1.91,-1.9384,-1.835,-1.7843,-1.7896,-1.7102,-1.6548,-1.6213,-1.6848,-1.7117,-1.6994,-1.7299,-1.7942,-1.8902,0.0,0.0,0.0,0.0,0.0,0.0,0.0,0.0,0.0,0.0,0.0,-2.5315,-2.6862,-2.8115,-2.8874,-3.0013,-3.0642,-3.062,-3.1346,-3.2229,-3.3148,-3.3556,-3.3866,-3.4176,-3.4525,-3.4414,-3.3644,-3.3531,-3.3073,-3.2033,-3.1397,-3.1013,-3.0789,-3.0592,-3.0483,-3.0511,-3.0299,-3.0227,-3.0496,-2.9734,-2.9444,-2.9582,-2.9481,-2.9373,-2.9335,-3.1507,-3.3258,-3.3131,-3.3975,-3.4394,-3.3963,-3.4623,-3.5175,-3.5528,-3.5435,-3.5551,-3.6105,-3.6354,-3.6501,-3.6663,-3.6843,-3.6881,-3.6486,-3.6167,-3.5744,-3.5343,-3.522,-3.5229,-3.5324,-3.6509,-3.7441,-3.1166,-3.0322,-3.031,-2.9499,-2.8136,-2.757,-2.6881,-2.6208,0.0,0.0,0.0,-2.6058,-2.5975,-2.6121,-2.5598,-2.5548,-2.5795,-2.5345,-2.5084,-2.5032,-2.4617,-2.4369,-2.4202,-2.2232,-2.1238,-2.1088,-1.954,-1.8753,-1.8643,-1.8074,-1.8001,-1.8269,-1.7179,-1.6717,-1.6865,-1.5898,-1.516,-1.4766,-1.5167,-1.5387,-1.5315,-1.5495,-1.6335,-1.7865,-1.7903,-1.8435,-1.9567,-2.0118,-2.0472,-2.0635,-2.1913,-2.2558,-2.2268,-2.3527,-2.4522,-2.4983,-2.6287,-2.7366,-2.8148,-2.8952,-2.949,-2.9611,-3.0257,-3.1516,-3.3574,-3.3753,-3.3737,-3.3761,-3.4237,-3.4298,-3.3853,-3.3326,-3.2601,-3.1591,-3.0672,-2.987,-2.9311,-2.9213,-2.9226,-2.9099,-2.8612,-2.84,-2.8813,-2.7773,-2.6986,-2.7283,-2.6944,-2.6078,-2.6546,-2.9306,-3.1301,-3.091,-3.1716,-3.253,-3.2039,-3.2606,-3.3436,-3.3387,-3.3489,-3.3751,-3.4218,-3.4708,-3.5157,-3.5267,-3.5496,-3.522,-3.4738,-3.4167,-3.3429,-3.2727,-3.2594,-3.2594,-3.2831,-3.4745,-3.6112,-2.8767,-2.8159,-2.8159,-2.7983,-2.7619,-2.6657,-2.5357,-2.41,-2.5583,-2.5857,-2.5254,-2.5723,-2.5639,-2.5158,-2.4689,-2.4599,-2.4745,-2.3821,-2.3212,0.0,-2.2404,-2.1986,-2.162,-2.0765,-2.0215,-1.9793,-1.8572,-1.7767,-1.7349,-1.688,-1.6488,-1.6247,-1.646,-1.601,-1.4853,-1.3824,-1.3287,-1.3247,-1.4946,-1.5642,-1.5328,-1.5748,-1.6375,-1.7092,-1.713,-1.7696,-1.8797,-1.9374,-1.9953,-2.0585,-2.1684,-2.2278,-2.2231,-2.2793,-2.3341,-2.3839,-2.4939,-2.5673,-2.5817,-2.6867,-2.7826,-2.8545,-2.9228,-3.0375,-3.2095,-3.187,-3.1634,-3.1625,-3.1442,-3.0897,-3.0384,-3.0445,-3.0241,-2.9627,-2.9455,-2.9226,-2.8702,-2.8219,-2.779,-2.7394,-2.6828,-2.6459,-2.6607,-2.6318,-2.6028,-2.6206,-2.5664,-2.5756,-2.5521,-2.6831,-2.7775,-2.7879,-2.8509,-2.8973,-2.9019,-2.9609,-3.0529,-3.1367,-3.1138,-3.1361,-3.2441,-3.236,-3.2305,-3.251,-3.2741,-3.2669,-3.2561,-3.2468,-3.2251,-3.2043,-3.1996,-3.2062,-3.2024,-3.2694,-3.3033,-2.7303,-2.6819,-2.6589,-2.599,-2.5096,-2.4048,-2.3052,-2.2217,-2.3362,-2.3839,-2.3804,-2.4046,-2.4,-2.3734,-2.3209,-2.2891,-2.2709,-2.2043,-2.1498,-2.1082,-2.0565,-2.022,-2.0008,-1.9143,-1.8531,-1.8115,-1.7506,-1.6978,-1.6535,-1.6057,-1.5849,-1.5854,-1.5519,-1.47,-1.3521,-1.3091,-1.2915,-1.2939,-1.3789,-1.4177,-1.4018,-1.424,-1.4779,-1.5658,-1.5705,-1.6365,-1.7739,-1.8051,-1.8618,-1.953,-2.0649,-2.1387,-2.1789,-2.2822,-2.3486,-2.3648,-2.476,-2.5414,-2.5309,-2.6187,-2.6885,-2.7296,-2.762,-2.8078,-2.8884,-3.0146,-3.087,-3.0855,-3.0653,-3.0335,-2.9864,-2.9482,-2.8952,-2.8134,-2.7583,-2.7018,-2.6471,-2.6,-2.5576,-2.5313,-2.485,-2.4642,-2.4982,-2.4206,-2.3671,-2.3709,-2.3307,-2.2746,-2.2542,-2.3185,-2.4172,-2.5216,-2.6433,-2.6862,-2.6446,-2.7367,-2.8131,-2.8391,-2.8491,-2.8915,-2.9723,-2.9832,-3.0329,-3.0673,-3.1066,-3.1217,-3.1017,-3.1046,-3.0978,-3.0587,-3.0658,-3.0725,-3.0734,-3.0753,-3.0979,-2.5758,-2.5374,-2.5093,-2.4129,-2.2703,-2.1947,-2.1197,-2.064,-2.126,-2.1619,-2.18,-2.2389,-2.2548,-2.2252,-2.1844,-2.1347,-2.0741,-2.0339,-1.9913,-1.9399,-1.8952,-1.8737,-1.867,-1.7704,-1.7066,-1.6793,-1.6469,-1.6126,-1.5758,-1.5265,-1.5182,-1.5304,-1.4219,-1.3213,-1.2404,-1.2558,-1.2642,-1.2666,-1.2798,-1.2915,-1.2915,-1.2915,-1.3361,-1.4256,-1.4347,-1.5052,-1.6476,-1.6632,-1.7245,-1.8441,-1.9467,-2.0367,-2.1148,-2.2496,-2.3227,-2.3222,-2.4168,-2.4798,-2.4771,-2.5429,-2.5773,-2.5675,-2.5811,-2.5841,-2.5885,-2.7658,-2.9215,-2.9581,-2.9321,-2.9078,-2.867,-2.8121,-2.7405,-2.6444,-2.5621,-2.4938,-2.4233,-2.3741,-2.3391,-2.3263,-2.2873,-2.2753,-2.2811,-2.2016,-2.1342,-2.1199,-2.0438,-1.9914,-1.9914,-2.0345,-2.1363,-2.2704,-2.4428,-2.5131,-2.4347,-2.5334,-2.6029,-2.5584,-2.6109,-2.669,-2.7147,-2.7899,-2.852,-2.8881,-2.9525,-2.9669,-2.9362,-2.9454,-2.9392,-2.8965,-2.9048,-2.922,-2.9296,-2.9246,-2.9534,-2.3467,-2.3371,-2.3306,-2.2718,-2.1718,-2.1579,-2.0728,-1.9545,-1.9535,-1.9291,-1.9217,-2.1564,-2.2004,-2.1151,-2.0996,-2.04,-1.9388,-1.888,-1.8427,-1.7994,-1.7504,-1.7334,-1.74,-1.6736,-1.6457,-1.6334,-1.5499,-1.504,-1.4913,-1.4458,-1.4006,-1.3465,-1.242,-1.1737,-1.1496,-1.1743,-1.1922,-1.1922,-1.2559,-1.2915,-1.2915,-1.2915,-1.3126,-1.3588,-1.3598,-1.4164,-1.5294,-1.5386,-1.617,-1.7824,-1.8535,-1.9344,-2.0407,-2.112,-2.1496,-2.1633,-2.2142,-2.2598,-2.3022,-2.371,-2.3911,-2.3501,-2.3991,-2.4088,-2.3673,-2.3858,-2.4867,-2.6308,-2.6041,-2.5683,-2.5417,-2.5097,-2.4654,-2.4173,-2.3838,-2.3602,-2.2972,-2.2491,-2.1964,-2.142,-2.1056,-2.0654,-2.0489,-2.0284,-2.0053,-1.9896,-1.9677,-1.9434,-1.9396,-1.9605,-1.9799,-2.0398,-2.1561,-2.2749,-2.3201,-2.3794,-2.4266,-2.4179,-2.4474,-2.5058,-2.5615,-2.5866,-2.6092,-2.6989,-2.718,-2.7374,-2.743,-2.7445,-2.7596,-2.761,-2.7713,-2.7968,-2.813,-2.8063,-2.8391,-2.1639,-2.159,-2.1341,-2.0699,-1.9923,-1.9601,-1.8988,-1.8226,-1.8442,-1.8225,-1.7975,-1.9494,-2.0009,-1.966,-1.9649,-1.9161,-1.8321,-1.8103,-1.7574,-1.6901,-1.6333,-1.6145,-1.6105,-1.5537,-1.5139,-1.4983,-1.4706,-1.4477,-1.4213,-1.3674,-1.2865,-1.1967,-1.1482,-1.117,-1.0915,-1.1116,-1.1216,-1.1216,-1.1509,-1.1683,-1.1866,-1.251,-1.2983,-1.314,-1.316,-1.3456,-1.4088,-1.4229,-1.5024,-1.6587,-1.7256,-1.8226,-1.966,-1.9959,-2.0411,-2.1086,-2.1403,-2.1677,-2.196,-2.2272,-2.2331,-2.2114,-2.2335,-2.2399,-2.2201,-2.2165,-2.2746,-2.3748,-2.3963,-2.3972,-2.3931,-2.3486,-2.3036,-2.269,-2.1948,-2.1237,-2.0992,-2.0279,-1.9733,-1.9666,-1.9636,-1.9617,-1.9539,-1.9408,-1.933,-1.9316,-1.921,-1.8881,-1.8617,-1.862,-1.857,-1.8457,-1.8939,-2.0177,-2.1796,-2.2645,-2.3003,-2.3448,-2.3876,-2.4307,-2.4418,-2.478,-2.5054,-2.5308,-2.5422,-2.5568,-2.5742,-2.5944,-2.6134,-2.6286,-2.6731,-2.7093,-2.7185,-2.7124,-2.7353,-2.0121,-2.0021,-1.982,-1.942,-1.8787,-1.8362,-1.7859,-1.7378,-1.7548,-1.732,-1.6891,-1.7475,-1.7872,-1.8085,-1.8287,-1.7968,-1.7233,-1.7205,-1.6806,-1.6049,-1.5526,-1.533,-1.5261,-1.4554,-1.4066,-1.3839,-1.3898,-1.3791,-1.3479,-1.2922,-1.2077,-1.1204,-1.1001,-1.0759,-1.0505,-1.0659,-1.0771,-1.0771,-1.0873,-1.0996,-1.1192,-1.1904,-1.2363,-1.2421,-1.2446,-1.2647,-1.3099,-1.3189,-1.3885,-1.5411,-1.6015,-1.6931,-1.831,-1.8534,-1.9008,-1.9824,-2.0254,-2.0468,-2.0581,-2.0716,-2.0703,-2.0593,-2.0593,-2.0581,-2.0457,-2.047,-2.0677,-2.1107,-2.159,-2.1918,-2.251,-2.1861,-2.1338,-2.1068,-1.9936,-1.9284,-1.9242,-1.8596,-1.8402,-1.8513,-1.8762,-1.8777,-1.8765,-1.8494,-1.8278,-1.8363,-1.8224,-1.8007,-1.7589,-1.7468,-1.7363,-1.707,-1.707,-1.8066,-2.0265,-2.0903,-2.1505,-2.2044,-2.2392,-2.2603,-2.304,-2.3387,-2.3649,-2.351,-2.3745,-2.401,-2.4259,-2.452,-2.4881,-2.5243,-2.5625,-2.5929,-2.5896,-2.5896,-2.5793,-1.8966,-1.8776,-1.9137,-1.9173,-1.9099,-1.8713,-1.8054,-1.709,-1.6854,-1.6403,-1.5965,-1.5982,-1.607,-1.6368,-1.7104,-1.6862,-1.5932,-1.6054,-1.5893,-1.5423,-1.5149,-1.5096,-1.5047,-1.4057,-1.3524,-1.3374,-1.2945,-1.2649,-1.2562,-1.214,-1.1774,-1.143,-1.0807,-1.0407,-1.0205,-1.0473,-1.0684,-1.0679,-1.095,-1.12,-1.1178,-1.0995,-1.1049,-1.1225,-1.1276,-1.1603,-1.2097,-1.2169,-1.2878,-1.4395,-1.482,-1.5449,-1.6216,-1.6747,-1.7126,-1.7329,-1.8093,-1.8555,-1.8687,-1.9068,-1.9134,-1.8713,-1.8804,-1.8602,-1.8412,-1.8463,-1.8563,-1.841,-1.8666,-1.9222,-2.0396,-1.9899,-1.909,-1.8649,-1.8344,-1.8217,-1.8201,-1.8027,-1.8093,-1.8066,-1.8108,-1.7961,-1.7556,-1.7135,-1.6905,-1.6726,-1.6528,-1.6472,-1.65,-1.6415,-1.6386,-1.6319,-1.6366,-1.683,-1.8139,-1.9007,-1.9277,-1.9902,-2.0527,-2.0367,-2.0826,-2.1266,-2.1503,-2.1726,-2.189,-2.2221,-2.273,-2.3199,-2.3622,-2.3948,-2.4199,-2.4411,-2.4414,-2.4177,-2.4106,-1.7681,-1.7399,-1.7561,-1.7473,-1.7284,-1.7411,-1.7015,-1.6272,-1.6371,-1.6181,-1.5858,-1.5805,-1.5832,-1.5938,-1.6237,-1.612,-1.5723,-1.5773,-1.5335,-1.4558,-1.4256,-1.3878,-1.3346,-1.2803,-1.2535,-1.2512,-1.2289,-1.195,-1.1564,-1.1506,-1.1173,-1.0554,-1.0338,-1.0105,-0.9928,-0.9995,-1.0077,-1.0064,-1.0201,-1.0218,-1.0146,-0.9972,-0.9932,-0.9966,-1.0677,-1.1183,-1.1384,-1.1501,-1.209,-1.3253,-1.3452,-1.4105,-1.5298,-1.6203,-1.655,-1.6469,-1.7227,-1.7791,-1.7888,-1.8066,-1.812,-1.7943,-1.7915,-1.7818,-1.7759,-1.7743,-1.777,-1.7715,-1.7518,-1.7811,-1.8144,-1.8298,-1.8325,-1.812,-1.7727,-1.7479,-1.7368,-1.6989,-1.6606,-1.6765,-1.6771,-1.6592,-1.6451,-1.6234,-1.6159,-1.6187,-1.6148,-1.5958,-1.5767,-1.5719,-1.5536,-1.5235,-1.5157,-1.5303,-1.5698,-1.7214,-1.8166,-1.8766,-1.921,-1.9288,-1.9609,-1.9686,-1.9876,-1.9952,-2.0077,-2.0268,-2.0745,-2.1287,-2.1817,-2.2007,-2.2292,-2.2819,-2.2893,-2.2553,-2.2523,-1.6578,-1.6507,-1.6484,-1.6473,-1.6373,-1.6277,-1.5967,-1.5505,-1.5341,-1.5174,-1.4981,-1.4904,-1.4848,-1.4848,-1.4848,-1.4896,-1.4963,-1.5231,-1.489,-1.392,-1.3652,-1.3191,-1.2598,-1.2054,-1.1737,-1.1655,-1.1454,-1.1087,-1.0748,-1.0825,-1.0535,-1.0003,-1.0014,-0.9984,-0.9807,-0.9787,-0.9817,-0.9864,-0.9821,-0.9719,-0.9611,-0.9538,-0.9398,-0.9361,-1.0049,-1.0569,-1.0652,-1.0762,-1.1226,-1.2032,-1.2296,-1.2907,-1.4099,-1.5038,-1.5336,-1.5023,-1.5921,-1.6419,-1.6182,-1.6266,-1.6339,-1.6278,-1.6306,-1.6334,-1.6363,-1.6391,-1.6458,-1.6384,-1.6224,-1.6044,-1.612,-1.6479,-1.6901,-1.7146,-1.681,-1.6443,-1.6425,-1.5864,-1.5594,-1.5671,-1.5661,-1.5507,-1.5352,-1.5167,-1.5041,-1.5129,-1.5002,-1.4709,-1.4462,-1.4412,-1.4353,-1.3962,-1.3842,-1.3902,-1.4145,-1.51,-1.6427,-1.712,-1.7641,-1.7858,-1.8101,-1.8155,-1.8155,-1.822,-1.8289,-1.8414,-1.8782,-1.9336,-1.9682,-1.9911,-2.0518,-2.1192,-2.1048,-2.0833,-2.0671,-1.5646,-1.5955,-1.6046,-1.6147,-1.6226,-1.5473,-1.509,-1.481,-1.3858,-1.3527,-1.3502,-1.3161,-1.323,-1.3091,-1.3237,-1.3142,-1.3404,-1.4224,-1.4288,-1.3611,-1.3359,-1.3078,-1.2632,-1.168,-1.1127,-1.0937,-1.0351,-1.0079,-1.0047,-1.0079,-1.0034,-0.997,-0.9882,-0.9812,-0.9894,-0.9768,-0.9933,-0.9964,-0.9772,-0.9797,-1.0013,-0.963,-0.9339,-0.9133,-0.926,-0.9545,-0.9921,-1.0002,-1.0328,-1.0981,-1.1437,-1.1898,-1.2516,-1.3159,-1.3141,-1.3057,-1.4016,-1.4167,-1.3451,-1.3796,-1.4046,-1.4004,-1.3846,-1.4118,-1.4207,-1.4255,-1.4314,-1.4373,-1.4314,-1.4174,-1.4234,-1.4284,-1.4698,-1.543,-1.5323,-1.5079,-1.503,-1.4922,-1.4863,-1.4795,-1.4667,-1.4706,-1.4401,-1.3897,-1.3498,-1.3226,-1.2923,-1.2749,-1.2818,-1.2901,-1.2626,-1.2634,-1.2856,-1.3039,-1.2926,-1.2978,-1.4225,-1.5274,-1.5756,-1.6118,-1.6455,-1.6585,-1.6529,-1.6546,-1.656,-1.6678,-1.6923,-1.7494,-1.8138,-1.8474,-1.9095,-1.9406,-1.9237,-1.899,-1.8502,-1.411,-1.4237,-1.4237,-1.4321,-1.4392,-1.422,-1.4011,-1.3703,-1.3397,-1.3194,-1.3012,-1.2943,-1.2908,-1.2901,-1.2901,-1.2615,-1.2218,-1.2542,-1.2689,-1.2642,-1.2305,-1.1778,-1.1132,-1.0423,-1.0039,-0.9958,-0.9766,-0.967,-0.9644,-0.9766,-0.9632,-0.923,-0.9224,-0.9058,-0.8678,-0.8608,-0.8646,-0.8699,-0.8638,-0.8585,-0.8511,-0.8451,-0.8293,-0.8096,-0.8023,-0.8213,-0.8738,-0.9203,-0.9718,-1.0277,-1.0448,-1.0906,-1.1668,-1.2272,-1.2595,-1.2786,-1.3213,-1.3569,-1.3411,-1.3275,-1.3304,-1.3447,-1.3502,-1.3554,-1.3554,-1.3593,-1.3623,-1.3653,-1.3726,-1.3798,-1.3777,-1.3644,-1.3773,-1.446,-1.4362,-1.4341,-1.441,-1.4043,-1.3606,-1.3235,-1.2832,-1.2557,-1.2465,-1.222,-1.2189,-1.2174,-1.1989,-1.1958,-1.2182,-1.2182,-1.242,-1.2473,-1.2481,-1.2266,-1.2112,-1.205,-1.2671,-1.3571,-1.4058,-1.4737,-1.507,-1.5206,-1.509,-1.5052,-1.5031,-1.5072,-1.5317,-1.5731,-1.6392,-1.6852,-1.7234,-1.7371,-1.7357,-1.7164,-1.6841,-1.2863,-1.2869,-1.2863,-1.2935,-1.2962,-1.2886,-1.2619,-1.2349,-1.226,-1.2037,-1.1771,-1.1769,-1.1761,-1.1761,-1.1798,-1.1545,-1.1149,-1.1143,-1.1335,-1.1532,-1.1213,-1.0625,-0.9987,-0.9524,-0.9151,-0.8985,-0.8952,-0.8856,-0.8662,-0.8753,-0.8619,-0.8285,-0.835,-0.8221,-0.7804,-0.7767,-0.7804,-0.7864,-0.7897,-0.7891,-0.787,-0.7876,-0.7768,-0.7592,-0.7462,-0.7515,-0.7813,-0.8215,-0.8851,-0.9604,-0.9842,-1.031,-1.1114,-1.1551,-1.1878,-1.207,-1.2489,-1.2697,-1.2492,-1.2352,-1.2481,-1.2661,-1.2681,-1.2712,-1.275,-1.2812,-1.2781,-1.2803,-1.2834,-1.294,-1.2848,-1.2551,-1.2558,-1.2787,-1.3183,-1.3403,-1.3463,-1.307,-1.2573,-1.2166,-1.1788,-1.1547,-1.1485,-1.1212,-1.118,-1.1281,-1.1163,-1.1101,-1.1313,-1.1375,-1.1492,-1.1617,-1.15,-1.1344,-1.1298,-1.1267,-1.1291,-1.1873,-1.2457,-1.3326,-1.3995,-1.4085,-1.4055,-1.4037,-1.4019,-1.3917,-1.4101,-1.4316,-1.4806,-1.5107,-1.5511,-1.5796,-1.5946,-1.5785,-1.5477,-1.1901,-1.1901,-1.188,-1.198,-1.2022,-1.1513,-1.1155,-1.0877,-1.0465,-1.0146,-0.986,-0.9954,-0.9954,-0.9916,-1.0099,-1.0143,-1.0143,-1.0288,-1.0372,-1.0453,-1.0271,-0.9926,-0.9333,-0.9018,-0.8576,-0.8032,-0.7987,-0.7754,-0.7447,-0.7405,-0.7218,-0.7312,-0.7316,-0.7284,-0.712,-0.7223,-0.7223,-0.7349,-0.7447,-0.753,-0.7678,-0.7747,-0.7631,-0.731,-0.7252,-0.7204,-0.7162,-0.7315,-0.792,-0.9087,-0.9336,-0.9706,-1.041,-1.0835,-1.0821,-1.0859,-1.174,-1.1636,-1.1076,-1.1249,-1.1466,-1.1502,-1.1421,-1.1303,-1.1522,-1.1445,-1.1389,-1.1452,-1.1483,-1.1522,-1.1452,-1.1202,-1.0958,-1.0958,-1.1779,-1.2158,-1.1834,-1.1849,-1.1624,-1.1329,-1.1329,-1.1329,-1.1142,-1.0685,-1.0471,-1.0256,-1.0009,-0.9881,-0.9748,-0.9831,-0.997,-1.0066,-1.0212,-1.018,-1.004,-1.0072,-1.0097,-1.0375,-1.0902,-1.1595,-1.2512,-1.2704,-1.2995,-1.2978,-1.2998,-1.2907,-1.2959,-1.3264,-1.3447,-1.3776,-1.4143,-1.4435,-1.443,-1.4204,-1.4007,-1.0549,-1.0521,-1.0637,-1.0621,-1.0535,-1.0172,-0.9927,-0.9726,-0.9325,-0.9149,-0.9005,-0.8999,-0.9046,-0.9046,-0.9311,-0.9473,-0.9582,-0.9846,-0.9883,-0.9821,-0.9761,-0.9297,-0.8688,-0.8412,-0.7963,-0.7339,-0.7298,-0.7223,-0.6999,-0.6872,-0.6699,-0.6297,-0.6301,-0.6104,-0.5778,-0.5778,-0.5815,-0.598,-0.6017,-0.6108,-0.6268,-0.6301,-0.6285,-0.6339,-0.6209,-0.6318,-0.6643,-0.7157,-0.7462,-0.7796,-0.8034,-0.8616,-0.9533,-0.973,-1.0043,-1.0715,-1.0906,-1.1059,-1.0927,-1.0814,-1.0873,-1.1066,-1.0598,-1.0376,-1.0401,-0.9983,-0.9856,-0.9958,-1.0053,-1.018,-1.0338,-1.0275,-1.0186,-1.0275,-1.0647,-1.0961,-1.086,-1.0647,-1.0458,-1.0325,-0.9983,-0.9894,-0.9932,-0.9773,-0.9524,-0.9198,-0.8973,-0.8753,-0.8619,-0.8522,-0.871,-0.8716,-0.8775,-0.8812,-0.878,-0.8807,-0.8903,-0.9052,-0.9366,-0.9685,-1.0514,-1.1055,-1.1507,-1.1896,-1.1966,-1.1904,-1.2095,-1.2362,-1.2506,-1.2516,-1.2726,-1.2992,-1.2696,-1.2443,-1.2335,-0.9433,-0.9509,-0.9504,-0.953,-0.9499,-0.926,-0.9019,-0.8825,-0.8744,-0.8589,-0.8513,-0.8627,-0.8703,-0.8742,-0.8937,-0.9051,-0.9089,-0.9279,-0.9165,-0.8799,-0.8393,-0.8377,-0.8443,-0.8299,-0.7649,-0.6916,-0.6617,-0.6295,-0.6007,-0.5978,-0.5744,-0.5491,-0.5451,-0.5253,-0.509,-0.4994,-0.5027,-0.513,-0.5163,-0.5193,-0.5256,-0.5289,-0.5388,-0.551,-0.5455,-0.5621,-0.6061,-0.6477,-0.6854,-0.726,-0.753,-0.7941,-0.8606,-0.8601,-0.8955,-0.973,-0.9612,-0.9606,-0.9768,-0.9681,-0.9775,-0.9952,-0.9633,-0.957,-0.9506,-0.918,-0.9116,-0.9282,-0.9282,-0.9378,-0.9474,-0.9378,-0.916,-0.8967,-0.9122,-0.9468,-0.9888,-0.9926,-0.9709,-0.9486,-0.9236,-0.9081,-0.9242,-0.9049,-0.8748,-0.8517,-0.8264,-0.7972,-0.7712,-0.7609,-0.7577,-0.7739,-0.7837,-0.7934,-0.7934,-0.7929,-0.7804,-0.7929,-0.8129,-0.8355,-0.9128,-0.9805,-1.0345,-1.0856,-1.0912,-1.1007,-1.125,-1.1375,-1.1301,-1.1365,-1.1478,-1.1547,-1.143,-1.1048,-1.0923,-0.8621,-0.8767,-0.8678,-0.8738,-0.8888,-0.8706,-0.853,-0.8256,-0.8406,-0.8322,-0.8174,-0.8403,-0.8437,-0.8585,-0.8556,-0.8603,-0.8545,-0.8603,-0.8237,-0.7749,-0.7272,-0.7403,-0.8403,-0.7686,-0.703,-0.6324,-0.5796,-0.527,-0.4926,-0.4755,-0.4757,-0.4785,-0.4785,-0.4797,-0.4794,-0.4794,-0.4794,-0.4827,-0.4861,-0.4861,-0.4894,-0.4894,-0.4994,-0.5087,-0.5113,-0.5183,-0.5367,-0.5584,-0.5998,-0.7158,-0.7284,-0.7475,-0.7745,-0.7592,-0.7738,-0.8104,-0.8291,-0.8297,-0.8258,-0.8404,-0.8404,-0.8672,-0.8639,-0.8597,-0.8618,-0.8473,-0.8388,-0.8506,-0.8737,-0.8705,-0.8731,-0.842,-0.8102,-0.7879,-0.7679,-0.8074,-0.8721,-0.9134,-0.9069,-0.8668,-0.8662,-0.8818,-0.8812,-0.8522,-0.8032,-0.754,-0.7349,-0.7088,-0.6859,-0.6728,-0.6859,-0.712,-0.7181,-0.7246,-0.7181,-0.7051,-0.6896,-0.683,-0.7064,-0.7423,-0.8361,-0.9032,-0.948,-0.9862,-1.0186,-1.0313,-1.037,-1.0363,-1.0332,-1.0395,-1.0647,-1.0703,-1.0672,-1.0097,-0.9806,-0.8265,-0.856,-0.8654,-0.8816,-0.9009,-0.8717,-0.844,-0.823,-0.7894,-0.7748,-0.765,-0.7723,-0.7757,-0.7757,-0.7927,-0.8013,-0.7587,-0.7696,-0.7621,-0.7069,-0.6896,-0.6855,-0.7114,-0.6355,-0.5502,-0.4921,-0.4643,-0.4397,-0.4234,-0.4328,-0.433,-0.4335,-0.4402,-0.45,-0.46,-0.4621,-0.4694,-0.4761,-0.48,-0.4773,-0.4773,-0.4767,-0.4764,-0.4827,-0.4858,-0.4882,-0.4929,-0.4953,-0.5176,-0.5596,-0.605,-0.6514,-0.6963,-0.7001,-0.7228,-0.7645,-0.7864,-0.7929,-0.7994,-0.7934,-0.8064,-0.7984,-0.7558,-0.7203,-0.7288,-0.6957,-0.6902,-0.7108,-0.7293,-0.7521,-0.7712,-0.7712,-0.7489,-0.7326,-0.7293,-0.7293,-0.7326,-0.7409,-0.7512,-0.7381,-0.7186,-0.7051,-0.7307,-0.7274,-0.692,-0.6593,-0.6367,-0.6141,-0.6009,-0.5947,-0.6108,-0.64,-0.6404,-0.6465,-0.6531,-0.6498,-0.6437,-0.6346,-0.6482,-0.6651,-0.7587,-0.8166,-0.8581,-0.9064,-0.9614,-0.9646,-0.9576,-0.9837,-0.9926,-0.9894,-0.9799,-0.9767,-0.9602,-0.9084,-0.8661,-0.82,-0.8551,-0.849,-0.8506,-0.8547,-0.8284,-0.8029,-0.7807,-0.7554,-0.7418,-0.7299,-0.6973,-0.6767,-0.6659,-0.6496,-0.6241,-0.6198,-0.608,-0.5866,-0.5449,-0.5235,-0.5114,-0.5168,-0.493,-0.4531,-0.4568,-0.4424,-0.4244,-0.4156,-0.4167,-0.4195,-0.41,-0.4144,-0.4203,-0.4264,-0.4322,-0.4399,-0.4461,-0.4518,-0.4552,-0.4648,-0.4523,-0.4498,-0.4597,-0.4694,-0.4794,-0.4791,-0.4791,-0.4861,-0.5027,-0.5259,-0.5624,-0.6046,-0.6108,-0.6338,-0.6662,-0.6793,-0.6822,-0.6822,-0.6887,-0.6892,-0.7027,-0.6565,-0.6461,-0.6375,-0.6091,-0.6063,-0.6256,-0.6416,-0.6519,-0.6511,-0.6511,-0.6474,-0.6268,-0.6231,-0.6104,-0.5972,-0.6367,-0.6662,-0.6531,-0.6404,-0.6465,-0.6461,-0.6228,-0.6231,-0.6071,-0.5617,-0.5388,-0.5418,-0.5352,-0.5418,-0.555,-0.5587,-0.5686,-0.5851,-0.5951,-0.6145,-0.6181,-0.6313,-0.6416,-0.6872,-0.726,-0.7587,-0.8166,-0.8716,-0.8786,-0.878,-0.9134,-0.93,-0.9177,-0.9017,-0.8823,-0.8554,-0.8188,-0.773,-0.8173,-0.8449,-0.8197,-0.8097,-0.8087,-0.7796,-0.7502,-0.7168,-0.713,-0.686,-0.673,-0.6019,-0.5679,-0.5456,-0.4915,-0.4654,-0.4577,-0.4266,-0.4067,-0.3927,-0.3574,-0.3491,-0.3491,-0.3657,-0.399,-0.5006,-0.454,-0.4214,-0.4144,-0.4131,-0.4087,-0.3994,-0.4,-0.4046,-0.3973,-0.3977,-0.4089,-0.4197,-0.4224,-0.4257,-0.4351,-0.4177,-0.4146,-0.4282,-0.4453,-0.4591,-0.4586,-0.4594,-0.4635,-0.4694,-0.4673,-0.4897,-0.5126,-0.5193,-0.5123,-0.5359,-0.5488,-0.555,-0.565,-0.5617,-0.5653,-0.5723,-0.5749,-0.5763,-0.5738,-0.5811,-0.584,-0.58,-0.5818,-0.5554,-0.5223,-0.5186,-0.5017,-0.4815,-0.468,-0.458,-0.4713,-0.5507,-0.5602,-0.5738,-0.5444,-0.5411,-0.5477,-0.5411,-0.5477,-0.5481,-0.5024,-0.4764,-0.4794,-0.4894,-0.499,-0.5123,-0.5223,-0.5392,-0.5557,-0.5322,-0.5521,-0.5583,-0.5818,-0.5815,-0.5951,-0.6243,-0.6601,-0.7265,-0.7722,-0.7852,-0.8009,-0.8204,-0.8306,-0.8317,-0.8117,-0.7809,-0.7549,-0.7256,-0.6826,-0.7671,-0.7954,-0.7995,-0.8117,-0.8247,-0.7949,-0.725,-0.6576,-0.6204,-0.569,-0.5072,-0.4772,-0.4694,-0.4621,-0.4578,-0.4233,-0.366,-0.3254,-0.2947,-0.2856,-0.2668,-0.2654,-0.2733,-0.2885,-0.3061,-0.3192,-0.3504,-0.3843,-0.3878,-0.3945,-0.3823,-0.3869,-0.3884,-0.3901,-0.3858,-0.4,-0.391,-0.3984,-0.4015,-0.4085,-0.4111,-0.4084,-0.3992,-0.406,-0.4197,-0.4169,-0.4124,-0.4072,-0.4099,-0.4267,-0.4076,-0.4233,-0.4456,-0.4625,-0.4728,-0.4927,-0.496,-0.4994,-0.5027,-0.496,-0.496,-0.4972,-0.5045,-0.5104,-0.5232,-0.53,-0.5209,-0.5288,-0.5047,-0.4683,-0.4046,-0.3982,-0.3979,-0.3877,-0.3813,-0.368,-0.3445,-0.3611,-0.4079,-0.4414,-0.432,-0.4356,-0.4522,-0.4619,-0.4686,-0.4755,-0.4561,-0.4464,-0.4561,-0.4661,-0.4797,-0.4927,-0.5024,-0.5226,-0.5425,-0.4994,-0.4824,-0.4755,-0.4818,-0.4616,-0.4815,-0.5117,-0.558,-0.6137,-0.6802,-0.7265,-0.7363,-0.7358,-0.7423,-0.7489,-0.7125,-0.6761,-0.6564,-0.6367,-0.5968,-0.7139,-0.7297,-0.6919,-0.6821,-0.6826,-0.6287,-0.5797,-0.5338,-0.5152,-0.4849,-0.4374,-0.39,-0.3662,-0.3507,-0.3028,-0.2782,-0.2672,-0.2496,-0.2306,-0.2251,-0.2224,-0.2287,-0.2348,-0.2457,-0.2668,-0.2811,-0.3085,-0.3187,-0.3217,-0.3204,-0.3271,-0.3225,-0.3279,-0.326,-0.3264,-0.3376,-0.3568,-0.3657,-0.3826,-0.3974,-0.4038,-0.404,-0.3973,-0.3932,-0.3898,-0.3783,-0.3399,-0.3366,-0.3145,-0.2884,-0.2722,-0.2825,-0.3052,-0.3255,-0.3658,-0.45,-0.4731,-0.4761,-0.4761,-0.4794,-0.4827,-0.4791,-0.4534,-0.4366,-0.4326,-0.418,-0.4126,-0.4023,-0.3944,-0.348,-0.2913,-0.288,-0.2848,-0.2781,-0.2783,-0.2683,-0.2582,-0.2517,-0.2818,-0.3222,-0.3389,-0.3558,-0.3794,-0.3861,-0.3861,-0.3894,-0.3997,-0.4128,-0.4295,-0.4428,-0.4564,-0.4595,-0.4655,-0.4622,-0.4688,-0.4289,-0.4023,-0.3987,-0.3787,-0.3585,-0.3782,-0.4148,-0.4447,-0.4809,-0.554,-0.6305,-0.6404,-0.6301,-0.6465,-0.6629,-0.64,-0.6137,-0.5807,-0.5477,-0.5163,-0.6173,-0.6188,-0.5511,-0.5194,-0.507,-0.4454,-0.4065,-0.3887,-0.384,-0.3655,-0.3487,-0.2815,-0.2392,-0.2191,-0.1743,-0.1469,-0.174,-0.1727,-0.171,-0.1687,-0.1656,-0.1723,-0.1899,-0.2108,-0.2198,-0.2115,-0.2301,-0.2424,-0.2704,-0.272,-0.2643,-0.2702,-0.2631,-0.2558,-0.2634,-0.2905,-0.3056,-0.3207,-0.345,-0.3717,-0.3793,-0.374,-0.3659,-0.3546,-0.3585,-0.3183,-0.2703,-0.2753,-0.2505,-0.2128,-0.1916,-0.1914,-0.1978,-0.1739,-0.2452,-0.398,-0.4255,-0.4161,-0.409,-0.402,-0.382,-0.3751,-0.3641,-0.3515,-0.3419,-0.3147,-0.2797,-0.2517,-0.2511,-0.2312,-0.1913,-0.178,-0.1747,-0.1681,-0.1649,-0.1649,-0.1748,-0.1748,-0.1816,-0.2151,-0.2455,-0.2794,-0.3068,-0.3326,-0.3391,-0.3696,-0.3766,-0.3861,-0.4025,-0.4128,-0.4195,-0.4225,-0.4189,-0.399,-0.382,-0.3418,-0.3184,-0.3115,-0.2817,-0.2517,-0.2848,-0.328,-0.348,-0.368,-0.4309,-0.4975,-0.5107,-0.5342,-0.554,-0.5639,-0.5642,-0.5448,-0.5017,-0.4931,-0.4805,-0.4061,-0.401,-0.4025,-0.3919,-0.3816,-0.3664,-0.3127,-0.2416,-0.2416,-0.1836,-0.1433,-0.1121,-0.1074,-0.1026,-0.0981,-0.0838,-0.0916,-0.0956,-0.0994,-0.098,-0.0938,-0.0991,-0.0956,-0.1086,-0.1271,-0.134,-0.1336,-0.185,-0.2254,-0.2427,-0.2491,-0.2448,-0.236,-0.2549,-0.237,-0.2481,-0.268,-0.2668,-0.2694,-0.2707,-0.2701,-0.2679,-0.2631,-0.2554,-0.2358,-0.2083,-0.1879,-0.1954,-0.2008,-0.2005,-0.1967,-0.2521,-0.3097,-0.2052,-0.2051,-0.245,-0.2459,-0.1977,-0.2185,-0.2357,-0.2357,-0.2438,-0.2266,-0.2289,-0.219,-0.2326,-0.2101,-0.1779,-0.1681,-0.1386,-0.0883,-0.0744,-0.0675,-0.0746,-0.0784,-0.0782,-0.0814,-0.117,-0.1202,-0.1266,-0.1651,-0.2045,-0.2375,-0.2666,-0.2956,-0.3295,-0.3531,-0.3594,-0.3625,-0.3625,-0.3288,-0.3119,-0.3284,-0.3151,-0.285,-0.2482,-0.2415,-0.228,-0.1947,-0.158,-0.1848,-0.2214,-0.2383,-0.2651,-0.3247,-0.3744,-0.4079,-0.4348,-0.458,-0.4683,-0.4686,-0.4489,-0.4195,-0.4214,-0.4404,-0.2256,-0.3178,-0.28,-0.2659,-0.2504,-0.2147,-0.1745,-0.1388,-0.1299,-0.1076,-0.0762,-0.0718,-0.0718,-0.0673,-0.0718,-0.0714,-0.0709,-0.0663,-0.0705,-0.0611,-0.0654,-0.0657,-0.0751,-0.0797,-0.0758,-0.076,-0.0807,-0.1026,-0.1499,-0.158,-0.1527,-0.1566,-0.1553,-0.1544,-0.1798,-0.1947,-0.1841,-0.1653,-0.1512,-0.1373,-0.1398,-0.1422,-0.1411,-0.1411,-0.1215,-0.0941,-0.0663,-0.0612,-0.0416,-0.0188,0.0037,-0.0109,-0.0363,0.0073,0.0218,0.0,0.0107,-0.0314,-0.1378,-0.1477,-0.1441,-0.1416,-0.1301,-0.0965,-0.0751,-0.0786,-0.082,-0.0388,-0.0352,-0.0211,0.0,0.0106,0.007,0.0,-0.014,-0.0245,-0.0315,-0.0493,-0.0673,-0.0741,-0.0808,-0.1186,-0.1521,-0.1845,-0.2107,-0.2397,-0.2629,-0.2721,-0.2751,-0.2751,-0.2248,-0.1611,-0.1878,-0.2146,-0.1846,-0.1511,-0.1646,-0.1545,-0.1244,-0.0977,-0.0943,-0.1111,-0.1413,-0.1581,-0.1914,-0.2447,-0.3015,-0.3384,-0.3618,-0.3689,-0.3758,-0.3739,-0.3787,-0.3922,-0.4117,-0.0673,-0.1926,-0.1523,-0.1344,-0.1299,-0.0762,-0.0583,-0.0538,-0.0538,-0.0494,-0.0404,-0.0359,-0.0359,-0.0404,-0.0404,-0.0358,-0.0403,-0.0493,-0.0538,-0.0538,-0.0494,-0.0493,-0.0492,-0.0538,-0.0582,-0.0538,-0.0583,-0.0627,-0.0583,-0.0582,-0.067,-0.0672,-0.0882,-0.0878,-0.1004,-0.1212,-0.1241,-0.1017,-0.0789,-0.0532,-0.0324,-0.0319,-0.0119,0.0,0.0158,0.0356,0.0827,0.0585,0.0888,0.1105,0.1132,0.086,0.0672,0.1047,0.1272,0.1156,0.1181,0.0947,-0.0036,-0.0462,-0.0743,-0.0605,-0.0469,0.011,0.0405,0.0662,0.0585,0.0435,0.0434,0.0471,0.0619,0.0581,0.0471,0.0361,0.0253,0.0109,0.0,-0.0073,-0.0108,-0.0108,-0.0179,-0.0216,-0.057,-0.0943,-0.124,-0.1498,-0.1691,-0.1818,-0.1779,-0.1744,-0.1375,-0.0705,-0.0906,-0.1141,-0.0806,-0.0639,-0.0774,-0.0841,-0.0539,-0.0472,-0.0506,-0.0573,-0.0809,-0.0909,-0.0976,-0.1378,-0.2047,-0.2351,-0.269,-0.2997,-0.3276,-0.3434,-0.3546,-0.3687,-0.3938,0.0583,0.0448,0.0,-0.018,-0.0135,-0.009,-0.0045,-0.0045,-0.0045,0.009,0.0269,0.0448,0.0359,0.0314,0.0224,0.0224,0.0314,0.0045,-0.0045,-0.0045,-0.0045,-0.0045,-0.009,-0.0179,-0.0224,-0.0135,-0.0179,-0.0179,-0.009,-0.0045,-0.0314,-0.0627,-0.0535,-0.0626,-0.0669,-0.0708,-0.0614,-0.039,-0.017,0.0249,0.0574,0.0812,0.1092,0.1739,0.1821,0.1863,0.1944,0.141,0.1111,0.1288,0.136,0.112,0.1117,0.1697,0.189,0.169,0.1864,0.1806,0.1419,0.1139,0.1385,0.1392,0.1226,0.0944,0.0982,0.0755,0.0636,0.0774,0.0852,0.0774,0.0734,0.062,0.0812,0.074,0.0706,0.0557,0.0483,0.0444,0.0404,0.0475,0.0513,0.0592,0.0921,0.0651,-0.0071,-0.0385,-0.0341,-0.0441,-0.0504,-0.0469,-0.0369,-0.0101,-0.0168,-0.0134,0.0236,0.0269,0.0101,-0.0034,0.0034,-0.0067,-0.0202,-0.0303,-0.0304,-0.0472,-0.0606,-0.0808,-0.1076,-0.158,-0.2088,-0.2536,-0.282,-0.3005,-0.3319,-0.3588,-0.3912,0.0718,0.0673,0.0494,0.0449,0.0449,0.0404,0.0449,0.0449,0.0449,0.0448,0.0583,0.0673,0.0673,0.0583,0.0583,0.0583,0.0583,0.0493,0.0404,0.0404,0.0449,0.0449,0.0359,0.0314,0.0314,0.0359,0.0314,0.0314,0.0404,0.0359,0.0359,0.0135,-0.0135,-0.0359,-0.0404,-0.0135,0.0223,0.0795,0.1258,0.1874,0.2624,0.2788,0.2938,0.3228,0.3313,0.3246,0.318,0.3005,0.2749,0.2585,0.2508,0.2182,0.1929,0.2638,0.2672,0.2431,0.2755,0.286,0.2734,0.2313,0.1843,0.1834,0.1696,0.1625,0.1545,0.1432,0.139,0.1418,0.1371,0.1328,0.1412,0.1414,0.1419,0.1262,0.1145,0.1029,0.095,0.091,0.0831,0.0829,0.1253,0.1572,0.2012,0.2401,0.154,0.079,0.084,0.0924,0.0881,0.0804,0.0872,0.0906,0.0873,0.0742,0.1082,0.1047,0.0977,0.0811,0.0643,0.044,0.0271,0.0236,0.0169,-0.0034,-0.0236,-0.0404,-0.0674,-0.1044,-0.1517,-0.2027,-0.2378,-0.2599,-0.2998,-0.3447,-0.3726,0.09,0.095,0.0951,0.0812,0.0718,0.0718,0.0718,0.0718,0.0673,0.0718,0.0718,0.0807,0.0897,0.0852,0.0807,0.0807,0.0807,0.0718,0.0673,0.0673,0.0673,0.0718,0.0719,0.0676,0.0633,0.072,0.0722,0.0679,0.0673,0.0673,0.0628,0.0538,0.0404,0.009,0.0045,0.0448,0.1031,0.165,0.2478,0.3267,0.3939,0.4016,0.4278,0.432,0.4322,0.4174,0.4103,0.395,0.3826,0.3718,0.3732,0.3816,0.3819,0.3861,0.3845,0.3835,0.3818,0.3845,0.3552,0.3103,0.2429,0.2608,0.2462,0.239,0.2318,0.2199,0.2031,0.2228,0.2152,0.2083,0.2087,0.2044,0.1895,0.1735,0.1617,0.1537,0.1413,0.133,0.1249,0.1207,0.1759,0.2415,0.2792,0.3253,0.3257,0.2478,0.2256,0.2318,0.2298,0.2204,0.2082,0.2082,0.2048,0.1926,0.1836,0.1707,0.158,0.1429,0.1251,0.0961,0.0821,0.0782,0.0642,0.0404,0.0202,0.0034,-0.0169,-0.0408,-0.0948,-0.1583,-0.1945,-0.2328,-0.2663,-0.3096,-0.3325,0.1409,0.1478,0.148,0.1189,0.0766,0.0718,0.0719,0.0763,0.0762,0.0762,0.0807,0.1166,0.1256,0.1121,0.1076,0.1076,0.1031,0.0852,0.0764,0.0811,0.0858,0.0765,0.077,0.0821,0.0917,0.077,0.0822,0.0871,0.0767,0.0816,0.0814,0.0765,0.0722,0.0629,0.0494,0.1076,0.139,0.1614,0.2637,0.3488,0.4235,0.4469,0.4851,0.5152,0.5112,0.4966,0.4931,0.4739,0.46,0.4458,0.4421,0.4421,0.4394,0.4247,0.4183,0.4178,0.406,0.3984,0.3812,0.3765,0.3736,0.3491,0.3176,0.3182,0.3178,0.2943,0.2726,0.298,0.2806,0.2603,0.2537,0.2563,0.2426,0.2356,0.2274,0.2231,0.2141,0.2095,0.2089,0.2166,0.2653,0.3175,0.3526,0.393,0.4498,0.4299,0.389,0.3711,0.3615,0.3368,0.3159,0.3021,0.2956,0.2858,0.2641,0.2392,0.2206,0.2065,0.1963,0.1759,0.1496,0.1316,0.1132,0.0847,0.0683,0.0554,0.0449,0.031,-0.0311,-0.0971,-0.1716,-0.2143,-0.2474,-0.2725,-0.2873,0.1455,0.1511,0.1511,0.1411,0.1262,0.1262,0.1197,0.1169,0.1166,0.1166,0.1211,0.1346,0.1391,0.1301,0.1303,0.135,0.1303,0.1257,0.117,0.1235,0.119,0.1237,0.1198,0.121,0.1214,0.125,0.1259,0.1224,0.1264,0.1163,0.1201,0.1196,0.1189,0.1225,0.1663,0.237,0.3083,0.3708,0.4283,0.4714,0.5486,0.561,0.5698,0.6049,0.5829,0.5755,0.5742,0.548,0.5429,0.5305,0.5312,0.5368,0.532,0.524,0.527,0.5309,0.5287,0.5252,0.5167,0.5116,0.4801,0.4253,0.3857,0.3845,0.3679,0.3551,0.355,0.3683,0.3547,0.3478,0.357,0.3589,0.3487,0.3406,0.3323,0.324,0.319,0.3187,0.3222,0.3429,0.3773,0.4971,0.5609,0.5587,0.5954,0.5835,0.539,0.4846,0.4663,0.429,0.3993,0.3818,0.3701,0.3621,0.3498,0.328,0.319,0.3165,0.302,0.2808,0.2497,0.2123,0.1909,0.1794,0.1414,0.1101,0.0961,0.0748,0.025,-0.0359,-0.0944,-0.1463,-0.1791,-0.2062,-0.233,0.1628,0.1686,0.159,0.1584,0.1622,0.1526,0.1502,0.147,0.1513,0.1559,0.1606,0.1652,0.1744,0.1744,0.1696,0.1742,0.1696,0.1605,0.1564,0.1636,0.1496,0.1449,0.1459,0.1523,0.1473,0.1513,0.1522,0.1489,0.1425,0.1477,0.1514,0.1593,0.1821,0.2169,0.2553,0.2987,0.3376,0.3995,0.451,0.5314,0.5974,0.6287,0.6331,0.6375,0.6325,0.6345,0.6355,0.6349,0.6358,0.6285,0.6267,0.6304,0.623,0.6174,0.6156,0.6147,0.6097,0.5957,0.5856,0.5895,0.5429,0.4894,0.4616,0.4608,0.462,0.4549,0.4539,0.4543,0.4419,0.4318,0.4312,0.4376,0.4371,0.4246,0.4119,0.4035,0.4067,0.4061,0.44,0.4576,0.5374,0.6584,0.7503,0.7558,0.7608,0.7264,0.6878,0.6336,0.5747,0.5268,0.4929,0.4746,0.462,0.4606,0.4466,0.4198,0.4186,0.4244,0.4043,0.3756,0.3509,0.3157,0.2911,0.2691,0.2425,0.2099,0.1578,0.118,0.0887,0.0559,0.0151,-0.038,-0.0948,-0.1342,-0.1636,0.1981,0.1964,0.1721,0.1752,0.1869,0.168,0.1578,0.1573,0.181,0.1902,0.1904,0.2135,0.2178,0.2234,0.2237,0.2231,0.2179,0.1991,0.195,0.186,0.1765,0.1671,0.1633,0.1652,0.1744,0.1643,0.165,0.1757,0.1582,0.1678,0.1771,0.2147,0.262,0.3055,0.3206,0.3193,0.3432,0.4236,0.5137,0.5852,0.6476,0.652,0.6561,0.6561,0.6555,0.6552,0.6539,0.6502,0.6505,0.6483,0.6451,0.6416,0.6424,0.6396,0.6356,0.6343,0.6298,0.6279,0.6228,0.6282,0.6186,0.5841,0.5963,0.6094,0.5859,0.5507,0.5402,0.5393,0.5278,0.5063,0.4905,0.4969,0.5033,0.4904,0.4774,0.4765,0.4796,0.5019,0.5426,0.6041,0.6972,0.7951,0.8559,0.877,0.8844,0.8526,0.8161,0.7803,0.7149,0.6266,0.5943,0.5703,0.5603,0.5614,0.546,0.5224,0.5141,0.5202,0.4855,0.456,0.4343,0.4212,0.3957,0.3719,0.3491,0.3134,0.2555,0.2089,0.1755,0.1426,0.1239,0.058,0.0,-0.0574,-0.0928,0.2242,0.2302,0.2203,0.2196,0.2235,0.2184,0.2118,0.2139,0.2161,0.2195,0.2194,0.2243,0.2348,0.2291,0.229,0.2293,0.2293,0.2247,0.2264,0.2178,0.2141,0.214,0.2153,0.2126,0.212,0.2117,0.2124,0.209,0.2128,0.211,0.2624,0.335,0.3061,0.3596,0.4045,0.3957,0.4413,0.4951,0.5891,0.6468,0.6818,0.6958,0.6948,0.6941,0.6941,0.6935,0.6922,0.6922,0.6922,0.6918,0.6918,0.6874,0.6908,0.6879,0.6906,0.7129,0.7131,0.7071,0.6884,0.6837,0.678,0.6681,0.673,0.6552,0.6321,0.6177,0.6102,0.6062,0.608,0.5855,0.5795,0.5817,0.5813,0.5681,0.5681,0.5804,0.5964,0.6418,0.6909,0.7882,0.8836,0.9132,0.9705,0.9945,1.0005,0.9692,0.937,0.9093,0.8572,0.7639,0.7125,0.6913,0.6702,0.6723,0.6541,0.6328,0.6228,0.6106,0.581,0.5621,0.5549,0.5378,0.5021,0.4687,0.4382,0.3998,0.3519,0.3113,0.2768,0.2688,0.246,0.1677,0.0973,0.0504,0.0039,0.2573,0.2522,0.2422,0.2472,0.2573,0.2675,0.2704,0.2674,0.2549,0.2488,0.2489,0.2638,0.2637,0.2688,0.269,0.269,0.2691,0.2548,0.2511,0.2523,0.2478,0.2381,0.2394,0.2403,0.235,0.2398,0.2402,0.2314,0.2413,0.255,0.2923,0.3958,0.3368,0.4251,0.508,0.5499,0.5711,0.6189,0.6694,0.7222,0.7441,0.7573,0.7559,0.751,0.7458,0.7478,0.7422,0.7418,0.7411,0.7411,0.7408,0.7408,0.7408,0.7404,0.7448,0.7625,0.7617,0.7515,0.742,0.7427,0.7356,0.7279,0.7323,0.7227,0.7034,0.6883,0.675,0.6665,0.6733,0.6726,0.6734,0.6735,0.665,0.6561,0.6779,0.6997,0.743,0.7954,0.8813,0.9764,1.0288,1.0547,1.0826,1.1068,1.1037,1.0553,1.0269,1.0152,0.9625,0.8871,0.8524,0.8344,0.8047,0.7842,0.7634,0.7427,0.7266,0.7171,0.7066,0.6893,0.6799,0.6546,0.62,0.5705,0.5212,0.4844,0.4569,0.4228,0.3928,0.3837,0.3803,0.3318,0.2585,0.1765,0.1292,0.2826,0.2826,0.2573,0.2624,0.2826,0.3079,0.3179,0.318,0.2918,0.2823,0.2869,0.3075,0.3116,0.3053,0.3053,0.3057,0.3002,0.2902,0.28,0.2825,0.2663,0.2612,0.2563,0.2471,0.2616,0.252,0.2522,0.2624,0.2522,0.2665,0.3211,0.4329,0.4071,0.4674,0.5794,0.6084,0.6364,0.7,0.7227,0.75,0.8066,0.8299,0.832,0.8105,0.8056,0.8061,0.793,0.7923,0.7911,0.7908,0.7856,0.7856,0.7808,0.7852,0.7896,0.7896,0.79,0.7896,0.7852,0.7808,0.7808,0.7812,0.79,0.7753,0.7537,0.7428,0.7288,0.7251,0.7267,0.7264,0.7261,0.7272,0.7231,0.7272,0.7489,0.7965,0.8619,0.9401,1.0572,1.1311,1.1569,1.1794,1.1794,1.2015,1.204,1.148,1.1188,1.1147,1.0925,1.0264,0.9857,0.9712,0.9354,0.8992,0.8809,0.8567,0.832,0.8205,0.8211,0.8222,0.8192,0.7819,0.7422,0.6892,0.64,0.5999,0.5688,0.5438,0.5277,0.5142,0.5058,0.4961,0.4324,0.3481,0.2698,0.313,0.313,0.3029,0.3079,0.3079,0.318,0.318,0.318,0.313,0.3079,0.313,0.318,0.318,0.318,0.318,0.318,0.318,0.313,0.313,0.3079,0.2978,0.2876,0.298,0.2884,0.2981,0.2978,0.3029,0.2978,0.2927,0.3078,0.3479,0.4433,0.4232,0.4558,0.627,0.6369,0.6489,0.7712,0.7907,0.801,0.8411,0.8453,0.8357,0.8331,0.8362,0.8291,0.8185,0.808,0.8005,0.7934,0.7908,0.79,0.79,0.8028,0.8113,0.8157,0.8116,0.8116,0.8116,0.8072,0.8032,0.7988,0.7944,0.79,0.7852,0.7856,0.7812,0.7764,0.7764,0.7764,0.7768,0.7764,0.7804,0.7977,0.8149,0.8886,0.9628,1.088,1.2095,1.2443,1.2699,1.279,1.2747,1.2778,1.2887,1.2693,1.2414,1.2324,1.2421,1.198,1.1208,1.0939,1.053,1.0225,1.0004,0.9801,0.9601,0.9546,0.956,0.9557,0.9549,0.9105,0.8631,0.8154,0.7687,0.7372,0.716,0.6989,0.6781,0.6633,0.659,0.6619,0.6328,0.5601,0.4617,0.318,0.318,0.318,0.318,0.318,0.318,0.318,0.318,0.318,0.318,0.318,0.318,0.323,0.323,0.318,0.3281,0.323,0.318,0.318,0.318,0.3281,0.318,0.3185,0.3249,0.3195,0.3191,0.3183,0.318,0.318,0.3281,0.3632,0.4483,0.4183,0.478,0.6575,0.6528,0.6828,0.8616,0.8574,0.8713,0.8873,0.8881,0.8886,0.887,0.8804,0.8726,0.8559,0.8478,0.837,0.831,0.8263,0.826,0.8252,0.834,0.834,0.8384,0.8384,0.834,0.8348,0.8316,0.8276,0.8316,0.8344,0.8432,0.8644,0.86,0.8292,0.8245,0.8208,0.8212,0.8212,0.8256,0.8116,0.8157,0.8285,0.8671,0.9715,1.0923,1.1752,1.2229,1.2619,1.3137,1.3137,1.3137,1.316,1.316,1.2997,1.3039,1.3215,1.3392,1.2661,1.2171,1.1782,1.1502,1.1338,1.1147,1.0934,1.0902,1.0919,1.0796,1.0646,1.0264,0.9868,0.9431,0.9103,0.896,0.8746,0.852,0.8488,0.8394,0.837,0.8366,0.8004,0.7623,0.6833,0.318,0.318,0.318,0.318,0.318,0.318,0.323,0.3331,0.333,0.3381,0.3482,0.3482,0.3381,0.3331,0.3331,0.3381,0.3481,0.3682,0.3581,0.3531,0.3531,0.3682,0.3652,0.3474,0.3355,0.33,0.3247,0.3237,0.318,0.3281,0.3632,0.4435,0.5033,0.5529,0.7027,0.7624,0.7726,0.8623,0.9023,0.9373,0.9513,0.9624,0.9462,0.9429,0.9424,0.9343,0.9133,0.9007,0.8905,0.8915,0.8845,0.8857,0.8836,0.8893,0.8881,0.8889,0.8897,0.8885,0.8864,0.8881,0.8884,0.8926,0.8989,0.9064,0.9235,0.9126,0.8819,0.874,0.8704,0.8656,0.8656,0.8564,0.8472,0.8512,0.8592,0.8978,1.0149,1.123,1.1789,1.2314,1.2918,1.3519,1.361,1.3568,1.3561,1.3519,1.3512,1.3561,1.3603,1.3815,1.3578,1.3352,1.3163,1.2891,1.2593,1.2361,1.2134,1.2176,1.2159,1.1967,1.1788,1.1502,1.1208,1.0778,1.0527,1.0293,1.0202,1.0024,1.0034,0.9983,0.9935,0.9823,0.9677,0.9335,0.9012,0.318,0.318,0.323,0.323,0.323,0.323,0.3432,0.3781,0.3833,0.4083,0.4336,0.4435,0.4284,0.3883,0.3833,0.3989,0.4253,0.4349,0.4438,0.4483,0.4315,0.4401,0.436,0.4055,0.3603,0.3507,0.3427,0.327,0.3497,0.3436,0.3384,0.384,0.374,0.4342,0.5292,0.6097,0.7065,0.8311,0.9092,0.929,0.9772,0.9772,0.962,0.9534,0.9575,0.9458,0.9344,0.9326,0.9314,0.9402,0.9502,0.955,0.9529,0.947,0.947,0.9407,0.9462,0.9466,0.9453,0.9453,0.9459,0.9361,0.938,0.9376,0.9425,0.9345,0.9183,0.9253,0.9165,0.9016,0.8968,0.8876,0.878,0.9078,0.9248,1.0328,1.1494,1.2308,1.2954,1.3464,1.3928,1.423,1.4314,1.4314,1.4272,1.4272,1.4272,1.4272,1.423,1.4314,1.4405,1.4314,1.423,1.3977,1.3562,1.3426,1.3254,1.3357,1.34,1.318,1.3006,1.2844,1.2499,1.2123,1.1746,1.146,1.1381,1.1468,1.1385,1.1313,1.1339,1.1257,1.116,1.09,1.0476]},{"header":{"parameterUnit":"m.s-1","parameterCategory":1,"la1":31.0,"la2":29.5877,"lo1":-88.7671,"lo2":-86.6584,"dy":0.0162,"dx":0.0185,"nx":115,"ny":88,"refTime":"2023-08-19T12:00:00:Z","depth":0,"parameterNumber":3,"parameterNumberName":"V-component_of_WINDS"},"data":[0.0,0.0,0.0,0.0,0.0,0.0,0.0,0.0,0.0,0.0,0.0,0.0,0.0,0.0,0.0,0.0,0.0,0.0,0.0,0.0,0.0,0.0,0.0,0.0,0.0,0.0,0.0,0.0,0.0,0.0,0.0,0.0,0.0,0.0,0.0,0.0,0.0,0.0,0.0,0.0,0.0,0.0,0.0,0.0,0.0,0.0,0.0,0.0,0.0,0.0,0.0,0.0,0.0,0.0,0.0,0.0,0.0,0.0,0.0,0.0,0.0,0.0,0.0,0.0,0.0,0.0,0.0,0.0,0.0,0.0,0.0,0.0,0.0,0.0,0.0,0.0,0.0,0.0,0.0,0.0,0.0,0.0,0.0,0.0,0.0,0.0,0.0,0.0,0.0,0.0,0.0,0.0,0.0,0.0,0.0,0.0,0.0,0.0,0.0,0.0,0.0,0.0,0.0,0.0,0.0,0.0,0.0,0.0,0.0,0.0,0.0,0.0,0.0,0.0,0.0,0.0,0.0,0.0,0.0,0.0,0.0,0.0,0.0,0.0,0.0,0.0,0.0,0.0,0.0,0.0,0.0,0.0,0.0,0.0,0.0,0.0,0.0,0.0,0.0,0.0,0.0,0.0,0.0,0.0,0.0,0.0,0.0,0.0,0.0,0.0,0.0,0.0,0.0,0.0,0.0,0.0,0.0,0.0,0.0,0.0,0.0,0.0,0.0,0.0,0.0,0.0,0.0,0.0,0.0,0.0,0.0,0.0,0.0,0.0,0.0,0.0,0.0,0.0,0.0,0.0,0.0,0.0,0.0,0.0,0.0,0.0,0.0,0.0,0.0,0.0,0.0,0.0,0.0,0.0,0.0,0.0,0.0,0.0,0.0,0.0,0.0,0.0,0.0,0.0,0.0,0.0,0.0,0.0,0.0,0.0,0.0,0.0,0.0,0.0,0.0,0.0,0.0,0.0,0.0,0.0,0.0,0.0,0.0,0.0,0.0,0.0,0.0,0.0,0.0,0.0,0.0,0.0,0.0,0.0,0.0,0.0,0.0,0.0,0.0,0.0,0.0,0.0,0.0,0.0,0.0,0.0,0.0,0.0,0.0,0.0,0.0,0.0,0.0,0.0,0.0,0.0,0.0,0.0,0.0,0.0,0.0,0.0,0.0,0.0,0.0,0.0,0.0,0.0,0.0,0.0,0.0,0.0,0.0,0.0,0.0,0.0,0.0,0.0,0.0,0.0,0.0,0.0,0.0,0.0,0.0,0.0,0.0,0.0,0.0,0.0,0.0,0.0,0.0,0.0,0.0,0.0,0.0,0.0,0.0,0.0,0.0,0.0,0.0,0.0,0.0,0.0,0.0,0.0,0.0,0.0,0.0,0.0,0.0,0.0,0.0,0.0,0.0,0.0,0.0,0.0,0.0,0.0,0.0,0.0,0.0,0.0,0.0,0.0,0.0,0.0,0.0,0.0,0.0,0.0,0.0,0.0,0.0,0.0,0.0,0.0,0.0,0.0,0.0,0.0,0.0,0.0,0.0,0.0,0.0,0.0,0.0,0.0,0.0,0.0,0.0,0.0,0.0,0.0,0.0,0.0,0.0,0.0,0.0,0.0,0.0,0.0,0.0,0.0,0.0,0.0,0.0,0.0,0.0,0.0,0.0,0.0,0.0,0.0,0.0,0.0,0.0,0.0,0.0,0.0,0.0,0.0,0.0,0.0,0.0,0.0,0.0,0.0,0.0,0.0,0.0,0.0,0.0,0.0,0.0,0.0,0.0,0.0,0.0,0.0,0.0,0.0,0.0,0.0,0.0,0.0,0.0,0.0,0.0,0.0,0.0,0.0,0.0,0.0,0.0,0.0,0.0,0.0,0.0,0.0,0.0,0.0,0.0,0.0,0.0,0.0,0.0,0.0,0.0,0.0,0.0,0.0,0.0,0.0,0.0,0.0,0.0,0.0,0.0,0.0,0.0,0.0,0.0,0.0,0.0,0.0,0.0,0.0,0.0,0.0,0.0,0.0,0.0,0.0,0.0,0.0,0.0,0.0,0.0,0.0,0.0,0.0,0.0,0.0,0.0,0.0,0.0,0.0,0.0,0.0,0.0,0.0,0.0,0.0,0.0,0.0,0.0,0.0,0.0,0.0,0.0,0.0,0.0,0.0,0.0,0.0,0.0,0.0,0.0,0.0,0.0,0.0,0.0,0.0,0.0,0.0,0.0,0.0,0.0,0.0,0.0,0.0,0.0,0.0,0.0,0.0,0.0,0.0,0.0,0.0,0.0,0.0,0.0,0.0,0.0,0.0,0.0,0.0,0.0,0.0,0.0,0.0,0.0,0.0,0.0,0.0,0.0,0.0,0.0,0.0,0.0,0.0,0.0,0.0,0.0,0.0,0.0,0.0,0.0,0.0,0.0,0.0,0.0,0.0,0.0,0.0,0.0,0.0,0.0,0.0,0.0,0.0,0.0,0.0,0.0,0.0,0.0,0.0,0.0,0.0,0.0,0.0,0.0,0.0,0.0,0.0,0.0,0.0,0.0,0.0,0.0,0.0,0.0,0.0,0.0,0.0,0.0,0.0,0.0,0.0,0.0,0.0,0.0,0.0,0.0,0.0,0.0,0.0,0.0,0.0,0.0,0.0,0.0,0.0,0.0,0.0,0.0,0.0,0.0,0.0,0.0,0.0,0.0,0.0,0.0,0.0,0.0,0.0,0.0,0.0,0.0,0.0,0.0,0.0,0.0,0.0,0.0,0.0,0.0,0.0,0.0,0.0,0.0,0.0,0.0,0.0,0.0,0.0,0.0,0.0,0.0,0.0,0.0,0.0,0.0,0.0,0.0,0.0,0.0,0.0,0.0,0.0,0.0,0.0,0.0,0.0,0.0,0.0,0.0,0.0,0.0,0.0,0.0,0.0,0.0,0.0,0.0,0.0,0.0,0.0,0.0,0.0,0.0,0.0,0.0,0.0,0.0,0.0,0.0,0.0,0.0,0.0,0.0,0.0,0.0,0.0,0.0,0.0,0.0,0.0,0.0,0.0,0.0,0.0,0.0,0.0,0.0,0.0,0.0,0.0,0.0,0.0,0.0,0.0,0.0,0.0,0.0,0.0,0.0,0.0,0.0,0.0,0.0,0.0,0.0,0.0,0.0,0.0,0.0,0.0,0.0,0.0,0.0,0.0,0.0,0.0,0.0,0.0,0.0,0.0,0.0,0.0,0.0,0.0,0.0,0.0,0.0,0.0,0.0,0.0,0.0,0.0,0.0,0.0,0.0,0.0,0.0,0.0,0.0,0.0,0.0,0.0,0.0,0.0,0.0,0.0,0.0,0.0,0.0,0.0,0.0,0.0,0.0,0.0,0.0,0.0,0.0,0.0,0.0,0.0,0.0,0.0,0.0,0.0,0.0,0.0,0.0,0.0,0.0,0.0,0.0,0.0,0.0,0.0,0.0,0.0,0.0,0.0,0.0,0.0,0.0,0.0,0.0,0.0,0.0,0.0,0.0,0.0,0.0,0.0,0.0,0.0,0.0,0.0,0.0,0.0,0.0,0.0,0.0,0.0,0.0,0.0,0.0,0.0,0.0,0.0,0.0,0.0,0.0,0.0,0.0,0.0,0.0,0.0,0.0,0.0,0.0,0.0,0.0,0.0,0.0,0.0,0.0,0.0,0.0,0.0,0.0,0.0,0.0,0.0,0.0,0.0,0.0,0.0,0.0,0.0,0.0,0.0,0.0,0.0,0.0,0.0,0.0,0.0,0.0,0.0,0.0,0.0,0.0,0.0,0.0,0.0,0.0,0.0,0.0,0.0,0.0,0.0,0.0,0.0,0.0,0.0,0.0,0.0,0.0,0.0,0.0,0.0,0.0,0.0,0.0,0.0,0.0,0.0,0.0,0.0,0.0,0.0,0.0,0.0,0.0,0.0,0.0,0.0,0.0,0.0,0.0,0.0,0.0,0.0,0.0,0.0,0.0,0.0,0.0,0.0,0.0,0.0,0.0,0.0,0.0,0.0,0.0,0.0,0.0,0.0,0.0,0.0,0.0,0.0,0.0,0.0,0.0,0.0,0.0,0.0,0.0,0.0,0.0,0.0,0.0,0.0,0.0,0.0,0.0,0.0,0.0,0.0,0.0,0.0,0.0,0.0,0.0,0.0,0.0,0.0,0.0,0.0,0.0,0.0,0.0,0.0,0.0,0.0,0.0,0.0,0.0,0.0,0.0,0.0,0.0,0.0,0.0,0.0,0.0,0.0,0.0,0.0,0.0,0.0,0.0,0.0,4.1946,0.0,0.0,0.0,0.0,0.0,0.0,0.0,0.0,0.0,0.0,0.0,0.0,0.0,0.0,0.0,0.0,0.0,0.0,0.0,0.0,0.0,0.0,0.0,0.0,0.0,0.0,0.0,0.0,0.0,0.0,0.0,0.0,0.0,0.0,0.0,0.0,0.0,0.0,0.0,0.0,0.0,0.0,0.0,0.0,0.0,0.0,0.0,0.0,0.0,0.0,0.0,0.0,0.0,0.0,0.0,0.0,0.0,0.0,0.0,0.0,0.0,0.0,0.0,0.0,0.0,0.0,0.0,0.0,0.0,0.0,0.0,0.0,0.0,0.0,0.0,0.0,0.0,0.0,0.0,0.0,0.0,0.0,0.0,0.0,0.0,0.0,0.0,0.0,0.0,0.0,0.0,0.0,0.0,0.0,0.0,0.0,0.0,0.0,0.0,0.0,0.0,0.0,0.0,0.0,0.0,0.0,0.0,0.0,0.0,0.0,4.3105,4.2775,4.2757,4.2813,4.2905,0.0,0.0,0.0,0.0,0.0,0.0,0.0,0.0,0.0,0.0,0.0,0.0,0.0,0.0,0.0,0.0,0.0,0.0,0.0,0.0,0.0,0.0,0.0,0.0,0.0,0.0,0.0,0.0,0.0,0.0,0.0,0.0,0.0,0.0,0.0,0.0,0.0,0.0,0.0,0.0,0.0,0.0,0.0,0.0,0.0,0.0,0.0,0.0,0.0,0.0,0.0,0.0,0.0,0.0,0.0,0.0,0.0,0.0,0.0,0.0,0.0,0.0,0.0,0.0,0.0,0.0,0.0,0.0,0.0,0.0,0.0,0.0,0.0,0.0,0.0,0.0,0.0,0.0,0.0,0.0,0.0,0.0,0.0,0.0,0.0,0.0,0.0,0.0,0.0,0.0,0.0,0.0,0.0,0.0,0.0,0.0,0.0,0.0,0.0,0.0,0.0,0.0,0.0,0.0,0.0,0.0,0.0,0.0,0.0,0.0,0.0,0.0,4.3584,4.3617,4.3631,0.0,0.0,0.0,0.0,0.0,0.0,0.0,0.0,0.0,0.0,0.0,0.0,0.0,0.0,0.0,0.0,0.0,0.0,0.0,0.0,0.0,0.0,0.0,0.0,0.0,0.0,0.0,0.0,0.0,0.0,0.0,0.0,0.0,0.0,0.0,0.0,0.0,0.0,0.0,0.0,0.0,0.0,0.0,0.0,0.0,0.0,0.0,0.0,0.0,0.0,0.0,0.0,0.0,0.0,0.0,0.0,0.0,0.0,0.0,0.0,0.0,0.0,0.0,0.0,0.0,0.0,0.0,0.0,0.0,0.0,0.0,0.0,0.0,0.0,0.0,0.0,0.0,0.0,0.0,0.0,0.0,0.0,0.0,0.0,0.0,0.0,0.0,0.0,0.0,0.0,0.0,0.0,0.0,0.0,0.0,0.0,0.0,0.0,0.0,0.0,0.0,0.0,0.0,0.0,0.0,0.0,0.0,0.0,0.0,0.0,4.4298,4.4393,4.4449,0.0,4.3816,0.0,0.0,0.0,0.0,0.0,0.0,0.0,0.0,0.0,0.0,0.0,0.0,0.0,0.0,0.0,0.0,0.0,0.0,0.0,0.0,0.0,0.0,0.0,0.0,0.0,0.0,0.0,0.0,0.0,0.0,0.0,0.0,0.0,0.0,0.0,0.0,0.0,0.0,0.0,0.0,0.0,0.0,0.0,0.0,0.0,0.0,0.0,0.0,0.0,0.0,0.0,0.0,0.0,0.0,0.0,0.0,0.0,0.0,0.0,0.0,0.0,0.0,0.0,0.0,0.0,0.0,0.0,0.0,0.0,0.0,0.0,0.0,0.0,0.0,0.0,0.0,0.0,0.0,0.0,0.0,0.0,0.0,0.0,0.0,0.0,0.0,0.0,0.0,0.0,0.0,0.0,0.0,0.0,0.0,0.0,0.0,0.0,0.0,0.0,0.0,0.0,0.0,0.0,0.0,0.0,0.0,0.0,0.0,0.0,0.0,4.4649,4.4751,4.4341,4.3756,0.0,0.0,0.0,0.0,0.0,0.0,0.0,0.0,0.0,0.0,0.0,0.0,0.0,0.0,0.0,0.0,0.0,0.0,0.0,0.0,0.0,0.0,0.0,0.0,0.0,0.0,0.0,0.0,0.0,0.0,0.0,0.0,0.0,0.0,0.0,0.0,0.0,0.0,0.0,0.0,0.0,0.0,0.0,0.0,0.0,0.0,0.0,0.0,0.0,0.0,0.0,0.0,0.0,0.0,0.0,0.0,0.0,0.0,0.0,0.0,0.0,0.0,0.0,0.0,0.0,0.0,0.0,0.0,0.0,0.0,0.0,0.0,0.0,0.0,0.0,0.0,0.0,0.0,0.0,0.0,0.0,0.0,0.0,0.0,0.0,0.0,0.0,0.0,0.0,0.0,0.0,0.0,0.0,0.0,0.0,0.0,0.0,0.0,0.0,0.0,0.0,0.0,0.0,0.0,0.0,0.0,0.0,0.0,0.0,0.0,4.4268,4.4328,4.4345,4.3803,4.3183,4.2542,0.0,0.0,0.0,0.0,0.0,0.0,0.0,0.0,0.0,0.0,0.0,0.0,0.0,0.0,0.0,0.0,0.0,0.0,0.0,0.0,0.0,0.0,0.0,0.0,0.0,0.0,0.0,0.0,0.0,0.0,0.0,0.0,0.0,0.0,0.0,0.0,0.0,0.0,0.0,0.0,0.0,0.0,0.0,0.0,0.0,0.0,0.0,0.0,0.0,0.0,0.0,0.0,0.0,0.0,0.0,0.0,0.0,0.0,0.0,0.0,0.0,0.0,0.0,0.0,0.0,0.0,0.0,0.0,0.0,0.0,0.0,0.0,0.0,0.0,0.0,0.0,0.0,0.0,0.0,0.0,0.0,0.0,0.0,0.0,0.0,0.0,0.0,0.0,0.0,0.0,0.0,0.0,0.0,0.0,0.0,0.0,0.0,0.0,0.0,0.0,0.0,0.0,0.0,0.0,0.0,0.0,0.0,0.0,4.2823,4.3017,4.3088,4.3104,4.2862,4.2756,0.0,0.0,0.0,0.0,0.0,0.0,0.0,0.0,0.0,0.0,0.0,0.0,0.0,0.0,0.0,0.0,0.0,0.0,0.0,0.0,0.0,0.0,0.0,0.0,0.0,0.0,0.0,0.0,0.0,0.0,0.0,0.0,0.0,0.0,0.0,0.0,0.0,0.0,0.0,0.0,0.0,0.0,0.0,0.0,0.0,0.0,0.0,0.0,0.0,0.0,0.0,0.0,0.0,0.0,0.0,0.0,0.0,0.0,0.0,0.0,0.0,0.0,0.0,0.0,0.0,0.0,0.0,0.0,0.0,0.0,0.0,0.0,0.0,0.0,0.0,0.0,0.0,0.0,0.0,0.0,0.0,0.0,0.0,0.0,0.0,0.0,0.0,0.0,0.0,0.0,0.0,0.0,0.0,0.0,0.0,0.0,0.0,0.0,0.0,0.0,0.0,0.0,0.0,0.0,0.0,0.0,0.0,0.0,0.0,4.3097,4.3105,4.2885,4.2382,4.2261,4.1963,0.0,0.0,0.0,0.0,0.0,0.0,0.0,0.0,0.0,0.0,0.0,0.0,0.0,0.0,0.0,0.0,0.0,0.0,0.0,0.0,0.0,0.0,0.0,0.0,0.0,0.0,0.0,0.0,0.0,0.0,0.0,0.0,0.0,0.0,0.0,0.0,0.0,0.0,0.0,0.0,0.0,0.0,0.0,0.0,0.0,0.0,0.0,0.0,0.0,0.0,0.0,0.0,0.0,0.0,0.0,0.0,0.0,0.0,0.0,0.0,0.0,0.0,0.0,0.0,0.0,0.0,0.0,0.0,0.0,0.0,0.0,0.0,0.0,0.0,0.0,0.0,0.0,0.0,0.0,0.0,0.0,0.0,0.0,0.0,0.0,0.0,0.0,0.0,0.0,0.0,0.0,0.0,0.0,0.0,0.0,0.0,0.0,0.0,0.0,0.0,0.0,0.0,0.0,0.0,0.0,0.0,0.0,0.0,0.0,4.2549,0.0,4.2155,4.1661,4.1548,4.1276,0.0,0.0,0.0,0.0,0.0,0.0,0.0,0.0,0.0,0.0,0.0,0.0,0.0,0.0,0.0,0.0,0.0,0.0,0.0,0.0,0.0,0.0,0.0,0.0,0.0,0.0,0.0,0.0,0.0,0.0,0.0,0.0,0.0,0.0,0.0,0.0,0.0,0.0,0.0,0.0,0.0,0.0,0.0,0.0,0.0,0.0,0.0,0.0,0.0,0.0,0.0,0.0,0.0,0.0,0.0,0.0,0.0,0.0,0.0,0.0,0.0,0.0,0.0,0.0,0.0,0.0,0.0,0.0,0.0,0.0,0.0,0.0,0.0,0.0,0.0,0.0,0.0,0.0,0.0,0.0,0.0,0.0,0.0,0.0,0.0,0.0,0.0,0.0,0.0,0.0,0.0,0.0,0.0,0.0,0.0,0.0,0.0,0.0,0.0,0.0,0.0,0.0,0.0,0.0,0.0,0.0,0.0,0.0,4.1035,4.1016,4.0869,4.0859,4.0893,4.0813,4.0752,0.0,0.0,0.0,0.0,0.0,0.0,0.0,0.0,0.0,0.0,0.0,0.0,0.0,0.0,0.0,0.0,0.0,0.0,0.0,0.0,0.0,0.0,0.0,0.0,0.0,0.0,0.0,0.0,0.0,0.0,0.0,0.0,0.0,0.0,0.0,0.0,0.0,0.0,0.0,0.0,0.0,0.0,0.0,0.0,0.0,0.0,0.0,0.0,0.0,0.0,0.0,0.0,0.0,0.0,0.0,0.0,0.0,0.0,0.0,0.0,0.0,0.0,0.0,0.0,0.0,0.0,0.0,0.0,0.0,0.0,0.0,0.0,0.0,0.0,0.0,0.0,0.0,0.0,0.0,0.0,0.0,0.0,0.0,0.0,0.0,0.0,0.0,0.0,0.0,0.0,0.0,0.0,0.0,0.0,0.0,0.0,0.0,0.0,0.0,0.0,0.0,0.0,0.0,0.0,0.0,0.0,0.0,0.0,0.0,4.0918,4.0859,4.0877,4.0964,4.0878,4.0875,0.0,0.0,0.0,0.0,0.0,0.0,0.0,0.0,0.0,0.0,0.0,0.0,0.0,0.0,0.0,0.0,0.0,0.0,0.0,0.0,0.0,0.0,0.0,0.0,0.0,0.0,0.0,0.0,0.0,0.0,0.0,0.0,0.0,0.0,0.0,0.0,0.0,0.0,0.0,0.0,0.0,0.0,0.0,0.0,0.0,0.0,0.0,0.0,0.0,0.0,0.0,0.0,0.0,0.0,0.0,0.0,0.0,0.0,0.0,0.0,0.0,0.0,0.0,0.0,0.0,0.0,0.0,0.0,0.0,0.0,0.0,0.0,0.0,0.0,0.0,0.0,0.0,0.0,0.0,0.0,0.0,0.0,0.0,0.0,0.0,0.0,0.0,0.0,0.0,0.0,0.0,0.0,0.0,0.0,0.0,0.0,0.0,0.0,0.0,0.0,0.0,0.0,0.0,0.0,0.0,0.0,0.0,0.0,0.0,4.0496,4.0664,4.0794,4.0893,4.0836,4.0857,4.095,0.0,0.0,0.0,0.0,0.0,0.0,0.0,0.0,0.0,0.0,0.0,0.0,0.0,0.0,0.0,0.0,0.0,0.0,0.0,0.0,0.0,0.0,0.0,0.0,0.0,0.0,0.0,0.0,0.0,0.0,0.0,0.0,0.0,0.0,0.0,0.0,0.0,0.0,0.0,0.0,0.0,0.0,0.0,0.0,0.0,0.0,0.0,0.0,0.0,0.0,0.0,0.0,0.0,0.0,0.0,0.0,0.0,0.0,0.0,0.0,0.0,0.0,0.0,0.0,0.0,0.0,0.0,0.0,0.0,0.0,0.0,0.0,0.0,0.0,0.0,0.0,0.0,0.0,0.0,0.0,0.0,0.0,0.0,0.0,0.0,0.0,0.0,0.0,0.0,0.0,0.0,0.0,0.0,0.0,0.0,0.0,0.0,0.0,0.0,0.0,0.0,0.0,0.0,0.0,0.0,0.0,0.0,0.0,3.9789,4.023,4.0518,4.066,4.0688,4.0772,0.0,0.0,0.0,0.0,0.0,0.0,0.0,0.0,0.0,0.0,0.0,0.0,0.0,0.0,0.0,0.0,0.0,0.0,0.0,0.0,0.0,0.0,0.0,0.0,0.0,0.0,0.0,0.0,0.0,0.0,0.0,0.0,0.0,0.0,0.0,0.0,0.0,0.0,0.0,0.0,0.0,0.0,0.0,0.0,0.0,0.0,0.0,0.0,0.0,0.0,0.0,0.0,0.0,0.0,0.0,0.0,0.0,0.0,0.0,0.0,0.0,0.0,0.0,0.0,0.0,0.0,0.0,0.0,0.0,0.0,0.0,0.0,0.0,0.0,0.0,0.0,0.0,0.0,0.0,0.0,0.0,0.0,0.0,0.0,0.0,0.0,0.0,0.0,0.0,0.0,0.0,0.0,0.0,0.0,0.0,0.0,0.0,0.0,0.0,0.0,0.0,0.0,0.0,0.0,0.0,0.0,0.0,0.0,0.0,3.9808,3.9786,3.9918,4.0234,4.0539,4.077,0.0,0.0,0.0,0.0,0.0,0.0,0.0,0.0,0.0,0.0,0.0,0.0,0.0,0.0,0.0,0.0,0.0,0.0,0.0,0.0,0.0,0.0,0.0,0.0,0.0,0.0,0.0,0.0,0.0,0.0,0.0,0.0,0.0,0.0,0.0,0.0,0.0,0.0,0.0,0.0,0.0,0.0,0.0,0.0,0.0,0.0,0.0,0.0,0.0,0.0,0.0,0.0,0.0,0.0,0.0,0.0,0.0,0.0,0.0,0.0,0.0,0.0,0.0,0.0,0.0,0.0,0.0,0.0,0.0,0.0,0.0,0.0,0.0,0.0,0.0,0.0,0.0,0.0,0.0,0.0,0.0,0.0,0.0,0.0,0.0,0.0,0.0,0.0,0.0,0.0,0.0,0.0,0.0,0.0,0.0,0.0,0.0,0.0,0.0,0.0,0.0,0.0,0.0,0.0,0.0,0.0,0.0,0.0,3.9555,3.9396,3.9371,3.945,3.9594,4.0077,4.0441,0.0,0.0,0.0,0.0,0.0,0.0,0.0,0.0,0.0,0.0,0.0,0.0,0.0,0.0,0.0,0.0,0.0,0.0,0.0,0.0,0.0,0.0,0.0,0.0,0.0,0.0,0.0,0.0,0.0,0.0,0.0,0.0,0.0,0.0,0.0,0.0,0.0,0.0,0.0,0.0,0.0,0.0,0.0,0.0,0.0,0.0,0.0,0.0,0.0,0.0,0.0,0.0,0.0,0.0,0.0,0.0,0.0,0.0,0.0,0.0,0.0,0.0,0.0,0.0,0.0,0.0,0.0,0.0,0.0,0.0,0.0,0.0,0.0,0.0,0.0,0.0,0.0,0.0,0.0,0.0,0.0,0.0,0.0,0.0,0.0,0.0,0.0,0.0,0.0,0.0,0.0,0.0,0.0,0.0,0.0,0.0,0.0,0.0,0.0,0.0,0.0,0.0,0.0,0.0,0.0,0.0,0.0,0.0,3.9129,3.8758,3.8913,3.8961,3.8882,3.9541,3.9983,0.0,0.0,0.0,0.0,0.0,0.0,0.0,0.0,0.0,0.0,0.0,0.0,0.0,0.0,0.0,0.0,0.0,0.0,0.0,0.0,0.0,0.0,0.0,0.0,0.0,0.0,0.0,0.0,0.0,0.0,0.0,0.0,0.0,0.0,0.0,0.0,0.0,0.0,0.0,0.0,0.0,0.0,0.0,0.0,0.0,0.0,0.0,0.0,0.0,0.0,0.0,0.0,0.0,0.0,0.0,0.0,0.0,0.0,0.0,0.0,0.0,0.0,0.0,0.0,0.0,0.0,0.0,0.0,0.0,0.0,0.0,0.0,0.0,0.0,0.0,0.0,0.0,0.0,0.0,0.0,0.0,0.0,0.0,0.0,0.0,0.0,0.0,0.0,0.0,0.0,0.0,0.0,0.0,0.0,0.0,0.0,0.0,0.0,0.0,0.0,0.0,0.0,0.0,0.0,0.0,0.0,0.0,0.0,3.8405,3.8328,3.7927,3.7994,3.8566,3.9445,3.9882,0.0,0.0,0.0,0.0,0.0,0.0,0.0,0.0,0.0,0.0,0.0,0.0,0.0,0.0,0.0,0.0,0.0,0.0,0.0,0.0,0.0,0.0,0.0,0.0,0.0,0.0,0.0,0.0,0.0,0.0,0.0,0.0,0.0,0.0,0.0,0.0,0.0,0.0,0.0,0.0,0.0,0.0,0.0,0.0,0.0,0.0,0.0,0.0,4.5425,0.0,0.0,0.0,0.0,0.0,0.0,0.0,0.0,0.0,0.0,0.0,0.0,0.0,0.0,0.0,0.0,0.0,0.0,0.0,0.0,0.0,0.0,0.0,0.0,0.0,0.0,0.0,0.0,0.0,0.0,0.0,0.0,0.0,0.0,0.0,0.0,0.0,0.0,0.0,0.0,0.0,0.0,0.0,0.0,0.0,0.0,0.0,0.0,0.0,0.0,0.0,0.0,0.0,0.0,0.0,0.0,0.0,0.0,0.0,3.7254,3.7754,3.7251,3.7232,3.779,3.8582,3.915,0.0,0.0,0.0,0.0,0.0,0.0,0.0,0.0,0.0,0.0,0.0,0.0,0.0,0.0,0.0,0.0,0.0,0.0,0.0,0.0,0.0,0.0,0.0,0.0,0.0,0.0,0.0,0.0,0.0,0.0,0.0,0.0,0.0,0.0,0.0,0.0,0.0,0.0,0.0,0.0,0.0,0.0,0.0,0.0,0.0,0.0,0.0,0.0,0.0,0.0,0.0,0.0,0.0,0.0,0.0,0.0,0.0,0.0,0.0,0.0,0.0,0.0,0.0,0.0,0.0,0.0,0.0,0.0,0.0,0.0,0.0,0.0,0.0,0.0,0.0,0.0,0.0,0.0,0.0,0.0,0.0,0.0,0.0,0.0,0.0,0.0,0.0,0.0,0.0,0.0,0.0,0.0,0.0,0.0,0.0,0.0,0.0,0.0,0.0,0.0,0.0,0.0,0.0,0.0,0.0,0.0,0.0,3.5737,3.589,3.6851,3.6341,3.621,3.6556,3.7095,3.7822,3.8728,0.0,0.0,0.0,0.0,0.0,0.0,0.0,0.0,0.0,0.0,0.0,0.0,0.0,0.0,0.0,0.0,0.0,0.0,0.0,0.0,0.0,0.0,0.0,0.0,0.0,0.0,0.0,0.0,0.0,0.0,0.0,0.0,0.0,0.0,0.0,0.0,0.0,0.0,4.5559,4.5732,0.0,0.0,0.0,0.0,0.0,0.0,0.0,0.0,4.6,0.0,0.0,0.0,0.0,0.0,0.0,0.0,0.0,0.0,0.0,0.0,0.0,0.0,0.0,0.0,0.0,0.0,0.0,0.0,0.0,0.0,0.0,0.0,0.0,0.0,0.0,0.0,0.0,0.0,0.0,0.0,0.0,0.0,0.0,0.0,0.0,0.0,0.0,0.0,0.0,0.0,0.0,0.0,0.0,0.0,0.0,0.0,0.0,0.0,0.0,0.0,0.0,0.0,0.0,0.0,0.0,3.5742,3.4662,3.4446,3.5183,3.4113,3.384,3.4547,3.4636,3.5208,3.6343,0.0,0.0,0.0,0.0,0.0,0.0,0.0,0.0,0.0,0.0,0.0,0.0,0.0,0.0,0.0,0.0,0.0,0.0,0.0,0.0,0.0,0.0,0.0,0.0,0.0,0.0,0.0,0.0,0.0,0.0,0.0,0.0,0.0,0.0,0.0,0.0,0.0,0.0,0.0,4.5468,4.5643,0.0,0.0,0.0,0.0,0.0,0.0,0.0,0.0,4.5916,0.0,0.0,0.0,0.0,0.0,0.0,0.0,0.0,0.0,0.0,0.0,0.0,0.0,0.0,0.0,0.0,0.0,0.0,0.0,0.0,0.0,0.0,0.0,0.0,0.0,0.0,0.0,0.0,0.0,0.0,0.0,0.0,0.0,0.0,0.0,0.0,0.0,0.0,0.0,0.0,0.0,0.0,0.0,0.0,0.0,0.0,0.0,0.0,0.0,0.0,0.0,0.0,0.0,0.0,0.0,3.3731,3.274,3.261,3.3377,3.2576,3.2513,3.3345,3.3547,3.393,0.0,0.0,0.0,0.0,0.0,0.0,0.0,0.0,0.0,0.0,0.0,0.0,0.0,0.0,0.0,0.0,0.0,0.0,0.0,0.0,0.0,0.0,0.0,0.0,0.0,0.0,0.0,0.0,0.0,0.0,0.0,0.0,0.0,0.0,0.0,0.0,0.0,0.0,0.0,0.0,4.5602,4.6044,4.5144,0.0,0.0,0.0,0.0,0.0,0.0,4.5406,4.5421,0.0,0.0,0.0,0.0,0.0,0.0,0.0,0.0,0.0,0.0,0.0,0.0,0.0,0.0,0.0,0.0,0.0,0.0,0.0,0.0,0.0,0.0,0.0,0.0,0.0,0.0,0.0,0.0,0.0,0.0,0.0,0.0,0.0,0.0,0.0,0.0,0.0,0.0,0.0,0.0,0.0,0.0,0.0,0.0,0.0,0.0,0.0,0.0,0.0,0.0,0.0,0.0,0.0,0.0,0.0,3.2021,3.0969,3.087,3.1725,3.123,3.1284,3.1956,3.2457,3.2795,0.0,0.0,0.0,0.0,0.0,0.0,0.0,0.0,0.0,0.0,0.0,0.0,0.0,0.0,0.0,0.0,0.0,0.0,0.0,0.0,0.0,0.0,0.0,0.0,0.0,0.0,0.0,0.0,0.0,0.0,0.0,0.0,0.0,0.0,0.0,0.0,0.0,0.0,0.0,0.0,0.0,4.6303,4.5167,4.5797,0.0,0.0,0.0,0.0,4.4798,4.4879,0.0,0.0,0.0,0.0,0.0,0.0,0.0,0.0,0.0,0.0,0.0,0.0,0.0,0.0,0.0,0.0,0.0,0.0,0.0,0.0,0.0,0.0,0.0,0.0,0.0,0.0,0.0,0.0,0.0,0.0,0.0,0.0,0.0,0.0,0.0,0.0,0.0,0.0,0.0,0.0,0.0,0.0,0.0,0.0,0.0,0.0,0.0,0.0,0.0,0.0,0.0,0.0,0.0,0.0,0.0,0.0,3.1846,3.0243,2.9702,3.037,2.9737,2.9404,2.9519,3.0245,3.0877,0.0,0.0,0.0,0.0,0.0,0.0,0.0,0.0,0.0,0.0,0.0,0.0,0.0,0.0,0.0,0.0,0.0,0.0,0.0,0.0,0.0,0.0,0.0,0.0,0.0,0.0,0.0,0.0,0.0,0.0,0.0,0.0,0.0,0.0,0.0,0.0,0.0,0.0,0.0,0.0,0.0,4.5896,4.42,4.5026,4.5464,0.0,0.0,4.4734,4.4412,4.4805,0.0,0.0,0.0,0.0,0.0,0.0,0.0,0.0,0.0,0.0,0.0,0.0,0.0,0.0,0.0,0.0,0.0,0.0,0.0,0.0,0.0,0.0,0.0,0.0,0.0,0.0,0.0,0.0,0.0,0.0,0.0,0.0,0.0,0.0,0.0,0.0,0.0,0.0,0.0,0.0,0.0,0.0,0.0,0.0,0.0,0.0,0.0,0.0,0.0,0.0,0.0,0.0,0.0,0.0,0.0,3.0152,3.0337,2.9377,2.8967,2.9169,2.8856,2.8826,2.9074,2.9617,3.0192,0.0,0.0,0.0,0.0,0.0,0.0,0.0,0.0,0.0,0.0,0.0,0.0,0.0,0.0,0.0,0.0,0.0,0.0,0.0,0.0,0.0,0.0,0.0,0.0,0.0,0.0,0.0,0.0,0.0,0.0,0.0,0.0,0.0,0.0,0.0,0.0,0.0,0.0,0.0,0.0,0.0,0.0,4.3658,4.4646,0.0,0.0,0.0,4.316,4.2376,0.0,0.0,0.0,0.0,0.0,0.0,0.0,0.0,0.0,0.0,0.0,0.0,0.0,0.0,0.0,0.0,0.0,0.0,0.0,0.0,0.0,0.0,0.0,0.0,0.0,0.0,0.0,0.0,0.0,0.0,0.0,0.0,0.0,0.0,0.0,0.0,0.0,0.0,0.0,0.0,0.0,0.0,0.0,0.0,0.0,0.0,0.0,0.0,0.0,0.0,0.0,0.0,0.0,0.0,0.0,0.0,0.0,2.9196,2.8756,2.8493,2.8411,2.8411,2.8549,2.8858,2.9189,0.0,0.0,0.0,0.0,0.0,0.0,0.0,0.0,0.0,0.0,0.0,0.0,0.0,0.0,0.0,0.0,0.0,0.0,0.0,0.0,0.0,0.0,0.0,0.0,0.0,0.0,0.0,4.0634,0.0,0.0,0.0,0.0,0.0,0.0,0.0,0.0,0.0,0.0,0.0,0.0,0.0,0.0,4.4726,4.3233,4.401,4.3985,0.0,0.0,4.1389,4.0336,4.0222,4.0125,0.0,0.0,0.0,0.0,0.0,0.0,0.0,0.0,0.0,0.0,0.0,0.0,0.0,0.0,0.0,0.0,0.0,0.0,0.0,0.0,0.0,0.0,0.0,0.0,0.0,0.0,0.0,0.0,0.0,0.0,0.0,0.0,0.0,0.0,0.0,0.0,0.0,0.0,0.0,0.0,0.0,0.0,0.0,0.0,0.0,0.0,0.0,0.0,0.0,0.0,0.0,0.0,0.0,0.0,0.0,2.9196,2.8677,2.8396,2.8411,2.8411,2.8348,2.8244,2.8598,2.8958,0.0,0.0,0.0,0.0,0.0,0.0,0.0,0.0,0.0,0.0,0.0,0.0,0.0,0.0,0.0,0.0,0.0,0.0,0.0,0.0,0.0,0.0,0.0,0.0,0.0,0.0,0.0,0.0,0.0,0.0,0.0,0.0,0.0,0.0,0.0,0.0,0.0,0.0,0.0,0.0,0.0,4.3178,4.2866,4.2754,4.2126,0.0,0.0,3.9744,3.8873,3.9644,4.0273,3.9956,0.0,0.0,0.0,0.0,0.0,0.0,0.0,0.0,0.0,0.0,0.0,0.0,0.0,0.0,0.0,0.0,0.0,0.0,0.0,0.0,0.0,0.0,0.0,0.0,0.0,0.0,0.0,0.0,0.0,0.0,0.0,0.0,0.0,0.0,0.0,0.0,0.0,0.0,0.0,0.0,0.0,0.0,0.0,0.0,0.0,0.0,0.0,0.0,0.0,0.0,0.0,0.0,0.0,2.8527,2.8167,2.7953,2.8008,2.8372,2.7959,2.787,2.8186,2.8455,2.8451,0.0,0.0,0.0,0.0,0.0,0.0,0.0,0.0,0.0,0.0,0.0,0.0,0.0,0.0,0.0,0.0,0.0,0.0,0.0,0.0,0.0,0.0,0.0,0.0,0.0,0.0,0.0,0.0,3.7444,3.7455,3.7327,0.0,0.0,0.0,0.0,0.0,0.0,0.0,0.0,0.0,0.0,4.1341,4.1121,4.0652,0.0,0.0,3.8155,3.7608,3.7026,3.7107,3.7148,3.6857,3.6869,0.0,0.0,0.0,0.0,0.0,0.0,0.0,0.0,0.0,0.0,0.0,0.0,0.0,0.0,0.0,0.0,0.0,0.0,0.0,0.0,0.0,0.0,0.0,0.0,0.0,0.0,0.0,0.0,0.0,0.0,0.0,0.0,0.0,0.0,0.0,0.0,0.0,0.0,0.0,0.0,0.0,0.0,0.0,0.0,0.0,0.0,0.0,0.0,0.0,0.0,0.0,0.0,2.767,2.7287,2.7272,2.7515,2.8048,2.7414,2.7378,2.8024,2.8027,2.7929,0.0,0.0,0.0,0.0,0.0,0.0,0.0,0.0,0.0,0.0,0.0,0.0,0.0,0.0,0.0,0.0,0.0,0.0,0.0,0.0,0.0,0.0,0.0,0.0,0.0,0.0,0.0,0.0,3.629,3.6251,3.6114,0.0,0.0,0.0,0.0,0.0,0.0,0.0,0.0,0.0,0.0,3.9377,3.9349,3.8454,3.7568,3.6955,3.6041,3.5247,3.4812,3.4664,3.4405,3.3989,0.0,0.0,0.0,0.0,0.0,0.0,0.0,0.0,0.0,0.0,0.0,0.0,0.0,0.0,0.0,0.0,0.0,0.0,0.0,0.0,0.0,0.0,0.0,0.0,0.0,0.0,0.0,0.0,0.0,0.0,3.4355,0.0,0.0,0.0,0.0,0.0,0.0,0.0,0.0,0.0,0.0,0.0,0.0,0.0,0.0,0.0,0.0,0.0,0.0,0.0,0.0,0.0,0.0,2.6771,2.6718,2.673,2.6938,2.7282,2.6797,2.6916,2.772,2.7251,2.7359,2.8203,0.0,0.0,0.0,0.0,0.0,0.0,0.0,0.0,0.0,0.0,0.0,0.0,0.0,0.0,0.0,0.0,0.0,0.0,0.0,0.0,0.0,0.0,0.0,0.0,0.0,0.0,3.6383,3.5136,3.4298,0.0,0.0,0.0,0.0,0.0,0.0,0.0,0.0,0.0,0.0,3.7233,3.7316,3.7769,3.6207,3.5034,3.5006,3.3806,3.2736,3.2313,3.2579,3.2598,0.0,0.0,0.0,0.0,0.0,0.0,0.0,0.0,0.0,0.0,0.0,0.0,0.0,0.0,0.0,0.0,0.0,0.0,0.0,0.0,0.0,0.0,0.0,0.0,0.0,0.0,0.0,3.4505,3.4201,0.0,0.0,0.0,0.0,0.0,0.0,0.0,0.0,0.0,0.0,0.0,3.1277,3.2477,0.0,0.0,0.0,0.0,0.0,0.0,0.0,0.0,0.0,0.0,0.0,0.0,2.6534,2.6203,2.6508,2.6681,2.6703,2.6105,2.585,2.5992,2.6142,2.6649,2.754,0.0,0.0,0.0,0.0,0.0,0.0,0.0,0.0,0.0,0.0,0.0,0.0,0.0,0.0,0.0,0.0,0.0,0.0,0.0,0.0,0.0,0.0,0.0,0.0,0.0,3.43,0.0,0.0,0.0,0.0,0.0,0.0,0.0,0.0,0.0,0.0,0.0,3.533,3.5431,3.531,3.5477,3.6117,3.4772,3.3862,0.0,0.0,0.0,0.0,0.0,0.0,0.0,0.0,0.0,0.0,0.0,0.0,0.0,0.0,3.1811,3.4773,3.5353,3.5353,3.5195,0.0,0.0,0.0,0.0,0.0,0.0,0.0,0.0,0.0,0.0,0.0,0.0,0.0,0.0,3.4611,0.0,3.3054,0.0,0.0,0.0,0.0,0.0,0.0,0.0,0.0,3.1147,3.1693,3.0911,3.2146,3.2503,0.0,3.1634,3.0797,0.0,0.0,0.0,0.0,0.0,0.0,0.0,0.0,2.5981,2.5863,2.5897,2.5847,2.5692,2.52,2.4873,2.4757,2.5261,2.5801,2.6374,2.5758,2.612,0.0,0.0,0.0,0.0,0.0,0.0,0.0,0.0,0.0,0.0,0.0,0.0,0.0,0.0,0.0,0.0,0.0,0.0,0.0,0.0,0.0,0.0,0.0,3.2766,0.0,0.0,0.0,0.0,0.0,0.0,0.0,0.0,0.0,3.457,3.4395,3.4212,3.446,3.4021,3.3849,3.4294,0.0,0.0,0.0,0.0,0.0,0.0,0.0,2.8823,2.7903,2.7981,2.8007,2.7597,2.6909,2.6321,2.6192,0.0,0.0,3.1466,3.1839,3.1482,3.1482,3.0491,2.955,2.9101,2.8303,2.7184,0.0,0.0,0.0,0.0,0.0,0.0,0.0,0.0,3.5296,3.5302,0.0,3.3941,0.0,0.0,0.0,0.0,0.0,2.9955,0.0,0.0,3.0855,3.1482,3.1423,3.1496,3.1509,3.1495,3.1465,3.0863,2.9725,2.9543,0.0,0.0,0.0,0.0,0.0,0.0,2.5119,2.5658,2.4969,2.4472,2.4404,2.4209,2.4094,2.4077,2.4552,2.4815,2.4927,2.5322,2.6087,2.7156,2.6744,0.0,0.0,0.0,0.0,0.0,0.0,0.0,0.0,0.0,0.0,0.0,0.0,0.0,0.0,0.0,0.0,0.0,0.0,0.0,0.0,3.2088,0.0,0.0,0.0,0.0,0.0,0.0,0.0,0.0,0.0,0.0,3.3466,3.3597,3.3867,3.427,0.0,0.0,0.0,0.0,2.8876,2.8312,2.7814,2.7269,2.6297,2.6454,2.6345,2.5378,0.0,0.0,2.5223,2.3814,2.2744,2.2376,2.2382,2.338,2.6754,2.6536,2.5843,2.5795,2.4966,2.3981,2.3814,2.3459,2.264,3.4186,0.0,0.0,0.0,0.0,3.2293,3.2796,3.3985,3.4139,3.4122,3.3968,3.2751,0.0,0.0,0.0,0.0,0.0,0.0,2.9059,2.8908,3.0256,3.0563,3.0117,3.1035,3.1276,3.0807,3.1277,3.1317,3.095,3.0864,2.9939,2.8187,0.0,0.0,0.0,0.0,2.5531,2.5665,2.5282,2.4631,2.3712,2.3966,2.387,2.342,2.3069,2.3538,2.4924,2.4615,2.4998,2.6174,2.6088,0.0,0.0,0.0,0.0,0.0,0.0,0.0,0.0,0.0,0.0,0.0,0.0,0.0,0.0,0.0,0.0,0.0,0.0,0.0,2.9739,3.0024,3.0383,0.0,0.0,0.0,0.0,0.0,0.0,0.0,0.0,0.0,3.1204,3.1434,3.1486,0.0,0.0,3.0363,3.0339,2.9504,2.882,2.8623,2.7696,0.0,0.0,2.4967,2.4045,2.3097,2.2488,2.1926,2.142,2.1011,2.0585,2.0233,2.0204,2.0486,2.1226,2.2251,2.2796,2.3039,2.2306,2.1206,2.0132,1.9487,1.8665,3.5699,3.5068,3.3052,3.2458,3.2887,3.2896,3.3353,3.4055,3.4534,3.4561,3.4162,3.3038,3.2268,3.1705,3.0029,0.0,0.0,0.0,2.8587,2.8646,2.9426,2.969,2.9591,3.0335,3.0506,3.0147,3.0778,3.0954,3.0717,3.0368,2.9509,2.8095,0.0,0.0,2.6966,2.6076,2.5594,2.5521,2.5098,2.4341,2.3363,2.3302,2.3116,2.2724,2.2287,2.2804,2.4227,2.4105,2.4561,2.5727,2.5342,2.5205,0.0,0.0,0.0,0.0,0.0,0.0,0.0,0.0,0.0,0.0,0.0,2.8341,2.8959,0.0,0.0,0.0,2.92,2.8625,2.8298,2.8777,0.0,0.0,0.0,0.0,0.0,0.0,0.0,2.9251,2.9296,2.9356,2.9549,2.9449,2.9754,3.0811,2.9821,2.8996,2.8937,0.0,2.7066,2.647,2.548,2.4467,2.3546,2.2539,2.1663,2.1016,2.0008,1.924,1.9031,1.871,1.8332,1.7981,1.756,1.72,1.7079,1.7429,1.823,1.9598,1.8827,1.7518,1.6512,1.587,1.4943,3.6985,3.6963,3.3833,3.2739,3.3079,3.4255,3.4857,3.5083,3.5761,3.5811,3.5244,3.418,3.3186,3.2131,3.0319,0.0,2.942,2.8845,2.8587,2.8587,2.8587,2.8871,2.9341,2.9403,2.9389,2.9288,3.005,3.0031,2.9349,2.8779,2.8528,2.8576,2.846,2.8087,2.737,2.6188,2.55,2.5367,2.4612,2.3882,2.3238,2.2529,2.2175,2.2175,2.2086,2.2366,2.3032,2.3488,2.4275,2.5353,2.4396,2.4084,2.4698,0.0,0.0,0.0,0.0,0.0,0.0,0.0,0.0,0.0,0.0,0.0,0.0,0.0,0.0,0.0,2.7561,0.0,2.7423,2.801,0.0,0.0,0.0,2.9176,2.9085,2.8835,2.8551,2.8427,0.0,0.0,2.8398,2.7934,2.8607,3.1438,2.9622,2.8015,2.791,2.6182,2.4305,2.3021,2.211,2.1312,2.0646,1.9925,1.9461,1.9093,1.8294,1.7763,1.7628,1.6872,1.6199,1.5878,1.4852,1.4095,1.4059,1.3059,1.2684,1.5842,1.4861,1.3501,1.333,1.2739,1.1855,3.7001,3.6603,3.5811,3.577,3.607,3.4683,3.458,3.5297,3.4629,3.4363,3.437,3.3579,3.2404,3.0881,2.9702,2.9049,2.879,2.8687,2.8587,2.8587,2.8587,2.8425,2.8146,2.8555,2.8274,2.7597,2.8958,2.9101,2.8129,2.8786,2.892,2.8431,2.7926,2.7607,2.7444,2.6609,2.616,2.6134,2.4842,2.404,2.3674,2.3135,2.2807,2.2717,2.1906,2.1597,2.1828,2.1596,2.1804,2.2472,2.2245,2.2373,2.2964,2.1581,0.0,0.0,0.0,0.0,0.0,0.0,0.0,0.0,0.0,2.4801,2.597,0.0,2.591,0.0,2.6219,2.5923,2.6013,2.6948,0.0,0.0,2.8712,2.8725,2.9591,2.8213,2.733,2.7703,2.7736,2.7708,2.7618,2.7911,2.8317,2.8931,2.7162,2.5901,2.6214,2.4703,2.3115,2.2107,2.14,2.0758,1.9764,1.8863,1.7924,1.7224,1.6873,1.663,1.6399,1.5568,1.485,1.4527,1.3547,1.2814,1.2568,1.2037,1.1849,1.2492,1.218,1.1625,1.0924,1.0622,1.0171,3.7038,3.6867,3.6853,3.6842,3.6761,3.538,3.484,3.4843,3.4585,3.4219,3.3793,3.2933,3.1884,3.0652,2.9859,2.932,2.8999,2.8722,2.8587,2.8573,2.8315,2.8017,2.7691,2.7684,2.7329,2.676,2.795,2.8014,2.7163,2.7728,2.7834,2.7503,2.6811,2.6619,2.6925,2.6252,2.5764,2.5456,2.476,2.4081,2.3474,2.3567,2.3414,2.2912,2.2318,2.2047,2.2104,2.1655,2.1673,2.2154,2.146,2.1358,2.1942,2.064,2.0308,0.0,0.0,0.0,0.0,0.0,0.0,0.0,0.0,0.0,0.0,0.0,2.4927,2.5694,2.5428,2.5344,2.5711,2.6622,2.7546,2.8281,2.7932,2.7871,2.8539,2.7449,2.6714,2.704,2.7061,2.702,2.6971,2.7261,2.757,2.7693,2.6152,2.5087,2.5059,2.3542,2.1846,2.0918,2.0093,1.897,1.7458,1.6618,1.5856,1.4964,1.4747,1.4686,1.4494,1.4074,1.3623,1.3307,1.2282,1.1361,1.1112,1.0468,0.9991,0.9864,0.9827,0.9861,0.9904,0.9598,0.9065,3.7035,3.7186,3.7186,3.6794,3.6142,3.5912,3.5164,3.4178,3.4862,3.4511,3.338,3.2259,3.1485,3.0976,3.0331,2.9859,2.9537,2.9095,2.8821,2.868,2.8187,2.7841,2.7667,2.7097,2.6694,2.6525,2.7096,2.6966,2.6162,2.6161,2.6173,2.6211,2.5533,2.5472,2.6055,2.5438,2.4812,2.4261,2.4461,2.406,2.3051,2.382,2.3846,2.3046,2.2847,2.2801,2.2846,2.2358,2.228,2.2664,2.1249,2.0714,2.1329,2.0207,1.9765,0.0,1.9988,0.0,0.0,0.0,0.0,0.0,0.0,0.0,0.0,2.3674,2.4284,2.4719,2.4791,2.5147,2.5853,2.655,2.7028,2.7228,2.7189,2.7126,2.7092,2.6755,2.6521,2.6487,2.6487,2.6487,2.6512,2.6487,2.67,2.702,2.5945,2.4944,2.4505,2.2941,2.1204,1.9846,1.8514,1.7,1.5214,1.4441,1.3996,1.3128,1.2982,1.2759,1.2796,1.2548,1.2355,1.203,1.1036,1.0136,0.9834,0.8866,0.8106,0.816,0.8164,0.8505,0.9231,0.9061,0.8222,3.6939,3.6504,3.6489,3.6127,3.5517,3.4938,3.4565,3.4306,3.4018,3.3644,3.3168,3.1804,3.1295,3.1474,3.0651,3.0119,2.9905,3.019,2.9951,2.9328,2.9213,2.8626,2.7653,2.7915,2.7296,2.5997,2.6909,2.6509,2.4873,2.5285,2.5496,2.5503,2.4841,2.4689,2.5019,0.0,0.0,0.0,2.4228,2.3917,2.3061,2.3675,2.3882,2.345,2.2636,0.0,2.2162,2.1301,2.088,2.0955,2.0309,0.0,0.0,0.0,0.0,0.0,0.0,0.0,0.0,0.0,0.0,0.0,2.0362,2.1164,2.2922,2.3719,2.3908,2.3423,2.3398,2.397,2.5302,2.5961,2.6707,2.7771,2.7902,2.7781,2.7525,2.698,2.6624,2.6521,2.6487,2.6487,2.6436,2.6487,2.6499,2.6549,2.5712,2.4885,2.4354,2.3428,2.205,2.0077,1.7817,1.6036,1.5389,1.4784,1.4104,1.3594,1.3278,1.2956,1.2447,1.1641,1.1037,1.0797,0.9777,0.8977,0.873,0.8288,0.7975,0.8004,0.7996,0.8073,0.8309,0.8238,0.8026,3.6681,0.0,3.6206,3.577,0.0,3.4436,3.3962,3.3634,3.3444,3.3263,3.2991,3.1916,3.1485,3.1531,3.0705,3.0192,2.9943,2.9799,2.9493,2.9087,2.8711,2.8205,2.7581,2.717,2.648,2.5609,2.5788,2.5356,2.4461,2.4863,2.5004,2.481,2.4518,2.4335,2.4296,2.3811,2.3415,2.3101,2.3729,2.3559,2.2655,2.3378,2.3702,2.3447,0.0,0.0,0.0,0.0,0.0,0.0,0.0,0.0,0.0,0.0,0.0,1.9689,1.9516,1.9368,1.9293,1.8937,1.9147,2.0123,2.0405,2.1231,2.2942,2.3279,2.3276,2.2889,2.3069,2.3652,2.4669,2.544,2.619,2.6879,2.6994,2.6841,2.6413,2.6013,2.5749,2.5715,2.5935,2.5988,2.5703,2.5961,2.5936,2.5659,2.5179,2.4701,2.429,2.342,2.2013,1.9907,1.8017,1.6359,1.5433,1.4607,1.3767,1.2887,1.2331,1.1809,1.1168,1.0682,1.0166,0.9567,0.893,0.843,0.8047,0.777,0.7598,0.7512,0.7526,0.7488,0.7508,0.776,0.7788,3.649,3.5977,3.5962,3.5469,3.4668,3.3894,3.3121,3.2509,0.0,0.0,0.0,3.2179,3.1792,3.1546,3.0915,3.0447,3.0136,2.9415,2.9047,2.886,2.8133,2.7727,2.7536,2.632,2.5649,2.5469,2.4787,2.4384,2.4296,2.465,2.4607,2.4189,2.4308,2.4154,2.3644,2.3295,2.285,2.2362,2.3243,2.3192,2.2179,2.3026,2.3492,2.3441,2.3437,2.3543,2.3736,2.3297,2.2987,2.2867,2.1534,2.0944,2.1364,2.0952,2.0395,1.9828,2.0538,2.0575,1.9527,1.9805,2.0126,2.0399,2.0941,2.1661,2.2699,2.2713,2.2702,2.2665,2.3148,2.3682,2.4314,2.4999,2.5528,2.5697,2.5737,2.5625,2.5256,2.495,2.4906,2.4963,2.5314,2.5348,2.4937,2.5227,2.533,2.4836,2.4744,2.4585,2.4166,2.3051,2.1664,2.0073,1.8542,1.7115,1.58,1.4688,1.3594,1.2649,1.1859,1.0966,1.0258,1.0116,0.975,0.8957,0.8604,0.8415,0.79,0.777,0.7488,0.7405,0.7375,0.7375,0.7391,0.7782,0.7841,3.6737,3.5401,3.5401,3.4866,3.3955,3.2699,3.1665,3.0916,3.1734,3.229,3.2616,3.2122,3.2089,3.2419,3.1744,3.1344,3.1178,3.0835,3.0318,0.0,2.887,2.8205,2.7549,2.6878,2.6167,2.5506,2.5156,2.468,2.4211,2.4446,2.4216,2.3695,2.4118,2.3903,2.2981,2.2613,2.2389,2.2322,2.3014,2.2973,2.2147,2.2806,2.344,2.3962,2.396,2.4079,2.4277,2.3819,2.3362,2.2912,2.1874,2.1326,2.1375,2.0977,2.0425,1.9871,1.9882,1.9833,1.9677,1.9609,2.0217,2.1608,2.2226,2.2323,2.1853,2.2316,2.2616,2.2662,2.3213,2.3869,2.455,2.4599,2.4818,2.5248,2.5268,2.5294,2.5449,2.5021,2.4858,2.5322,2.5127,2.4836,2.4649,2.4758,2.4808,2.4706,2.4568,2.4442,2.3694,2.2414,2.1457,2.0771,1.896,1.7538,1.6924,1.5951,1.4931,1.4253,1.3418,1.2472,1.1368,1.1064,1.0614,0.963,0.9466,0.9291,0.8877,0.8776,0.8679,0.8623,0.8573,0.8554,0.8543,0.8684,0.8389,3.648,3.5915,3.5527,3.4804,3.3838,3.25,3.1439,3.079,3.1428,3.1779,3.1805,3.1622,3.1633,3.1784,3.1152,3.0585,3.0136,2.9586,2.892,2.8232,2.7983,2.7703,2.735,2.6962,2.6342,2.5632,2.5532,2.5112,2.4515,2.4784,2.464,2.4124,2.3783,2.3241,2.2614,2.2391,2.2313,2.2299,2.2612,2.2578,2.2217,2.2515,2.2866,2.3269,2.3284,2.359,2.4193,2.3471,2.3249,2.3691,2.2192,2.1481,2.1742,2.1376,2.0733,1.9887,2.032,2.0351,1.9729,1.9868,2.0305,2.1087,2.1338,2.1351,2.0986,2.2205,2.2999,2.2988,2.3256,2.3701,2.4292,2.4142,2.4079,2.4349,2.4296,2.4168,2.4045,2.3982,2.4007,2.4285,2.4313,2.4163,2.3811,2.4048,2.4194,2.4074,2.403,2.3865,2.3547,2.2635,2.1812,2.13,1.9964,1.8809,1.8176,1.7018,1.6119,1.5535,1.4595,1.3599,1.2655,1.2242,1.168,1.0862,1.0621,1.0483,1.0153,0.9677,0.9434,0.9242,0.8936,0.8774,0.874,0.8746,0.8518,3.6278,3.6238,3.5671,3.4701,3.3501,3.2385,3.1501,3.0817,3.1151,3.1236,3.1134,3.1172,3.1177,3.1053,3.0553,2.9996,2.9348,2.858,2.7852,2.7259,2.7192,2.7198,2.7102,2.6811,2.6342,2.5797,2.5727,2.5436,2.4975,2.528,2.533,2.4913,2.3607,2.2885,2.2846,2.2538,2.2402,2.2388,2.2335,2.2313,2.2313,2.2313,2.2459,2.2759,2.2794,2.3178,2.3917,2.3211,2.3199,2.4033,2.2543,2.1841,2.2285,2.1915,2.1284,2.05,2.0962,2.0947,2.006,2.0364,2.0685,2.0837,2.0948,2.1066,2.129,2.2547,2.3291,2.3111,2.3063,2.3338,2.3898,2.3701,2.3458,2.355,2.3528,2.3459,2.3097,2.3128,2.3289,2.3416,2.3635,2.3561,2.3314,2.3507,2.3755,2.3699,2.3563,2.3523,2.3471,2.3047,2.2512,2.1925,2.1049,2.008,1.9151,1.8196,1.7433,1.6974,1.6118,1.5255,1.451,1.3948,1.3337,1.2633,1.2268,1.2176,1.1789,1.1233,1.0843,1.0758,1.0358,0.9741,0.9696,0.9786,0.9277,3.6483,3.5731,3.5633,3.4243,3.2351,3.2068,3.1391,3.046,3.0443,3.0575,3.0829,3.1085,3.1063,3.0847,3.0764,3.053,3.0143,2.9494,2.8717,2.7974,2.7476,2.7144,2.6986,2.646,2.6082,2.5951,2.5732,2.5596,2.5444,2.575,2.5998,2.5865,2.3987,2.3349,2.3967,2.3171,2.266,2.266,2.2426,2.2313,2.2313,2.2313,2.262,2.33,2.3317,2.3457,2.372,2.3636,2.3582,2.3546,2.294,2.27,2.2914,2.25,2.2114,2.187,2.1523,2.1073,2.0638,2.1069,2.1577,2.2108,2.247,2.2909,2.3365,2.365,2.3393,2.2668,2.2439,2.3024,2.3806,2.3404,2.3192,2.3497,2.3476,2.3602,2.3892,2.3649,2.3502,2.4052,2.3643,2.3243,2.3518,2.3592,2.3635,2.3869,2.3924,2.3946,2.3952,2.373,2.3543,2.3157,2.2133,2.0938,2.0169,1.9527,1.9001,1.8891,1.8442,1.7505,1.6714,1.636,1.6146,1.4922,1.449,1.4288,1.4052,1.3721,1.3459,1.3206,1.2849,1.2525,1.2304,1.2311,1.1688,3.6828,3.638,3.5961,3.4706,3.3076,3.2541,3.1838,3.1018,3.0845,3.0633,3.044,3.0747,3.0811,3.0711,3.0695,3.0149,2.9178,2.8831,2.8056,2.7048,2.6916,2.687,2.6803,2.6843,2.6554,2.6148,2.6394,2.632,2.5975,2.6197,2.6016,2.5301,2.4277,2.3819,2.3744,2.324,2.2996,2.2996,2.2895,2.2807,2.2734,2.2453,2.2431,2.2702,2.2736,2.3015,2.3389,2.2937,2.308,2.4078,2.3215,2.2862,2.3482,2.2658,2.2226,2.2317,2.2067,2.1771,2.1486,2.1697,2.1944,2.2163,2.2384,2.2595,2.279,2.2853,2.2746,2.2784,2.304,2.3506,2.3826,2.3332,2.3036,2.3241,2.3383,2.3586,2.3779,2.4007,2.4206,2.4286,2.4033,2.3797,2.3861,2.3967,2.403,2.4067,2.4151,2.4385,2.4538,2.4486,2.4476,2.4438,2.3917,2.2856,2.1513,2.0705,2.0306,1.9851,1.9334,1.8694,1.8484,1.7962,1.7543,1.7071,1.6866,1.6644,1.6518,1.5976,1.5587,1.5407,1.4703,1.4066,1.3889,1.4007,1.3378,3.7058,3.6779,3.6221,3.5215,3.398,3.3211,3.2552,3.1924,3.1496,3.1086,3.0788,3.1045,3.1111,3.101,3.0891,3.0127,2.911,2.899,2.8318,2.7178,2.7165,2.7164,2.7181,2.73,2.7093,2.6727,2.7202,2.7213,2.667,2.6641,2.6348,2.569,2.5225,2.4819,2.4524,2.4224,2.3981,2.3981,2.3721,2.3513,2.3399,2.2868,2.2535,2.2525,2.2511,2.2757,2.3153,2.2447,2.2713,2.4132,2.3357,2.3091,2.3542,2.2991,2.2753,2.2906,2.2893,2.2832,2.2757,2.2608,2.2593,2.2721,2.2721,2.2757,2.2869,2.2884,2.3065,2.3493,2.3925,2.4129,2.3981,2.3598,2.3389,2.3501,2.3759,2.3867,2.3975,2.4455,2.4699,2.4567,2.4451,2.4415,2.44,2.4655,2.4815,2.4704,2.4855,2.5013,2.5237,2.5297,2.5322,2.5427,2.5427,2.4583,2.2805,2.2221,2.1694,2.1287,2.0835,2.0576,2.0205,1.9711,1.9365,1.938,1.9186,1.8885,1.8531,1.802,1.7382,1.7027,1.6483,1.5889,1.5869,1.5869,1.5961,3.7224,3.6553,3.6277,3.5683,3.4812,3.4021,3.3424,3.2918,3.2204,3.202,3.2197,3.2232,3.2232,3.2037,3.1584,3.1137,3.0768,3.0594,3.0128,2.9315,2.8643,2.8317,2.8299,2.7888,2.7651,2.7572,2.7841,2.7998,2.7887,2.7348,2.7487,2.8201,2.6831,2.659,2.7024,2.625,2.5953,2.5702,2.4885,2.4365,2.4247,2.3578,2.3164,2.3079,2.3054,2.2957,2.2811,2.2706,2.2762,2.2926,2.3489,2.3619,2.3266,2.3752,2.401,2.3961,2.4174,2.429,2.4189,2.3865,2.3787,2.4168,2.4123,2.4353,2.4545,2.4556,2.4578,2.4766,2.477,2.4713,2.447,2.4247,2.4271,2.4636,2.4791,2.4788,2.4823,2.4926,2.4902,2.4922,2.4867,2.495,2.5189,2.5524,2.5723,2.5817,2.5944,2.598,2.5962,2.6016,2.6034,2.6053,2.6001,2.5609,2.4457,2.3788,2.3646,2.3148,2.2648,2.2819,2.248,2.2118,2.1834,2.1584,2.1278,2.0903,2.0466,1.9902,1.9214,1.8837,1.8737,1.8395,1.8065,1.851,1.8539,3.7916,3.7207,3.7131,3.6632,3.5834,3.5403,3.4597,3.3547,3.3107,3.2722,3.2423,3.2406,3.2371,3.2319,3.2126,3.1638,3.0941,3.0872,3.059,3.0015,2.9228,2.8934,2.9033,2.8421,2.8071,2.8102,2.8179,2.8324,2.8442,2.8213,2.8094,2.8041,2.7558,2.7207,2.7002,2.6644,2.6425,2.6388,2.5979,2.5531,2.5034,2.4683,2.4277,2.3693,2.3294,2.3056,2.2958,2.2943,2.3102,2.3425,2.3716,2.3767,2.367,2.4079,2.408,2.3685,2.4489,2.4999,2.4906,2.4753,2.4713,2.4867,2.4886,2.498,2.507,2.5105,2.5086,2.5125,2.531,2.532,2.5203,2.4898,2.4708,2.4883,2.5141,2.5313,2.5389,2.5668,2.5941,2.5815,2.5764,2.5857,2.5947,2.6106,2.6176,2.6158,2.6159,2.6298,2.6436,2.6487,2.6573,2.6791,2.6858,2.6708,2.6386,2.5282,2.4606,2.4128,2.3775,2.3712,2.3473,2.3409,2.317,2.3105,2.2944,2.2461,2.186,2.1056,2.0478,2.0388,2.0338,2.0367,2.0254,2.0486,2.0548,3.8241,3.7739,3.7685,3.7327,3.6774,3.6453,3.5757,3.4723,3.4154,3.3587,3.316,3.2894,3.277,3.277,3.277,3.2404,3.1727,3.1577,3.1394,3.1174,3.0395,2.998,2.9768,2.9191,2.8688,2.8489,2.8529,2.8694,2.8844,2.8857,2.8652,2.8345,2.8279,2.8,2.7503,2.7448,2.7437,2.7379,2.7166,2.6704,2.6141,2.5855,2.5303,2.4545,2.4039,2.3601,2.3306,2.3277,2.3339,2.355,2.3809,2.4084,2.4358,2.448,2.4364,2.41,2.4872,2.5527,2.5585,2.5532,2.5648,2.5987,2.5969,2.5951,2.5933,2.5916,2.5896,2.5966,2.609,2.6246,2.6177,2.5929,2.5656,2.554,2.5762,2.5998,2.6033,2.6401,2.6607,2.6539,2.6522,2.659,2.6657,2.674,2.6789,2.674,2.6788,2.695,2.7128,2.7177,2.7208,2.7476,2.7537,2.7507,2.7317,2.6621,2.5847,2.5322,2.4962,2.4807,2.463,2.4591,2.4591,2.4567,2.4271,2.3782,2.3091,2.2243,2.1859,2.1729,2.1859,2.1945,2.2084,2.2341,2.2411,3.8125,3.7933,3.7916,3.781,3.7542,3.7013,3.677,3.6315,3.5181,3.4451,3.4167,3.3734,3.3372,3.3447,3.339,3.3364,3.3176,3.2811,3.2762,3.2859,3.2054,3.1283,3.0685,3.0035,2.9369,2.8773,2.903,2.9167,2.9178,2.9167,2.9141,2.9163,2.9111,2.901,2.9148,2.8984,2.9052,2.8835,2.8281,2.7859,2.7699,2.7006,2.6281,2.5525,2.5271,2.4704,2.3732,2.3635,2.3473,2.3283,2.3844,2.4598,2.5034,2.5011,2.5043,2.5285,2.5548,2.5889,2.6399,2.6221,2.6486,2.7191,2.747,2.7265,2.7218,2.7238,2.7206,2.7175,2.7206,2.7301,2.727,2.7222,2.7001,2.6725,2.6741,2.6857,2.6907,2.6989,2.7022,2.7037,2.7084,2.7085,2.7227,2.7422,2.7599,2.773,2.7872,2.7974,2.7964,2.7904,2.8029,2.8047,2.7968,2.7883,2.7957,2.7911,2.7253,2.6657,2.6352,2.6109,2.5829,2.5722,2.5758,2.5724,2.5319,2.4843,2.4225,2.3427,2.2957,2.2864,2.3164,2.3489,2.3703,2.3927,2.4331,3.8637,3.859,3.859,3.8559,3.8366,3.7533,3.686,3.6288,3.513,3.4371,3.3897,3.3609,3.3518,3.35,3.35,3.363,3.3797,3.3657,3.3602,3.3369,3.216,3.1503,3.1219,3.0164,2.947,2.9229,2.9294,2.9326,2.9355,2.9294,2.9318,2.9385,2.9367,2.9398,2.9533,2.9533,2.9542,2.9486,2.928,2.8868,2.8278,2.797,2.7446,2.669,2.6038,2.5466,2.5022,2.4292,2.3753,2.3495,2.3676,2.407,2.46,2.5024,2.554,2.6142,2.6214,2.6559,2.7119,2.6772,2.6758,2.7493,2.7683,2.7636,2.7636,2.7639,2.7624,2.7609,2.753,2.745,2.7482,2.7592,2.755,2.7195,2.7225,2.7258,2.7244,2.7413,2.7589,2.7747,2.7915,2.8039,2.808,2.8188,2.8201,2.825,2.8329,2.8342,2.8268,2.8268,2.8143,2.8098,2.8116,2.821,2.8277,2.8303,2.7966,2.7519,2.7296,2.7002,2.6773,2.6673,2.6739,2.6604,2.6233,2.578,2.518,2.4692,2.4188,2.4179,2.4556,2.4865,2.5137,2.5387,2.5626,3.9008,3.9027,3.9008,3.8799,3.846,3.7826,3.7174,3.6379,3.548,3.4834,3.443,3.4059,3.3917,3.3917,3.3904,3.4012,3.4185,3.4166,3.4124,3.3851,3.2681,3.1869,3.1317,3.0091,2.9471,2.9502,2.9512,2.9541,2.9598,2.9551,2.957,2.9625,2.9607,2.9643,2.9775,2.9765,2.9775,2.9739,2.9731,2.9449,2.899,2.8887,2.8491,2.7729,2.7137,2.6534,2.5857,2.5096,2.4567,2.4304,2.4208,2.4586,2.541,2.5643,2.5988,2.6716,2.6782,2.6922,2.749,2.7103,2.7151,2.7864,2.8069,2.8055,2.8059,2.8031,2.8045,2.8014,2.8,2.7908,2.795,2.8106,2.8124,2.7978,2.7794,2.771,2.7681,2.7869,2.8075,2.8232,2.8371,2.8491,2.8516,2.8646,2.8658,2.8639,2.8707,2.8731,2.8627,2.8602,2.8534,2.8484,2.8552,2.8615,2.8591,2.8603,2.8573,2.8314,2.8062,2.7704,2.7394,2.7348,2.7363,2.7109,2.6788,2.6312,2.5769,2.5628,2.5325,2.5647,2.5815,2.6031,2.6214,2.6335,2.6539,3.9231,3.9231,3.9318,3.888,3.813,3.8103,3.766,3.6866,3.6051,3.5675,3.5553,3.4857,3.4572,3.4583,3.4509,3.4517,3.4517,3.4454,3.4327,3.4057,3.3336,3.2339,3.0886,3.0084,2.9786,2.9715,2.9808,2.9849,2.9867,2.9837,2.9923,2.988,2.9899,2.9907,2.9946,2.9942,2.9942,2.9891,2.9867,2.9786,2.9687,2.9689,2.9376,2.8652,2.8425,2.7732,2.6612,2.6266,2.5906,2.5396,2.5305,2.596,2.703,2.6567,2.6615,2.7567,2.7161,2.7248,2.7502,2.741,2.7596,2.8467,2.8626,2.8694,2.8607,2.8596,2.8639,2.8614,2.8601,2.8607,2.8614,2.8713,2.8827,2.8827,2.8438,2.8299,2.8394,2.843,2.8502,2.8578,2.8578,2.8578,2.8652,2.8867,2.8966,2.9064,2.9171,2.9214,2.9238,2.9169,2.9163,2.913,2.9038,2.9049,2.9056,2.9045,2.9016,2.8897,2.8681,2.843,2.8102,2.8037,2.7947,2.7674,2.7406,2.6908,2.6644,2.6603,2.6533,2.6606,2.6811,2.7076,2.7211,2.7286,2.7344,3.9717,3.9785,4.0401,4.0162,3.9316,3.8806,3.8042,3.7106,3.5737,3.5218,3.5134,3.4954,3.4821,3.4821,3.4751,3.4747,3.4697,3.4623,3.4186,3.3695,3.3489,3.2424,3.1196,3.0725,3.038,3.0135,3.0546,3.0524,3.0015,3.0064,3.0063,3.011,3.0129,3.017,3.0254,3.0254,3.0267,3.0235,3.0247,3.0189,3.0136,3.0129,3.0053,2.9822,2.9211,2.8647,2.8072,2.7925,2.7137,2.5903,2.6382,2.7019,2.7785,2.7572,2.7688,2.8188,2.7864,2.7719,2.8191,2.7899,2.796,2.864,2.892,2.9,2.8971,2.9097,2.914,2.9126,2.9093,2.9049,2.8993,2.9016,2.9068,2.9016,2.886,2.8742,2.876,2.886,2.8929,2.8956,2.9097,2.9148,2.9155,2.9209,2.9312,2.9395,2.9465,2.9551,2.957,2.9598,2.9523,2.9542,2.9504,2.9513,2.9523,2.9494,2.9465,2.9379,2.926,2.9156,2.8888,2.8706,2.857,2.8368,2.819,2.7792,2.7816,2.7848,2.7762,2.7543,2.7684,2.7862,2.802,2.8112,2.8116,4.0257,4.058,4.0762,4.0275,3.9378,3.8572,3.7565,3.6407,3.5401,3.4936,3.4955,3.4927,3.4908,3.4898,3.4869,3.484,3.483,3.478,3.4507,3.4178,3.3818,3.2835,3.1788,3.1523,3.1406,3.1196,3.164,3.1466,3.0906,3.0752,3.0618,3.0367,3.0334,3.0369,3.0417,3.0453,3.0447,3.045,3.0444,3.0419,3.0389,3.0383,3.0365,3.0284,2.9798,2.9429,2.8982,2.8772,2.8142,2.7333,2.7503,2.8038,2.8596,2.8353,2.8509,2.9079,2.8727,2.8709,2.8984,2.8725,2.8693,2.9004,2.9214,2.9235,2.9256,2.9339,2.9359,2.9328,2.9328,2.9297,2.9266,2.9297,2.9387,2.9446,2.9378,2.9248,2.9129,2.9137,2.923,2.9304,2.9404,2.9472,2.9423,2.9482,2.9532,2.9579,2.9672,2.9751,2.982,2.9826,2.9834,2.9792,2.9767,2.9741,2.9741,2.9722,2.9775,2.9722,2.9688,2.9626,2.9397,2.9198,2.9012,2.8845,2.8803,2.8767,2.8652,2.8602,2.8506,2.8396,2.8498,2.8491,2.8559,2.8688,2.8736,4.0778,4.1466,4.0826,4.0034,3.928,3.828,3.7319,3.5759,3.5182,3.5001,3.5056,3.5001,3.4973,3.4917,3.4964,3.4993,3.5088,3.4993,3.4981,3.4772,3.4396,3.3568,3.2788,3.2642,3.255,3.2535,3.2872,3.2584,3.2006,3.1815,3.136,3.0862,3.0644,3.0504,3.0485,3.0485,3.0485,3.0479,3.0474,3.0474,3.0469,3.0469,3.0453,3.0398,3.0353,2.9965,2.9496,2.9237,2.8995,2.8711,2.8679,2.9034,2.9549,2.8963,2.9005,2.9472,2.9522,2.9541,2.9653,2.9551,2.9551,2.9514,2.9401,2.9495,2.9448,2.9429,2.9373,2.9542,2.9495,2.9504,2.9476,2.9607,2.9716,2.9796,2.9828,2.9744,2.9561,2.9415,2.9435,2.9617,2.9598,2.9532,2.9513,2.9598,2.9715,2.9823,2.9891,2.9954,3.0007,3.0037,3.0007,2.9946,2.9912,2.9896,2.9912,2.9943,3.0019,3.0034,3.0,2.9913,2.9644,2.9426,2.9285,2.9158,2.9068,2.9023,2.8982,2.8963,2.8975,2.8952,2.886,2.8819,2.883,2.9016,2.9095,4.0852,4.1609,4.2068,4.2154,4.1714,4.0358,3.9079,3.7906,3.598,3.5312,3.5234,3.5198,3.517,3.517,3.5212,3.5413,3.5886,3.5444,3.51,3.5136,3.507,3.486,3.4389,3.408,3.3556,3.3429,3.3843,3.3679,3.2991,3.2329,3.1816,3.1598,3.1076,3.0569,3.0554,3.0689,3.05,3.049,3.0523,3.0567,3.0567,3.0528,3.0509,3.0479,3.0455,3.0392,3.0265,3.0202,3.0125,3.001,2.9902,2.9844,2.9863,2.9734,2.9679,2.9696,2.9739,2.9722,2.9705,2.9741,2.9706,2.9667,2.9355,2.9162,2.9785,2.9403,2.9456,2.9749,2.9945,2.9888,2.982,2.982,2.9897,2.9937,2.9945,2.9945,2.9937,2.9856,2.9851,2.9883,2.9931,2.9943,2.9861,2.9869,2.9973,3.0047,3.0115,3.0182,3.0209,3.0241,3.0189,3.0109,3.0128,3.0095,3.008,3.0087,3.0121,3.018,3.0171,3.0154,2.9872,2.9698,2.9561,2.9416,2.9262,2.9251,2.9254,2.9188,2.9137,2.9148,2.918,2.9191,2.9225,2.9369,2.9476,4.1701,4.2747,4.244,4.2278,4.201,4.0489,3.9246,3.8374,3.713,3.646,3.6484,3.6508,3.6288,3.5931,3.5921,3.6085,3.6073,3.6093,3.5772,3.566,3.583,3.6104,3.5919,3.5361,3.4705,3.4405,3.4778,3.4565,3.3847,3.3334,3.2976,3.2516,3.2018,3.1656,3.1332,3.1502,3.155,3.1246,3.1158,3.1154,3.11,3.0723,3.055,3.0535,3.05,3.0485,3.0465,3.0465,3.0474,3.0447,3.0408,3.0343,3.0221,3.0189,3.0142,3.0052,3.0022,2.9996,2.9996,2.9981,3.0,2.9988,2.9613,2.9756,2.9994,2.9774,2.98,3.0079,3.0185,3.0183,3.0145,3.0145,3.0133,3.0136,3.0124,3.017,3.0196,3.0115,3.0052,3.008,3.0128,3.0095,3.0075,3.0105,3.0124,3.0177,3.0304,3.0365,3.034,3.0352,3.034,3.0316,3.0329,3.0311,3.028,3.026,3.0202,3.0214,3.0187,3.0185,3.0064,2.9953,2.9872,2.9698,2.9542,2.9541,2.9523,2.9415,2.9384,2.9443,2.9492,2.9551,2.9589,2.9652,2.9754,4.2542,4.3722,4.2418,4.19,4.1604,4.0109,3.9051,3.8439,3.8009,3.7701,3.7923,3.8003,3.7443,3.7061,3.7019,3.658,3.6294,3.6726,3.6768,3.586,3.6289,3.667,3.667,3.632,3.6069,3.5903,3.5689,3.5276,3.5009,3.4578,3.3895,3.3434,3.3178,3.266,3.2355,3.2689,3.2714,3.2149,3.2086,3.2062,3.1971,3.1462,3.123,3.1211,3.1188,3.1187,3.1149,3.097,3.0786,3.0718,3.0582,3.0488,3.0431,3.0419,3.0411,3.039,3.0348,3.0316,3.0298,3.0304,3.0317,3.0324,3.01,3.0177,3.0222,3.0069,3.0043,3.019,3.0286,3.0336,3.0394,3.0381,3.0389,3.0402,3.0404,3.0419,3.0399,3.0265,3.0227,3.0222,3.0296,3.0302,3.029,3.0302,3.029,3.0309,3.0428,3.0509,3.0485,3.0469,3.0433,3.0411,3.0394,3.0385,3.0355,3.0377,3.0342,3.031,3.0286,3.0267,3.026,3.0181,3.0085,2.9972,2.9857,2.9823,2.9761,2.9708,2.97,2.9738,2.9773,2.9794,2.9861,2.9934,3.0015,4.1901,4.2147,4.2616,4.2752,4.2428,4.0895,4.0092,3.9832,3.8626,3.8073,3.82,3.8179,3.8228,3.7981,3.7967,3.7516,3.7164,3.7672,3.7443,3.6294,3.6445,3.6799,3.7322,3.7173,3.7336,3.7423,3.6806,3.6183,3.614,3.5308,3.4908,3.4294,3.3762,3.3268,3.3214,3.3178,3.3346,3.3042,3.2999,3.2971,3.2889,3.2675,3.251,3.2482,3.2425,3.2487,3.2414,3.2008,3.1669,3.1608,3.0963,3.0607,3.0496,3.0491,3.0495,3.0463,3.0458,3.0453,3.0447,3.0458,3.0458,3.0318,2.9949,2.9899,3.0056,2.9865,2.9921,3.0185,3.0365,3.0423,3.0475,3.0503,3.0483,3.0477,3.0505,3.0521,3.0529,3.051,3.047,3.0443,3.0496,3.0511,3.0487,3.0452,3.0442,3.0451,3.052,3.0554,3.052,3.0505,3.0504,3.0463,3.0428,3.0414,3.0379,3.0453,3.046,3.0451,3.0422,3.0433,3.0402,3.0373,3.0291,3.0163,3.006,2.9972,2.9948,2.9929,2.9913,2.9897,2.9965,3.003,3.0073,3.0115,3.0177,4.2094,4.2464,4.2487,4.2463,4.2205,4.1143,4.0604,4.0548,3.9805,3.9489,3.9544,3.9593,3.9381,3.9101,3.9023,3.8572,3.8207,3.8728,3.8388,3.7471,3.7708,3.8076,3.8385,3.8124,3.8756,3.8981,3.8137,3.7364,3.7715,3.7088,3.6475,3.64,3.5689,3.5063,3.469,3.466,3.4307,3.4082,3.3906,3.3889,3.3803,3.3507,3.326,3.3225,3.3249,3.3203,3.3029,3.2364,3.1935,3.1764,3.1112,3.0749,3.0649,3.0648,3.0622,3.0569,3.0514,3.049,3.049,3.0485,3.0479,3.0465,3.011,3.0115,3.0298,3.022,3.007,3.03,3.0468,3.0545,3.0604,3.0607,3.063,3.0636,3.0655,3.0664,3.0673,3.0698,3.0671,3.0651,3.0633,3.0634,3.0625,3.0617,3.0617,3.0613,3.0619,3.0582,3.0559,3.054,3.054,3.0515,3.0467,3.0472,3.0462,3.052,3.0557,3.0542,3.0567,3.0572,3.0528,3.0481,3.0438,3.0364,3.0259,3.0148,3.0128,3.0129,3.0095,3.0059,3.0109,3.0163,3.0228,3.029,3.0444,4.2247,4.2679,4.222,4.1925,4.1665,4.1087,4.0814,4.0831,4.0816,4.0754,4.0887,4.0899,4.0554,4.0135,3.9923,3.9602,3.8887,3.9552,3.9162,3.8635,3.891,3.9474,3.9544,3.9397,3.947,4.0355,3.9758,3.8928,3.8675,3.8302,3.8405,3.8049,3.7623,3.7158,3.6526,3.6408,3.5827,3.5323,3.5026,3.4998,3.4637,3.4151,3.3747,3.374,3.3755,3.3835,3.3877,3.3128,3.2736,3.2469,3.1896,3.1289,3.1226,3.1221,3.1154,3.1015,3.0762,3.0577,3.0548,3.0537,3.0563,3.0552,3.0762,3.0855,3.0905,3.0914,3.0811,3.0698,3.062,3.0655,3.0722,3.0749,3.0771,3.0794,3.0815,3.0815,3.079,3.079,3.0786,3.0765,3.0762,3.0772,3.0805,3.068,3.0653,3.0657,3.0668,3.0617,3.0576,3.0582,3.0573,3.0549,3.0534,3.0561,3.0563,3.0591,3.0616,3.0603,3.0652,3.0698,3.063,3.0567,3.0545,3.0521,3.0419,3.0337,3.0315,3.0294,3.0259,3.024,3.026,3.0315,3.0389,3.07,3.0997,4.1697,4.1172,4.1799,4.1652,4.1034,4.0852,4.0877,4.0964,4.0964,4.1014,4.1049,4.1078,4.1001,4.0866,4.0867,4.044,3.9989,3.9832,3.9597,3.905,3.909,3.948,3.9832,3.9829,4.0156,4.0935,4.0798,4.0348,3.9702,3.8987,3.865,3.8633,3.858,3.8255,3.8071,3.7848,3.7737,3.6994,3.6796,3.6423,3.5816,3.5524,3.541,3.5416,3.539,3.5329,3.5125,3.4417,3.4042,3.4003,3.336,3.2951,3.2921,3.2963,3.2944,3.2486,3.1682,3.0678,3.0762,3.0808,3.0808,3.0978,3.1422,3.1734,3.1819,3.177,3.1532,3.073,3.0794,3.0965,3.114,3.1007,3.095,3.1065,3.126,3.1162,3.1083,3.1541,3.1461,3.1361,3.15,3.1203,3.1042,3.0862,3.0698,3.0703,3.0696,3.0649,3.0626,3.0626,3.0644,3.0642,3.0605,3.062,3.0649,3.0681,3.0686,3.0677,3.0739,3.0799,3.0765,3.0701,3.0708,3.0686,3.057,3.0494,3.047,3.0453,3.0419,3.0423,3.0442,3.0492,3.0573,3.0964,3.1333,4.1325,4.0951,4.1331,4.1262,4.0939,4.0959,4.0998,4.1031,4.1054,4.108,4.1106,4.1107,4.1107,4.1108,4.1107,4.0912,4.0619,4.0541,4.0404,4.0034,3.9955,4.017,4.0501,4.0578,4.0852,4.0969,4.1086,4.0905,4.0402,4.0203,3.9971,3.9852,3.952,3.9306,3.9217,3.876,3.8335,3.7854,3.745,3.7006,3.6594,3.6183,3.591,3.591,3.5917,3.5925,3.5736,3.5073,3.4665,3.4492,3.3828,3.3359,3.3318,3.332,3.332,3.3242,3.2695,3.203,3.1571,3.1469,3.1432,3.1648,3.222,3.2759,3.2784,3.2744,3.2665,3.2302,3.2244,3.2226,3.2226,3.2324,3.2305,3.2285,3.205,3.2128,3.2127,3.2301,3.2473,3.2335,3.2197,3.197,3.1663,3.1293,3.1101,3.0884,3.0826,3.0719,3.0678,3.0678,3.0699,3.0739,3.0704,3.0687,3.0726,3.0764,3.0757,3.0762,3.0795,3.0863,3.0864,3.0839,3.0827,3.0819,3.0741,3.0664,3.0614,3.0595,3.0568,3.0599,3.061,3.073,3.0843,3.0826,3.1273,4.1108,4.1029,4.1046,4.1052,4.1054,4.1106,4.1109,4.1129,4.1129,4.113,4.1111,4.1112,4.1112,4.1111,4.1111,4.1073,4.1072,4.111,4.1129,4.1129,4.113,4.1052,4.1032,4.1071,4.105,4.111,4.1109,4.1069,4.109,4.1031,4.0932,4.1088,4.042,4.0225,4.0026,3.9669,3.9219,3.8834,3.8058,3.7516,3.7088,3.6581,3.6328,3.623,3.6211,3.6229,3.6104,3.5737,3.5399,3.4904,3.4571,3.4266,3.4232,3.4281,3.4293,3.418,3.3827,3.3365,3.2871,3.2594,3.2413,3.2631,3.3102,3.3711,3.3728,3.3724,3.351,3.322,3.3181,3.3239,3.3373,3.3296,3.318,3.3123,3.3183,3.332,3.3398,3.3281,3.3125,3.291,3.2871,3.3046,3.2632,3.1998,3.1558,3.1194,3.0969,3.0825,3.073,3.0712,3.0731,3.0754,3.0768,3.074,3.079,3.0833,3.083,3.0828,3.0874,3.0895,3.0894,3.0893,3.0888,3.0865,3.0844,3.0789,3.0713,3.073,3.0742,3.0772,3.0842,3.1041,3.1127,3.115,3.1788,4.1109,4.1111,4.1152,4.1171,4.1172,4.1191,4.1191,4.1191,4.1191,4.1152,4.1112,4.1111,4.1112,4.1112,4.1113,4.1113,4.1112,4.1152,4.1172,4.1172,4.1191,4.1172,4.1152,4.1132,4.1113,4.1152,4.1132,4.1132,4.1172,4.1152,4.1132,4.1069,4.0895,4.0972,4.0893,4.058,4.021,3.9705,3.8906,3.8085,3.7613,3.7198,3.7074,3.7049,3.7065,3.7102,3.7097,3.6907,3.637,3.5758,3.5599,3.5392,3.5295,3.533,3.532,3.5194,3.4833,3.4464,3.4209,3.3672,3.3389,3.3565,3.404,3.4616,3.4615,3.4621,3.4271,3.38,3.3935,3.3761,3.3625,3.3432,3.3818,3.3918,3.4075,3.4058,3.4039,3.3884,3.3708,3.3473,3.359,3.3921,3.3757,3.3138,3.2441,3.2048,3.1287,3.1091,3.0777,3.0699,3.074,3.0761,3.0781,3.08,3.0858,3.0878,3.084,3.084,3.0859,3.0879,3.0878,3.0897,3.0916,3.0914,3.0873,3.0849,3.0821,3.0799,3.0828,3.0931,3.1064,3.1203,3.1918,3.2439,3.3365,4.1107,4.1108,4.113,4.113,4.113,4.1131,4.115,4.115,4.113,4.1111,4.1109,4.1108,4.1108,4.1109,4.1109,4.1109,4.1109,4.111,4.1131,4.1131,4.113,4.113,4.1131,4.1132,4.1112,4.1131,4.1112,4.1112,4.1131,4.1151,4.1131,4.1113,4.1132,4.1131,4.1111,4.1113,4.0859,4.05,3.9765,3.9017,3.8739,3.8082,3.7855,3.7851,3.7863,3.7575,3.7286,3.7654,3.6988,3.6393,3.6437,3.6321,3.6062,3.6036,3.5955,3.5894,3.5499,3.5353,3.5226,3.4708,3.4443,3.4991,3.5311,3.5451,3.5376,3.5459,3.5383,3.5108,3.4895,3.476,3.4971,3.501,3.5128,3.5036,3.4962,3.4926,3.4831,3.4734,3.4638,3.4541,3.4782,3.5121,3.4766,3.433,3.3597,3.2901,3.2079,3.1354,3.1042,3.0712,3.073,3.0748,3.0769,3.0929,3.0997,3.0939,3.0883,3.0966,3.1009,3.1012,3.1073,3.0878,3.0898,3.0898,3.0917,3.0896,3.0871,3.0861,3.0881,3.093,3.1081,3.1279,3.2244,3.3495,3.4369,4.124,4.1473,4.1493,4.134,4.1126,4.1107,4.1107,4.1107,4.1108,4.1107,4.1107,4.1105,4.1103,4.1104,4.1105,4.1105,4.1105,4.1107,4.1108,4.1108,4.1108,4.1107,4.1185,4.1322,4.146,4.1263,4.138,4.1479,4.1108,4.1108,4.1108,4.111,4.1131,4.1133,4.1113,4.1091,4.1081,4.0865,4.051,3.9847,3.955,3.9032,3.867,3.8666,3.8685,3.8505,3.8237,3.8391,3.7991,3.7335,3.7059,3.7089,3.6716,3.6358,3.6203,3.6105,3.595,3.5829,3.5663,3.547,3.5288,3.5627,3.5775,3.5858,3.596,3.5948,3.5763,3.579,3.5834,3.5994,3.6053,3.5997,3.6161,3.613,3.6136,3.61,3.5968,3.5854,3.5759,3.5683,3.5797,3.566,3.5476,3.4986,3.422,3.3345,3.2265,3.1653,3.1381,3.1035,3.073,3.073,3.0733,3.0936,3.1137,3.1262,3.1464,3.1921,3.185,3.145,3.1356,3.1182,3.095,3.0857,3.0878,3.0898,3.1035,3.1189,3.104,3.0858,3.1248,3.179,3.292,3.4098,3.4528,4.1656,4.2337,4.2376,4.1917,4.1321,4.1126,4.1166,4.1126,4.1106,4.1106,4.1105,4.1116,4.1114,4.1098,4.1099,4.1099,4.11,4.1104,4.1184,4.1281,4.1378,4.1223,4.1497,4.1808,4.2021,4.1497,4.1847,4.2022,4.136,4.1554,4.1437,4.1262,4.1361,4.1206,4.113,4.108,4.109,4.1081,4.0911,4.0377,3.9873,3.9612,3.9508,3.947,3.9495,3.9376,3.9104,3.9305,3.8869,3.8021,3.8064,3.8064,3.7832,3.7278,3.7069,3.7031,3.6336,3.6011,3.5892,3.5818,3.5919,3.5846,3.5856,3.5914,3.5875,3.5895,3.6147,3.6343,3.6161,3.6098,3.6279,3.6649,3.701,3.7191,3.7177,3.714,3.6989,3.6894,3.6796,3.6733,3.6231,3.5836,3.5803,3.5525,3.4749,3.379,3.2561,3.1953,3.1728,3.1382,3.1031,3.0672,3.0698,3.1099,3.1373,3.1726,3.2053,3.2591,3.2675,3.2218,3.1879,3.173,3.1444,3.1063,3.1282,3.1714,3.1676,3.16,3.1639,3.1782,3.2083,3.2703,3.3796,3.4619,3.5039,4.3003,4.3274,4.3274,4.3102,4.2833,4.2833,4.2209,4.1214,4.1116,4.1116,4.1115,4.1111,4.1109,4.1112,4.119,4.1228,4.119,4.1133,4.1233,4.1935,4.1956,4.1974,4.2229,4.2659,4.2795,4.2423,4.2735,4.3147,4.2891,4.264,4.2327,4.2151,4.1917,4.1583,4.1177,4.0947,4.088,4.0848,4.0752,4.0586,4.0312,4.0236,4.0223,4.0172,4.0204,3.9998,3.9605,3.9938,3.9571,3.8661,3.8719,3.881,3.8462,3.7881,3.7798,3.7773,3.7323,3.7367,3.7359,3.7287,3.6778,3.6275,3.5946,3.6203,3.6534,3.6056,3.6449,3.6985,3.6841,3.6966,3.7506,3.7701,3.7946,3.7972,3.798,3.7987,3.7893,3.7854,3.7773,3.7774,3.7467,3.713,3.6979,3.6568,3.5817,3.5104,3.4029,3.267,3.2164,3.1782,3.1388,3.0819,3.0696,3.1177,3.1623,3.2216,3.2755,3.3248,3.3262,3.2927,3.2639,3.2391,3.2366,3.2216,3.2391,3.2559,3.2622,3.2667,3.2714,3.2869,3.3287,3.3503,3.4172,3.4959,3.5549,4.3876,4.4147,4.4151,4.3975,4.372,4.3704,4.3001,4.2084,4.2004,4.2002,4.204,4.2038,4.2054,4.2054,4.1997,4.1995,4.1997,4.202,4.2139,4.282,4.2845,4.2846,4.3139,4.3606,4.3549,4.3313,4.3587,4.4018,4.3531,4.3647,4.3352,4.2939,4.2774,4.2269,4.1738,4.1416,4.117,4.1017,4.0767,4.0709,4.0578,4.0551,4.0544,4.0537,4.0505,4.0344,4.0125,4.0086,4.0144,3.9404,3.9288,3.952,3.9057,3.871,3.8594,3.8536,3.8228,3.8151,3.8048,3.8022,3.744,3.6864,3.6605,3.6861,3.7293,3.7046,3.7303,3.7676,3.7691,3.7899,3.8214,3.8404,3.8738,3.8772,3.8786,3.8795,3.8693,3.8635,3.8244,3.8302,3.8237,3.8068,3.7937,3.7568,3.6979,3.6312,3.5591,3.4183,3.2801,3.2347,3.2025,3.152,3.138,3.2014,3.2547,3.2996,3.3489,3.3954,3.3841,3.3619,3.339,3.317,3.3271,3.327,3.3114,3.3137,3.3615,3.3788,3.3856,3.4175,3.4687,3.4803,3.4772,3.5131,3.5685,4.4272,4.4977,4.5045,4.4594,4.3905,4.3972,4.3819,4.3683,4.3634,4.3572,4.3611,4.3463,4.3363,4.3536,4.3595,4.3478,4.3383,4.3431,4.357,4.3691,4.3714,4.3738,4.4013,4.452,4.438,4.4286,4.4461,4.4731,4.3936,4.3933,4.3851,4.3697,4.3613,4.3017,4.2516,4.2341,4.1852,4.1169,4.0732,4.0675,4.06,4.0593,4.0566,4.0566,4.0528,4.0509,4.0432,4.0477,4.0496,4.0361,4.0446,4.0511,4.0272,3.9822,3.9571,3.9217,3.867,3.8554,3.8503,3.8574,3.851,3.8228,3.8189,3.8208,3.8067,3.7982,3.8135,3.8373,3.8468,3.8457,3.8556,3.906,3.9564,3.958,3.9596,3.9518,3.9416,3.9113,3.8605,3.8414,3.8316,3.8225,3.8213,3.7985,3.7928,3.73,3.6621,3.594,3.4561,3.3203,3.2865,3.2551,3.2608,3.3102,3.3523,3.3699,3.4146,3.4552,3.4543,3.4347,3.4139,3.3998,3.4068,3.3957,3.3569,3.3702,3.4378,3.4781,3.4956,3.5323,3.5486,3.5444,3.5215,3.5073,3.5457,4.5628,4.5841,4.5865,4.5709,4.5492,4.5475,4.5126,4.4538,4.399,4.3714,4.3695,4.3712,4.3882,4.3709,4.369,4.3748,4.3748,4.379,4.4122,4.4341,4.4577,4.4558,4.4831,4.5282,4.5165,4.5106,4.5243,4.5597,4.5341,4.495,4.4493,4.4425,4.4465,4.3857,4.3504,4.359,4.2427,4.1443,4.0945,4.0839,4.0742,4.0758,4.07,4.0662,4.0662,4.0623,4.0546,4.0546,4.0546,4.0527,4.0527,4.0534,4.0469,4.0296,4.0192,4.0173,3.9935,3.9846,3.98,3.9788,3.9718,3.9656,3.9687,3.942,3.9082,3.8729,3.88,3.9103,3.9219,3.9174,3.9361,3.9812,4.0089,4.0107,4.0107,4.0031,3.9908,3.968,3.9181,3.8957,3.8852,3.8783,3.8744,3.8804,3.8688,3.8163,3.758,3.6984,3.6226,3.4816,3.4068,3.3792,3.3695,3.4189,3.4045,3.4145,3.466,3.5078,3.5188,3.5238,3.5032,3.494,3.4894,3.4724,3.4449,3.4751,3.5333,3.5587,3.5674,3.5641,3.5736,3.5722,3.567,3.5524,3.5449,4.6198,4.6201,4.6206,4.6203,4.6198,4.6212,4.5858,4.5351,4.4889,4.4677,4.4696,4.4727,4.4707,4.4743,4.4782,4.4782,4.4802,4.4869,4.5086,4.5301,4.5382,4.5426,4.5679,4.5855,4.5799,4.5757,4.5835,4.6075,4.605,4.5788,4.5355,4.5237,4.5324,4.4661,4.4162,4.3993,4.3376,4.2363,4.1673,4.1485,4.1407,4.1363,4.1286,4.1017,4.0987,4.0844,4.0537,4.0518,4.0479,4.0479,4.046,4.046,4.046,4.0441,4.0433,4.04,4.0362,4.0301,4.0279,4.0318,4.043,4.0503,4.0495,4.0215,3.9892,3.9542,3.9803,4.0094,3.9964,3.9926,4.0241,4.0518,4.0552,4.0566,4.0511,4.0454,4.0337,4.0217,3.9958,3.9716,3.9603,3.9535,3.9541,3.9575,3.93,3.8542,3.7992,3.7558,3.7051,3.6255,3.5675,3.5437,3.5205,3.5191,3.4977,3.4942,3.5514,3.6051,3.6351,3.6305,3.6024,3.5753,3.5617,3.5521,3.54,3.559,3.5606,3.6061,3.6233,3.6125,3.6187,3.6549,3.6393,3.5933,3.5875,4.6203,4.6203,4.6198,4.6215,4.6203,4.6206,4.618,4.6199,4.606,4.6164,4.6083,4.6148,4.6008,4.5816,4.5816,4.5875,4.58,4.5806,4.5774,4.6183,4.6017,4.6,4.6022,4.6184,4.6078,4.6162,4.6201,4.6215,4.6201,4.6036,4.5923,4.6008,4.5953,4.5424,4.4763,4.4705,4.4232,4.3582,4.3188,4.3082,4.2741,4.2697,4.2554,4.1939,4.169,4.147,4.0799,4.0522,4.0464,4.0445,4.0415,4.0415,4.0405,4.0396,4.0388,4.0388,4.0407,4.0388,4.0396,4.0405,4.0405,4.0424,4.0407,4.0356,4.0178,4.0079,4.0303,4.035,4.0188,4.0169,4.0407,4.0465,4.0492,4.0465,4.0406,4.0274,4.012,3.9924,3.963,3.9445,3.9371,3.9344,3.9344,3.9298,3.9229,3.8602,3.8383,3.809,3.7788,3.7325,3.695,3.6726,3.6335,3.6064,3.6169,3.6207,3.6585,3.7011,3.723,3.7088,3.6574,3.6396,3.628,3.6086,3.5839,3.5611,3.5662,3.6116,3.6397,3.6298,3.6566,3.7367,3.723,3.6573,3.6306,4.6203,4.6203,4.6209,4.6206,4.6206,4.6199,4.6199,4.6199,4.6203,4.6206,4.6203,4.6199,4.6199,4.6199,4.6199,4.6199,4.6199,4.6203,4.6203,4.6206,4.6213,4.62,4.6232,4.6316,4.6252,4.6213,4.6209,4.6213,4.6196,4.6187,4.6138,4.6037,4.6056,4.577,4.533,4.5316,4.5102,4.4592,4.4558,4.4023,4.3272,4.2985,4.2745,4.2611,4.2525,4.2161,4.1625,4.1327,4.0943,4.0579,4.0445,4.0407,4.0407,4.0362,4.0325,4.0316,4.0344,4.0344,4.0344,4.0353,4.0381,4.0389,4.0398,4.0407,4.0396,4.0415,4.0424,4.0413,4.0413,4.0413,4.0432,4.0413,4.0386,4.0332,4.0278,4.0081,3.991,3.9566,3.9253,3.9165,3.9082,3.9073,3.9087,3.9036,3.8938,3.892,3.8928,3.8792,3.8659,3.8287,3.7685,3.7377,3.7028,3.687,3.7012,3.7227,3.7461,3.7415,3.7471,3.7291,3.7091,3.6861,3.6654,3.6403,3.6165,3.6031,3.5994,3.6167,3.6365,3.6452,3.7135,3.8022,3.7814,3.7198,3.6939,4.6199,4.6199,4.6199,4.6199,4.6199,4.6199,4.6199,4.6199,4.6199,4.6199,4.6199,4.6199,4.6196,4.6196,4.6199,4.6192,4.6196,4.6199,4.6199,4.6199,4.6192,4.6199,4.6277,4.6468,4.6414,4.6355,4.6238,4.6199,4.6199,4.6192,4.6146,4.6032,4.608,4.5963,4.5701,4.5728,4.5684,4.5381,4.5428,4.4825,4.3857,4.3896,4.3675,4.3599,4.3274,4.2891,4.2307,4.1905,4.1369,4.0843,4.0613,4.0375,4.0336,4.0318,4.0318,4.0309,4.0309,4.0318,4.0356,4.0423,4.0451,4.0423,4.0337,4.0319,4.0234,4.0244,4.0308,4.0298,4.0345,4.0364,4.0364,4.0355,4.0344,4.0316,4.027,4.0148,3.9889,3.9555,3.9357,3.9232,3.9129,3.8979,3.8979,3.8979,3.8909,3.8909,3.8984,3.897,3.8931,3.8892,3.8396,3.8021,3.7653,3.7474,3.7524,3.7784,3.8131,3.8019,3.777,3.7805,3.7746,3.7325,3.6988,3.6799,3.668,3.6615,3.6606,3.672,3.6767,3.6909,3.7755,3.8736,3.8273,3.7893,3.7786,4.6199,4.6199,4.6199,4.6199,4.6199,4.6199,4.6196,4.6189,4.6169,4.6185,4.6177,4.6177,4.6185,4.6189,4.6189,4.6185,4.6158,4.6142,4.615,4.6154,4.6154,4.6142,4.6399,4.6746,4.652,4.6465,4.6429,4.6293,4.6199,4.6192,4.6146,4.6056,4.5956,4.5859,4.5654,4.5558,4.556,4.5419,4.5361,4.531,4.5241,4.5277,4.4753,4.436,4.4102,4.372,4.2966,4.2374,4.1896,4.1495,4.117,4.1007,4.0912,4.096,4.0902,4.0941,4.0979,4.0921,4.0826,4.0902,4.0702,4.0473,4.0339,4.0262,4.0203,4.0128,4.0196,4.0253,4.0301,4.0291,4.0291,4.0291,4.0291,4.0262,4.0205,4.0081,3.978,3.9489,3.9326,3.9205,3.9031,3.8848,3.8837,3.8851,3.8833,3.8848,3.8829,3.8833,3.8818,3.8743,3.8475,3.8368,3.8227,3.8113,3.8048,3.8186,3.8484,3.8471,3.8271,3.8393,3.8407,3.8066,3.7685,3.7282,3.7171,3.7115,3.7261,3.7411,3.7448,3.7422,3.8242,3.9037,3.8812,3.8514,3.8651,4.6199,4.6199,4.6196,4.6196,4.6196,4.6196,4.6181,4.6115,4.613,4.6089,4.6085,4.6056,4.6071,4.6126,4.613,4.6176,4.6289,4.6222,4.6095,4.6032,4.6401,4.6236,4.6338,4.6934,4.6423,4.6508,4.6808,4.6761,4.6372,4.624,4.6224,4.6208,4.6236,4.6144,4.6005,4.5925,4.5905,4.5676,4.5447,4.5407,4.5246,4.5246,4.5258,4.5097,4.5048,4.4494,4.3959,4.3643,4.3127,4.2628,4.2205,4.1994,4.1899,4.1852,4.1852,4.1786,4.1814,4.1833,4.1776,4.1776,4.1594,4.0955,4.0831,4.0611,4.042,4.0077,4.0175,4.0279,4.0299,4.0253,4.0243,4.0244,4.0225,4.0118,4.0059,3.9755,3.9433,3.9187,3.8998,3.8826,3.8661,3.8572,3.8541,3.8541,3.8556,3.8556,3.8556,3.8556,3.8572,3.8541,3.8528,3.8541,3.8572,3.8664,3.8564,3.8446,3.8629,3.8656,3.8641,3.8551,3.859,3.8809,3.8469,3.7873,3.7684,3.763,3.7817,3.7954,3.7979,3.8041,3.8746,3.9258,3.9082,3.8973,3.8927]}]]